[[{"header":{"parameterUnit":"m.s-1","parameterCategory":1,"la1":31.0,"la2":29.5877,"lo1":-88.7671,"lo2":-86.6584,"dy":0.0162,"dx":0.0185,"nx":115,"ny":88,"refTime":"2024-04-26T00:00:00:Z","depth":0,"parameterNumber":2,"parameterNumberName":"U-component_of_WINDS"},"data":[0.0,0.0,0.0,0.0,0.0,0.0,0.0,0.0,0.0,0.0,0.0,0.0,0.0,0.0,0.0,0.0,0.0,0.0,0.0,0.0,0.0,0.0,0.0,0.0,0.0,0.0,0.0,0.0,0.0,0.0,0.0,0.0,0.0,0.0,0.0,0.0,0.0,0.0,0.0,0.0,0.0,0.0,0.0,0.0,0.0,0.0,0.0,0.0,0.0,0.0,0.0,0.0,0.0,0.0,0.0,0.0,0.0,0.0,0.0,0.0,0.0,0.0,0.0,0.0,0.0,0.0,0.0,0.0,0.0,0.0,0.0,0.0,0.0,0.0,0.0,0.0,0.0,0.0,0.0,0.0,0.0,0.0,0.0,0.0,0.0,0.0,0.0,0.0,0.0,0.0,0.0,0.0,0.0,0.0,0.0,0.0,0.0,0.0,0.0,0.0,0.0,0.0,0.0,0.0,0.0,0.0,0.0,0.0,0.0,0.0,0.0,0.0,0.0,0.0,0.0,0.0,0.0,0.0,0.0,0.0,0.0,0.0,0.0,0.0,0.0,0.0,0.0,0.0,0.0,0.0,0.0,0.0,0.0,0.0,0.0,0.0,0.0,0.0,0.0,0.0,0.0,0.0,0.0,0.0,0.0,0.0,0.0,0.0,0.0,0.0,0.0,0.0,0.0,0.0,0.0,0.0,0.0,0.0,0.0,0.0,0.0,0.0,0.0,0.0,0.0,0.0,0.0,0.0,0.0,0.0,0.0,0.0,0.0,0.0,0.0,0.0,0.0,0.0,0.0,0.0,0.0,0.0,0.0,0.0,0.0,0.0,0.0,0.0,0.0,0.0,0.0,0.0,0.0,0.0,0.0,0.0,0.0,0.0,0.0,0.0,0.0,0.0,0.0,0.0,0.0,0.0,0.0,0.0,0.0,0.0,0.0,0.0,0.0,0.0,0.0,0.0,0.0,0.0,0.0,0.0,0.0,0.0,0.0,0.0,0.0,0.0,0.0,0.0,0.0,0.0,0.0,0.0,0.0,0.0,0.0,0.0,0.0,0.0,0.0,0.0,0.0,0.0,0.0,0.0,0.0,0.0,0.0,0.0,0.0,0.0,0.0,0.0,0.0,0.0,0.0,0.0,0.0,0.0,0.0,0.0,0.0,0.0,0.0,0.0,0.0,0.0,0.0,0.0,0.0,0.0,0.0,0.0,0.0,0.0,0.0,0.0,0.0,0.0,0.0,0.0,0.0,0.0,0.0,0.0,0.0,0.0,0.0,0.0,0.0,0.0,0.0,0.0,0.0,0.0,0.0,0.0,0.0,0.0,0.0,0.0,0.0,0.0,0.0,0.0,0.0,0.0,0.0,0.0,0.0,0.0,0.0,0.0,0.0,0.0,0.0,0.0,0.0,0.0,0.0,0.0,0.0,0.0,0.0,0.0,0.0,0.0,0.0,0.0,0.0,0.0,0.0,0.0,0.0,0.0,0.0,0.0,0.0,0.0,0.0,0.0,0.0,0.0,0.0,0.0,0.0,0.0,0.0,0.0,0.0,0.0,0.0,0.0,0.0,0.0,0.0,0.0,0.0,0.0,0.0,0.0,0.0,0.0,0.0,0.0,0.0,0.0,0.0,0.0,0.0,0.0,0.0,0.0,0.0,0.0,0.0,0.0,0.0,0.0,0.0,0.0,0.0,0.0,0.0,0.0,0.0,0.0,0.0,0.0,0.0,0.0,0.0,0.0,0.0,0.0,0.0,0.0,0.0,0.0,0.0,0.0,0.0,0.0,0.0,0.0,0.0,0.0,0.0,0.0,0.0,0.0,0.0,0.0,0.0,0.0,0.0,0.0,0.0,0.0,0.0,0.0,0.0,0.0,0.0,0.0,0.0,0.0,0.0,0.0,0.0,0.0,0.0,0.0,0.0,0.0,0.0,0.0,0.0,0.0,0.0,0.0,0.0,0.0,0.0,0.0,0.0,0.0,0.0,0.0,0.0,0.0,0.0,0.0,0.0,0.0,0.0,0.0,0.0,0.0,0.0,0.0,0.0,0.0,0.0,0.0,0.0,0.0,0.0,0.0,0.0,0.0,0.0,0.0,0.0,0.0,0.0,0.0,0.0,0.0,0.0,0.0,0.0,0.0,0.0,0.0,0.0,0.0,0.0,0.0,0.0,0.0,0.0,0.0,0.0,0.0,0.0,0.0,0.0,0.0,0.0,0.0,0.0,0.0,0.0,0.0,0.0,0.0,0.0,0.0,0.0,0.0,0.0,0.0,0.0,0.0,0.0,0.0,0.0,0.0,0.0,0.0,0.0,0.0,0.0,0.0,0.0,0.0,0.0,0.0,0.0,0.0,0.0,0.0,0.0,0.0,0.0,0.0,0.0,0.0,0.0,0.0,0.0,0.0,0.0,0.0,0.0,0.0,0.0,0.0,0.0,0.0,0.0,0.0,0.0,0.0,0.0,0.0,0.0,0.0,0.0,0.0,0.0,0.0,0.0,0.0,0.0,0.0,0.0,0.0,0.0,0.0,0.0,0.0,0.0,0.0,0.0,0.0,0.0,0.0,0.0,0.0,0.0,0.0,0.0,0.0,0.0,0.0,0.0,0.0,0.0,0.0,0.0,0.0,0.0,0.0,0.0,0.0,0.0,0.0,0.0,0.0,0.0,0.0,0.0,0.0,0.0,0.0,0.0,0.0,0.0,0.0,0.0,0.0,0.0,0.0,0.0,0.0,0.0,0.0,0.0,0.0,0.0,0.0,0.0,0.0,0.0,0.0,0.0,0.0,0.0,0.0,0.0,0.0,0.0,0.0,0.0,0.0,0.0,0.0,0.0,0.0,0.0,0.0,0.0,0.0,0.0,0.0,0.0,0.0,0.0,0.0,0.0,0.0,0.0,0.0,0.0,0.0,0.0,0.0,0.0,0.0,0.0,0.0,0.0,0.0,0.0,0.0,0.0,0.0,0.0,0.0,0.0,0.0,0.0,0.0,0.0,0.0,0.0,0.0,0.0,0.0,0.0,0.0,0.0,0.0,0.0,0.0,0.0,0.0,0.0,0.0,0.0,0.0,0.0,0.0,0.0,0.0,0.0,0.0,0.0,0.0,0.0,0.0,0.0,0.0,0.0,0.0,0.0,0.0,0.0,0.0,0.0,0.0,0.0,0.0,0.0,0.0,0.0,0.0,0.0,0.0,0.0,0.0,0.0,0.0,0.0,0.0,0.0,0.0,0.0,0.0,0.0,0.0,0.0,0.0,0.0,0.0,0.0,0.0,0.0,0.0,0.0,0.0,0.0,0.0,0.0,0.0,0.0,0.0,0.0,0.0,0.0,0.0,0.0,0.0,0.0,0.0,0.0,0.0,0.0,0.0,0.0,0.0,0.0,0.0,0.0,0.0,0.0,0.0,0.0,0.0,0.0,0.0,0.0,0.0,0.0,0.0,0.0,0.0,0.0,0.0,0.0,0.0,0.0,0.0,0.0,0.0,0.0,0.0,0.0,0.0,0.0,0.0,0.0,0.0,0.0,0.0,0.0,0.0,0.0,0.0,0.0,0.0,0.0,0.0,0.0,0.0,0.0,0.0,0.0,0.0,0.0,0.0,0.0,0.0,0.0,0.0,0.0,0.0,0.0,0.0,0.0,0.0,0.0,0.0,0.0,0.0,0.0,0.0,0.0,0.0,0.0,0.0,0.0,0.0,0.0,0.0,0.0,0.0,0.0,0.0,0.0,0.0,0.0,0.0,0.0,0.0,0.0,0.0,0.0,0.0,0.0,0.0,0.0,0.0,0.0,0.0,0.0,0.0,0.0,0.0,0.0,0.0,0.0,0.0,0.0,0.0,0.0,0.0,0.0,0.0,0.0,0.0,0.0,0.0,0.0,0.0,0.0,0.0,0.0,0.0,0.0,0.0,0.0,0.0,0.0,0.0,0.0,0.0,0.0,0.0,0.0,0.0,0.0,0.0,0.0,0.0,0.0,0.0,0.0,0.0,0.0,0.0,0.0,0.0,0.0,0.0,0.0,0.0,0.0,0.0,0.0,0.0,0.0,0.0,0.0,0.0,0.0,0.0,0.0,0.0,0.0,0.0,0.0,0.0,0.0,0.0,0.0,0.0,0.0,0.0,0.0,0.0,0.0,0.0,0.0,0.0,0.0,0.0,0.0,0.0,0.0,0.0,0.0,0.0,0.0,0.0,0.0,0.0,0.0,0.0,0.0,0.0,0.0,0.0,0.0,0.0,0.0,0.0,0.0,0.0,0.0,0.0,-5.3683,0.0,0.0,0.0,-5.1634,0.0,0.0,0.0,0.0,0.0,0.0,0.0,0.0,0.0,0.0,0.0,0.0,0.0,0.0,0.0,0.0,0.0,0.0,0.0,0.0,0.0,0.0,0.0,0.0,0.0,0.0,0.0,0.0,0.0,0.0,0.0,0.0,0.0,0.0,0.0,0.0,0.0,0.0,0.0,0.0,0.0,0.0,0.0,0.0,0.0,0.0,0.0,0.0,0.0,0.0,0.0,0.0,0.0,0.0,0.0,0.0,0.0,0.0,0.0,0.0,0.0,0.0,0.0,0.0,0.0,0.0,0.0,0.0,0.0,0.0,0.0,0.0,0.0,0.0,0.0,0.0,0.0,0.0,0.0,0.0,0.0,0.0,0.0,0.0,0.0,0.0,0.0,0.0,0.0,0.0,0.0,0.0,0.0,0.0,0.0,0.0,0.0,0.0,0.0,0.0,0.0,0.0,0.0,0.0,0.0,0.0,0.0,0.0,0.0,0.0,-5.364,-5.3552,-5.3011,-5.239,-5.1744,0.0,0.0,0.0,0.0,0.0,0.0,0.0,0.0,0.0,0.0,0.0,0.0,0.0,0.0,0.0,0.0,0.0,0.0,0.0,0.0,0.0,0.0,0.0,0.0,0.0,0.0,0.0,0.0,0.0,0.0,0.0,0.0,0.0,0.0,0.0,0.0,0.0,0.0,0.0,0.0,0.0,0.0,0.0,0.0,0.0,0.0,0.0,0.0,0.0,0.0,0.0,0.0,0.0,0.0,0.0,0.0,0.0,0.0,0.0,0.0,0.0,0.0,0.0,0.0,0.0,0.0,0.0,0.0,0.0,0.0,0.0,0.0,0.0,0.0,0.0,0.0,0.0,0.0,0.0,0.0,0.0,0.0,0.0,0.0,0.0,0.0,0.0,0.0,0.0,0.0,0.0,0.0,0.0,0.0,0.0,0.0,0.0,0.0,0.0,0.0,0.0,0.0,0.0,0.0,0.0,0.0,0.0,0.0,0.0,0.0,0.0,0.0,-5.3386,-5.2778,-5.2211,0.0,0.0,0.0,0.0,0.0,0.0,0.0,0.0,0.0,0.0,0.0,0.0,0.0,0.0,0.0,0.0,0.0,0.0,0.0,0.0,0.0,0.0,0.0,0.0,0.0,0.0,0.0,0.0,0.0,0.0,0.0,0.0,0.0,0.0,0.0,0.0,0.0,0.0,0.0,0.0,0.0,0.0,0.0,0.0,0.0,0.0,0.0,0.0,0.0,0.0,0.0,0.0,0.0,0.0,0.0,0.0,0.0,0.0,0.0,0.0,0.0,0.0,0.0,0.0,0.0,0.0,0.0,0.0,0.0,0.0,0.0,0.0,0.0,0.0,0.0,0.0,0.0,0.0,0.0,0.0,0.0,0.0,0.0,0.0,0.0,0.0,0.0,0.0,0.0,0.0,0.0,0.0,0.0,0.0,0.0,0.0,0.0,0.0,0.0,0.0,0.0,0.0,0.0,0.0,0.0,0.0,0.0,0.0,0.0,0.0,-5.3957,-5.493,-5.4452,0.0,-5.3705,0.0,0.0,0.0,0.0,0.0,0.0,0.0,0.0,0.0,0.0,0.0,0.0,0.0,0.0,0.0,0.0,0.0,0.0,0.0,0.0,0.0,0.0,0.0,0.0,0.0,0.0,0.0,0.0,0.0,0.0,0.0,0.0,0.0,0.0,0.0,0.0,0.0,0.0,0.0,0.0,0.0,0.0,0.0,0.0,0.0,0.0,0.0,0.0,0.0,0.0,0.0,0.0,0.0,0.0,0.0,0.0,0.0,0.0,0.0,0.0,0.0,0.0,0.0,0.0,0.0,0.0,0.0,0.0,0.0,0.0,0.0,0.0,0.0,0.0,0.0,0.0,0.0,0.0,0.0,0.0,0.0,0.0,0.0,0.0,0.0,0.0,0.0,0.0,0.0,0.0,0.0,0.0,0.0,0.0,0.0,0.0,0.0,0.0,0.0,0.0,0.0,0.0,0.0,0.0,0.0,0.0,0.0,0.0,0.0,0.0,-5.4335,-5.507,-5.4636,-5.391,0.0,0.0,0.0,0.0,0.0,0.0,0.0,0.0,0.0,0.0,0.0,0.0,0.0,0.0,0.0,0.0,0.0,0.0,0.0,0.0,0.0,0.0,0.0,0.0,0.0,0.0,0.0,0.0,0.0,0.0,0.0,0.0,0.0,0.0,0.0,0.0,0.0,0.0,0.0,0.0,0.0,0.0,0.0,0.0,0.0,0.0,0.0,0.0,0.0,0.0,0.0,0.0,0.0,0.0,0.0,0.0,0.0,0.0,0.0,0.0,0.0,0.0,0.0,0.0,0.0,0.0,0.0,0.0,0.0,0.0,0.0,0.0,0.0,0.0,0.0,0.0,0.0,0.0,0.0,0.0,0.0,0.0,0.0,0.0,0.0,0.0,0.0,0.0,0.0,0.0,0.0,0.0,0.0,0.0,0.0,0.0,0.0,0.0,0.0,0.0,0.0,0.0,0.0,0.0,0.0,0.0,0.0,0.0,0.0,0.0,-5.4473,-5.4572,-5.4961,-5.4267,-5.3406,-5.2564,0.0,0.0,0.0,0.0,0.0,0.0,0.0,0.0,0.0,0.0,0.0,0.0,0.0,0.0,0.0,0.0,0.0,0.0,0.0,0.0,0.0,0.0,0.0,0.0,0.0,0.0,0.0,0.0,0.0,0.0,0.0,0.0,0.0,0.0,0.0,0.0,0.0,0.0,0.0,0.0,0.0,0.0,0.0,0.0,0.0,0.0,0.0,0.0,0.0,0.0,0.0,0.0,0.0,0.0,0.0,0.0,0.0,0.0,0.0,0.0,0.0,0.0,0.0,0.0,0.0,0.0,0.0,0.0,0.0,0.0,0.0,0.0,0.0,0.0,0.0,0.0,0.0,0.0,0.0,0.0,0.0,0.0,0.0,0.0,0.0,0.0,0.0,0.0,0.0,0.0,0.0,0.0,0.0,0.0,0.0,0.0,0.0,0.0,0.0,0.0,0.0,0.0,0.0,0.0,0.0,0.0,0.0,0.0,-5.7594,-5.5411,-5.4376,-5.4861,-5.3267,-5.2655,0.0,0.0,0.0,0.0,0.0,0.0,0.0,0.0,0.0,0.0,0.0,0.0,0.0,0.0,0.0,0.0,0.0,0.0,0.0,0.0,0.0,0.0,0.0,0.0,0.0,0.0,0.0,0.0,0.0,0.0,0.0,0.0,0.0,0.0,0.0,0.0,0.0,0.0,0.0,0.0,0.0,0.0,0.0,0.0,0.0,0.0,0.0,0.0,0.0,0.0,0.0,0.0,0.0,0.0,0.0,0.0,0.0,0.0,0.0,0.0,0.0,0.0,0.0,0.0,0.0,0.0,0.0,0.0,0.0,0.0,0.0,0.0,0.0,0.0,0.0,0.0,0.0,0.0,0.0,0.0,0.0,0.0,0.0,0.0,0.0,0.0,0.0,0.0,0.0,0.0,0.0,0.0,0.0,0.0,0.0,0.0,0.0,0.0,0.0,0.0,0.0,0.0,0.0,0.0,0.0,0.0,0.0,0.0,0.0,-5.5193,-5.4637,-5.4342,-5.4487,-5.3628,-5.3011,0.0,0.0,0.0,0.0,0.0,0.0,0.0,0.0,0.0,0.0,0.0,0.0,0.0,0.0,0.0,0.0,0.0,0.0,0.0,0.0,0.0,0.0,0.0,0.0,0.0,0.0,0.0,0.0,0.0,0.0,0.0,0.0,0.0,0.0,0.0,0.0,0.0,0.0,0.0,0.0,0.0,0.0,0.0,0.0,0.0,0.0,0.0,0.0,0.0,0.0,0.0,0.0,0.0,0.0,0.0,0.0,0.0,0.0,0.0,0.0,0.0,0.0,0.0,0.0,0.0,0.0,0.0,0.0,0.0,0.0,0.0,0.0,0.0,0.0,0.0,0.0,0.0,0.0,0.0,0.0,0.0,0.0,0.0,0.0,0.0,0.0,0.0,0.0,0.0,0.0,0.0,0.0,0.0,0.0,0.0,0.0,0.0,0.0,0.0,0.0,0.0,0.0,0.0,0.0,0.0,0.0,0.0,0.0,0.0,-5.4345,0.0,-5.5214,-5.4518,-5.3806,-5.3006,0.0,0.0,0.0,0.0,0.0,0.0,0.0,0.0,0.0,0.0,0.0,0.0,0.0,0.0,0.0,0.0,0.0,0.0,0.0,0.0,0.0,0.0,0.0,0.0,0.0,0.0,0.0,0.0,0.0,0.0,0.0,0.0,0.0,0.0,0.0,0.0,0.0,0.0,0.0,0.0,0.0,0.0,0.0,0.0,0.0,0.0,0.0,0.0,0.0,0.0,0.0,0.0,0.0,0.0,0.0,0.0,0.0,0.0,0.0,0.0,0.0,0.0,0.0,0.0,0.0,0.0,0.0,0.0,0.0,0.0,0.0,0.0,0.0,0.0,0.0,0.0,0.0,0.0,0.0,0.0,0.0,0.0,0.0,0.0,0.0,0.0,0.0,0.0,0.0,0.0,0.0,0.0,0.0,0.0,0.0,0.0,0.0,0.0,0.0,0.0,0.0,0.0,0.0,0.0,0.0,0.0,0.0,0.0,-5.4772,-5.5653,-5.6915,-5.6672,-5.5056,-5.3654,-5.242,0.0,0.0,0.0,0.0,0.0,0.0,0.0,0.0,0.0,0.0,0.0,0.0,0.0,0.0,0.0,0.0,0.0,0.0,0.0,0.0,0.0,0.0,0.0,0.0,0.0,0.0,0.0,0.0,0.0,0.0,0.0,0.0,0.0,0.0,0.0,0.0,0.0,0.0,0.0,0.0,0.0,0.0,0.0,0.0,0.0,0.0,0.0,0.0,0.0,0.0,0.0,0.0,0.0,0.0,0.0,0.0,0.0,0.0,0.0,0.0,0.0,0.0,0.0,0.0,0.0,0.0,0.0,0.0,0.0,0.0,0.0,0.0,0.0,0.0,0.0,0.0,0.0,0.0,0.0,0.0,0.0,0.0,0.0,0.0,0.0,0.0,0.0,0.0,0.0,0.0,0.0,0.0,0.0,0.0,0.0,0.0,0.0,0.0,0.0,0.0,0.0,0.0,0.0,0.0,0.0,0.0,0.0,0.0,0.0,-5.4345,-5.4891,-5.5129,-5.493,-5.3163,-5.2256,0.0,0.0,0.0,0.0,0.0,0.0,0.0,0.0,0.0,0.0,0.0,0.0,0.0,0.0,0.0,0.0,0.0,0.0,0.0,0.0,0.0,0.0,0.0,0.0,0.0,0.0,0.0,0.0,0.0,0.0,0.0,0.0,0.0,0.0,0.0,0.0,0.0,0.0,0.0,0.0,0.0,0.0,0.0,0.0,0.0,0.0,0.0,0.0,0.0,0.0,0.0,0.0,0.0,0.0,0.0,0.0,0.0,0.0,0.0,0.0,0.0,0.0,0.0,0.0,0.0,0.0,0.0,0.0,0.0,0.0,0.0,0.0,0.0,0.0,0.0,0.0,0.0,0.0,0.0,0.0,0.0,0.0,0.0,0.0,0.0,0.0,0.0,0.0,0.0,0.0,0.0,0.0,0.0,0.0,0.0,0.0,0.0,0.0,0.0,0.0,0.0,0.0,0.0,0.0,0.0,0.0,0.0,0.0,0.0,-5.4426,-5.5074,-5.5439,-5.5457,-5.3774,-5.2634,-5.2222,0.0,0.0,0.0,0.0,0.0,0.0,0.0,0.0,0.0,0.0,0.0,0.0,0.0,0.0,0.0,0.0,0.0,0.0,0.0,0.0,0.0,0.0,0.0,0.0,0.0,0.0,0.0,0.0,0.0,0.0,0.0,0.0,0.0,0.0,0.0,0.0,0.0,0.0,0.0,0.0,0.0,0.0,0.0,0.0,0.0,0.0,0.0,0.0,0.0,0.0,0.0,0.0,0.0,0.0,0.0,0.0,0.0,0.0,0.0,0.0,0.0,0.0,0.0,0.0,0.0,0.0,0.0,0.0,0.0,0.0,0.0,0.0,0.0,0.0,0.0,0.0,0.0,0.0,0.0,0.0,0.0,0.0,0.0,0.0,0.0,0.0,0.0,0.0,0.0,0.0,0.0,0.0,0.0,0.0,0.0,0.0,0.0,0.0,0.0,0.0,0.0,0.0,0.0,0.0,0.0,0.0,0.0,0.0,-5.5581,-5.704,-5.7269,-5.6183,-5.5181,-5.3529,0.0,0.0,0.0,0.0,0.0,0.0,0.0,0.0,0.0,0.0,0.0,0.0,0.0,0.0,0.0,0.0,0.0,0.0,0.0,0.0,0.0,0.0,0.0,0.0,0.0,0.0,0.0,0.0,0.0,0.0,0.0,0.0,0.0,0.0,0.0,0.0,0.0,0.0,0.0,0.0,0.0,0.0,0.0,0.0,0.0,0.0,0.0,0.0,0.0,0.0,0.0,0.0,0.0,0.0,0.0,0.0,0.0,0.0,0.0,0.0,0.0,0.0,0.0,0.0,0.0,0.0,0.0,0.0,0.0,0.0,0.0,0.0,0.0,0.0,0.0,0.0,0.0,0.0,0.0,0.0,0.0,0.0,0.0,0.0,0.0,0.0,0.0,0.0,0.0,0.0,0.0,0.0,0.0,0.0,0.0,0.0,0.0,0.0,0.0,0.0,0.0,0.0,0.0,0.0,0.0,0.0,0.0,0.0,0.0,-5.6693,-5.6941,-5.676,-5.6259,-5.4714,-5.3216,0.0,0.0,0.0,0.0,0.0,0.0,0.0,0.0,0.0,0.0,0.0,0.0,0.0,0.0,0.0,0.0,0.0,0.0,0.0,0.0,0.0,0.0,0.0,0.0,0.0,0.0,0.0,0.0,0.0,0.0,0.0,0.0,0.0,0.0,0.0,0.0,0.0,0.0,0.0,0.0,0.0,0.0,0.0,0.0,0.0,0.0,0.0,0.0,0.0,0.0,0.0,0.0,0.0,0.0,0.0,0.0,0.0,0.0,0.0,0.0,0.0,0.0,0.0,0.0,0.0,0.0,0.0,0.0,0.0,0.0,0.0,0.0,0.0,0.0,0.0,0.0,0.0,0.0,0.0,0.0,0.0,0.0,0.0,0.0,0.0,0.0,0.0,0.0,0.0,0.0,0.0,0.0,0.0,0.0,0.0,0.0,0.0,0.0,0.0,0.0,0.0,0.0,0.0,0.0,0.0,0.0,0.0,0.0,-5.5328,-5.6757,-5.6773,-5.6528,-5.5965,-5.5045,-5.3683,0.0,0.0,0.0,0.0,0.0,0.0,0.0,0.0,0.0,0.0,0.0,0.0,0.0,0.0,0.0,0.0,0.0,0.0,0.0,0.0,0.0,0.0,0.0,0.0,0.0,0.0,0.0,0.0,0.0,0.0,0.0,0.0,0.0,0.0,0.0,0.0,0.0,0.0,0.0,0.0,0.0,0.0,0.0,0.0,0.0,0.0,0.0,0.0,0.0,0.0,0.0,0.0,0.0,0.0,0.0,0.0,0.0,0.0,0.0,0.0,0.0,0.0,0.0,0.0,0.0,0.0,0.0,0.0,0.0,0.0,0.0,0.0,0.0,0.0,0.0,0.0,0.0,0.0,0.0,0.0,0.0,0.0,0.0,0.0,0.0,0.0,0.0,0.0,0.0,0.0,0.0,0.0,0.0,0.0,0.0,0.0,0.0,0.0,0.0,0.0,0.0,0.0,0.0,0.0,0.0,0.0,0.0,0.0,-5.5189,-5.6524,-5.6764,-5.6393,-5.5608,-5.5701,-5.4345,0.0,0.0,0.0,0.0,0.0,0.0,0.0,0.0,0.0,0.0,0.0,0.0,0.0,0.0,0.0,0.0,0.0,0.0,0.0,0.0,0.0,0.0,0.0,0.0,0.0,0.0,0.0,0.0,0.0,0.0,0.0,0.0,0.0,0.0,0.0,0.0,0.0,0.0,0.0,0.0,0.0,0.0,0.0,0.0,0.0,0.0,0.0,0.0,0.0,0.0,0.0,0.0,0.0,0.0,0.0,0.0,0.0,0.0,0.0,0.0,0.0,0.0,0.0,0.0,0.0,0.0,0.0,0.0,0.0,0.0,0.0,0.0,0.0,0.0,0.0,0.0,0.0,0.0,0.0,0.0,0.0,0.0,0.0,0.0,0.0,0.0,0.0,0.0,0.0,0.0,0.0,0.0,0.0,0.0,0.0,0.0,0.0,0.0,0.0,0.0,0.0,0.0,0.0,0.0,0.0,0.0,0.0,0.0,-5.5994,-5.8176,-5.7131,-5.6286,-5.581,-5.5213,-5.3554,0.0,0.0,0.0,0.0,0.0,0.0,0.0,0.0,0.0,0.0,0.0,0.0,0.0,0.0,0.0,0.0,0.0,0.0,0.0,0.0,0.0,0.0,0.0,0.0,0.0,0.0,0.0,0.0,0.0,0.0,0.0,0.0,0.0,0.0,0.0,0.0,0.0,0.0,0.0,0.0,0.0,0.0,0.0,0.0,0.0,0.0,0.0,0.0,-6.0887,0.0,0.0,0.0,0.0,0.0,0.0,0.0,0.0,0.0,0.0,0.0,0.0,0.0,0.0,0.0,0.0,0.0,0.0,0.0,0.0,0.0,0.0,0.0,0.0,0.0,0.0,0.0,0.0,0.0,0.0,0.0,0.0,0.0,0.0,0.0,0.0,0.0,0.0,0.0,0.0,0.0,0.0,0.0,0.0,0.0,0.0,0.0,0.0,0.0,0.0,0.0,0.0,0.0,0.0,0.0,0.0,0.0,0.0,0.0,-5.6383,-5.8192,-5.7221,-5.6252,-5.5524,-5.5104,-5.3681,0.0,0.0,0.0,0.0,0.0,0.0,0.0,0.0,0.0,0.0,0.0,0.0,0.0,0.0,0.0,0.0,0.0,0.0,0.0,0.0,0.0,0.0,0.0,0.0,0.0,0.0,0.0,0.0,0.0,0.0,0.0,0.0,0.0,0.0,0.0,0.0,0.0,0.0,0.0,0.0,0.0,0.0,0.0,0.0,0.0,0.0,0.0,0.0,0.0,0.0,0.0,0.0,0.0,0.0,0.0,0.0,0.0,0.0,0.0,0.0,0.0,0.0,0.0,0.0,0.0,0.0,0.0,0.0,0.0,0.0,0.0,0.0,0.0,0.0,0.0,0.0,0.0,0.0,0.0,0.0,0.0,0.0,0.0,0.0,0.0,0.0,0.0,0.0,0.0,0.0,0.0,0.0,0.0,0.0,0.0,0.0,0.0,0.0,0.0,0.0,0.0,0.0,0.0,0.0,0.0,0.0,0.0,-5.5444,-5.6665,-5.814,-5.7505,-5.6443,-5.5203,-5.5173,-5.3963,-5.1347,0.0,0.0,0.0,0.0,0.0,0.0,0.0,0.0,0.0,0.0,0.0,0.0,0.0,0.0,0.0,0.0,0.0,0.0,0.0,0.0,0.0,0.0,0.0,0.0,0.0,0.0,0.0,0.0,0.0,0.0,0.0,0.0,0.0,0.0,0.0,0.0,0.0,0.0,-5.7876,-5.9523,0.0,0.0,0.0,0.0,0.0,0.0,0.0,0.0,-6.0005,0.0,0.0,0.0,0.0,0.0,0.0,0.0,0.0,0.0,0.0,0.0,0.0,0.0,0.0,0.0,0.0,0.0,0.0,0.0,0.0,0.0,0.0,0.0,0.0,0.0,0.0,0.0,0.0,0.0,0.0,0.0,0.0,0.0,0.0,0.0,0.0,0.0,0.0,0.0,0.0,0.0,0.0,0.0,0.0,0.0,0.0,0.0,0.0,0.0,0.0,0.0,0.0,0.0,0.0,0.0,0.0,-5.6033,-5.5783,-5.7098,-6.0008,-5.8711,-5.7307,-5.5771,-5.4952,-5.3281,-5.0744,0.0,0.0,0.0,0.0,0.0,0.0,0.0,0.0,0.0,0.0,0.0,0.0,0.0,0.0,0.0,0.0,0.0,0.0,0.0,0.0,0.0,0.0,0.0,0.0,0.0,0.0,0.0,0.0,0.0,0.0,0.0,0.0,0.0,0.0,0.0,0.0,0.0,0.0,0.0,-5.9887,-6.074,0.0,0.0,0.0,0.0,0.0,0.0,0.0,0.0,-5.9441,0.0,0.0,0.0,0.0,0.0,0.0,0.0,0.0,0.0,0.0,0.0,0.0,0.0,0.0,0.0,0.0,0.0,0.0,0.0,0.0,0.0,0.0,0.0,0.0,0.0,0.0,0.0,0.0,0.0,0.0,0.0,0.0,0.0,0.0,0.0,0.0,0.0,0.0,0.0,0.0,0.0,0.0,0.0,0.0,0.0,0.0,0.0,0.0,0.0,0.0,0.0,0.0,0.0,0.0,0.0,-5.5395,-5.672,-5.8146,-5.9731,-5.887,-5.7578,-5.5934,-5.4915,-5.3031,0.0,0.0,0.0,0.0,0.0,0.0,0.0,0.0,0.0,0.0,0.0,0.0,0.0,0.0,0.0,0.0,0.0,0.0,0.0,0.0,0.0,0.0,0.0,0.0,0.0,0.0,0.0,0.0,0.0,0.0,0.0,0.0,0.0,0.0,0.0,0.0,0.0,0.0,0.0,0.0,-5.9767,-6.0352,-5.9972,0.0,0.0,0.0,0.0,0.0,0.0,-5.9031,-5.8367,0.0,0.0,0.0,0.0,0.0,0.0,0.0,0.0,0.0,0.0,0.0,0.0,0.0,0.0,0.0,0.0,0.0,0.0,0.0,0.0,0.0,0.0,0.0,0.0,0.0,0.0,0.0,0.0,0.0,0.0,0.0,0.0,0.0,0.0,0.0,0.0,0.0,0.0,0.0,0.0,0.0,0.0,0.0,0.0,0.0,0.0,0.0,0.0,0.0,0.0,0.0,0.0,0.0,0.0,0.0,-5.4581,-5.7305,-5.8916,-5.9311,-5.8941,-5.7857,-5.6047,-5.5114,-5.3197,0.0,0.0,0.0,0.0,0.0,0.0,0.0,0.0,0.0,0.0,0.0,0.0,0.0,0.0,0.0,0.0,0.0,0.0,0.0,0.0,0.0,0.0,0.0,0.0,0.0,0.0,0.0,0.0,0.0,0.0,0.0,0.0,0.0,0.0,0.0,0.0,0.0,0.0,0.0,0.0,0.0,-5.9757,-5.9348,-5.9969,0.0,0.0,0.0,0.0,-5.9885,-5.8814,0.0,0.0,0.0,0.0,0.0,0.0,0.0,0.0,0.0,0.0,0.0,0.0,0.0,0.0,0.0,0.0,0.0,0.0,0.0,0.0,0.0,0.0,0.0,0.0,0.0,0.0,0.0,0.0,0.0,0.0,0.0,0.0,0.0,0.0,0.0,0.0,0.0,0.0,0.0,0.0,0.0,0.0,0.0,0.0,0.0,0.0,0.0,0.0,0.0,0.0,0.0,0.0,0.0,0.0,0.0,0.0,-5.4467,-5.6412,-5.8304,-6.0043,-5.9632,-5.8483,-5.6666,-5.5841,-5.3815,0.0,0.0,0.0,0.0,0.0,0.0,0.0,0.0,0.0,0.0,0.0,0.0,0.0,0.0,0.0,0.0,0.0,0.0,0.0,0.0,0.0,0.0,0.0,0.0,0.0,0.0,0.0,0.0,0.0,0.0,0.0,0.0,0.0,0.0,0.0,0.0,0.0,0.0,0.0,0.0,0.0,-5.8889,-5.8058,-5.9127,-5.9626,0.0,0.0,-5.9887,-5.9738,-5.9966,0.0,0.0,0.0,0.0,0.0,0.0,0.0,0.0,0.0,0.0,0.0,0.0,0.0,0.0,0.0,0.0,0.0,0.0,0.0,0.0,0.0,0.0,0.0,0.0,0.0,0.0,0.0,0.0,0.0,0.0,0.0,0.0,0.0,0.0,0.0,0.0,0.0,0.0,0.0,0.0,0.0,0.0,0.0,0.0,0.0,0.0,0.0,0.0,0.0,0.0,0.0,0.0,0.0,0.0,0.0,-5.214,-5.3926,-5.6438,-5.8308,-5.9372,-5.9156,-5.8282,-5.6598,-5.5155,-5.3217,0.0,0.0,0.0,0.0,0.0,0.0,0.0,0.0,0.0,0.0,0.0,0.0,0.0,0.0,0.0,0.0,0.0,0.0,0.0,0.0,0.0,0.0,0.0,0.0,0.0,0.0,0.0,0.0,0.0,0.0,0.0,0.0,0.0,0.0,0.0,0.0,0.0,0.0,0.0,0.0,0.0,0.0,-5.7425,-5.8502,0.0,0.0,0.0,-5.8682,-5.8682,0.0,0.0,0.0,0.0,0.0,0.0,0.0,0.0,0.0,0.0,0.0,0.0,0.0,0.0,0.0,0.0,0.0,0.0,0.0,0.0,0.0,0.0,0.0,0.0,0.0,0.0,0.0,0.0,0.0,0.0,0.0,0.0,0.0,0.0,0.0,0.0,0.0,0.0,0.0,0.0,0.0,0.0,0.0,0.0,0.0,0.0,0.0,0.0,0.0,0.0,0.0,0.0,0.0,0.0,0.0,0.0,0.0,-5.2867,-5.6008,-5.7826,-5.8306,-5.8312,-5.7689,-5.6416,-5.447,0.0,0.0,0.0,0.0,0.0,0.0,0.0,0.0,0.0,0.0,0.0,0.0,0.0,0.0,0.0,0.0,0.0,0.0,0.0,0.0,0.0,0.0,0.0,0.0,0.0,0.0,0.0,-4.2775,0.0,0.0,0.0,0.0,0.0,0.0,0.0,0.0,0.0,0.0,0.0,0.0,0.0,0.0,-5.6542,-5.6574,-5.7651,-5.8222,0.0,0.0,-5.7665,-5.7578,-5.7414,-5.6822,0.0,0.0,0.0,0.0,0.0,0.0,0.0,0.0,0.0,0.0,0.0,0.0,0.0,0.0,0.0,0.0,0.0,0.0,0.0,0.0,0.0,0.0,0.0,0.0,0.0,0.0,0.0,0.0,-4.9386,0.0,0.0,0.0,0.0,0.0,0.0,0.0,0.0,0.0,0.0,0.0,0.0,0.0,0.0,0.0,0.0,0.0,0.0,0.0,0.0,0.0,0.0,0.0,0.0,0.0,-5.0801,-5.1472,-5.4423,-5.6453,-5.7323,-5.7261,-5.6833,-5.6211,-5.4458,-5.2311,0.0,0.0,0.0,0.0,0.0,0.0,0.0,0.0,0.0,0.0,0.0,0.0,0.0,0.0,0.0,0.0,0.0,0.0,0.0,0.0,0.0,0.0,0.0,0.0,0.0,0.0,0.0,0.0,0.0,0.0,0.0,0.0,0.0,0.0,0.0,0.0,0.0,0.0,0.0,0.0,0.0,-5.4129,-5.4942,-5.634,-5.6976,0.0,-5.7304,-5.7757,-5.6447,-5.7972,-5.8105,-5.418,0.0,0.0,0.0,0.0,0.0,0.0,0.0,0.0,0.0,0.0,0.0,0.0,0.0,0.0,0.0,0.0,0.0,0.0,0.0,0.0,0.0,0.0,0.0,0.0,0.0,-4.9286,-4.9552,0.0,-4.9277,0.0,0.0,0.0,0.0,0.0,0.0,0.0,0.0,0.0,0.0,0.0,0.0,0.0,0.0,0.0,0.0,0.0,0.0,0.0,0.0,0.0,0.0,0.0,0.0,-4.9621,-5.0684,-5.3236,-5.5083,-5.6191,-5.616,-5.5998,-5.568,-5.4124,-5.2104,0.0,0.0,0.0,0.0,0.0,0.0,0.0,0.0,0.0,0.0,0.0,0.0,0.0,0.0,0.0,0.0,0.0,0.0,0.0,0.0,0.0,0.0,0.0,0.0,0.0,0.0,0.0,0.0,-4.1212,-4.1959,-4.2686,0.0,0.0,0.0,0.0,0.0,0.0,0.0,0.0,0.0,0.0,-5.3436,-5.4064,-5.5197,0.0,0.0,-5.5784,-5.5735,-5.5185,-5.5099,-5.4484,-5.2385,-5.2063,0.0,0.0,0.0,0.0,0.0,0.0,0.0,0.0,0.0,0.0,0.0,0.0,0.0,0.0,0.0,0.0,0.0,0.0,0.0,0.0,0.0,0.0,0.0,0.0,0.0,0.0,0.0,0.0,0.0,0.0,0.0,0.0,0.0,0.0,0.0,0.0,0.0,0.0,0.0,0.0,0.0,0.0,0.0,0.0,0.0,0.0,0.0,0.0,0.0,0.0,0.0,0.0,-4.8362,-4.9527,-5.1681,-5.3319,-5.4522,-5.4522,-5.45,-5.4399,-5.3076,-5.13,0.0,0.0,0.0,0.0,0.0,0.0,0.0,0.0,0.0,0.0,0.0,0.0,0.0,0.0,0.0,0.0,0.0,0.0,0.0,0.0,0.0,0.0,0.0,0.0,0.0,0.0,0.0,0.0,-4.0571,-4.1414,-4.2602,0.0,0.0,0.0,0.0,0.0,0.0,0.0,0.0,0.0,0.0,-5.2456,-5.3143,-5.4085,-5.4705,-5.453,-5.4181,-5.3882,-5.3707,-5.3292,-5.2506,-5.1362,0.0,0.0,0.0,0.0,0.0,0.0,0.0,0.0,0.0,0.0,0.0,0.0,0.0,0.0,0.0,0.0,0.0,0.0,0.0,0.0,0.0,0.0,0.0,0.0,0.0,0.0,0.0,-4.8092,0.0,0.0,-4.8092,0.0,0.0,0.0,0.0,0.0,0.0,0.0,0.0,0.0,0.0,0.0,0.0,0.0,0.0,0.0,0.0,0.0,0.0,0.0,0.0,0.0,0.0,-4.6982,-4.7668,-4.972,-5.1139,-5.203,-5.203,-5.2178,-5.2434,-5.1119,-4.9747,-4.8511,0.0,0.0,0.0,0.0,0.0,0.0,0.0,0.0,0.0,0.0,0.0,0.0,0.0,0.0,0.0,0.0,0.0,0.0,0.0,0.0,0.0,0.0,0.0,0.0,0.0,0.0,-3.9752,-3.9419,-3.9744,0.0,0.0,0.0,0.0,0.0,0.0,0.0,0.0,0.0,-4.7935,-4.9707,-5.1053,-5.1941,-5.2859,-5.3295,-5.2755,-5.2632,-5.246,-5.2017,-5.3123,-5.3418,0.0,0.0,0.0,0.0,0.0,0.0,0.0,0.0,0.0,0.0,0.0,0.0,0.0,0.0,0.0,0.0,0.0,0.0,0.0,0.0,0.0,0.0,0.0,0.0,0.0,0.0,0.0,-4.8877,-4.8494,0.0,0.0,0.0,0.0,0.0,0.0,0.0,0.0,0.0,0.0,0.0,-4.4819,-4.4773,0.0,0.0,0.0,0.0,0.0,0.0,0.0,0.0,0.0,0.0,0.0,0.0,-4.5759,-4.6917,-4.7991,-4.9116,-5.031,-5.0565,-5.0885,-5.1217,-5.0769,-4.931,-4.6767,0.0,0.0,0.0,0.0,0.0,0.0,0.0,0.0,0.0,0.0,0.0,0.0,0.0,0.0,0.0,0.0,0.0,0.0,0.0,0.0,0.0,0.0,0.0,0.0,0.0,-3.9628,0.0,0.0,0.0,0.0,0.0,0.0,0.0,0.0,0.0,0.0,-4.4201,-4.5096,-4.6681,-4.8143,-4.9457,-5.0359,-5.1552,-5.2347,0.0,0.0,0.0,0.0,0.0,0.0,0.0,0.0,0.0,0.0,0.0,0.0,0.0,0.0,-5.5406,-5.3896,-5.3535,-5.3714,-5.4646,0.0,0.0,0.0,0.0,0.0,0.0,0.0,0.0,0.0,0.0,0.0,0.0,0.0,0.0,-4.7839,-4.7905,-4.7974,0.0,0.0,0.0,0.0,0.0,0.0,0.0,0.0,-4.4866,-4.4761,-4.4705,-4.4852,-4.4728,-4.4433,-4.4071,-4.3793,0.0,0.0,0.0,0.0,0.0,0.0,0.0,0.0,-4.4808,-4.598,-4.6811,-4.7744,-4.882,-4.9101,-4.9393,-4.9841,-4.9625,-4.8299,-4.585,-4.3565,-4.1878,0.0,0.0,0.0,0.0,0.0,0.0,0.0,0.0,0.0,0.0,0.0,0.0,0.0,0.0,0.0,0.0,0.0,0.0,0.0,0.0,0.0,0.0,0.0,-3.9207,0.0,0.0,0.0,0.0,0.0,0.0,0.0,0.0,0.0,-4.2949,-4.3772,-4.4679,-4.5922,-4.7186,-4.8254,-4.8999,0.0,0.0,0.0,0.0,0.0,0.0,0.0,-5.0845,-5.101,-5.0775,-5.0925,-5.1864,-5.3245,-5.4175,-5.4181,0.0,0.0,-5.4277,-5.3878,-5.4082,-5.5322,-5.5776,-5.6325,-5.7466,-5.8226,-5.8676,0.0,0.0,0.0,0.0,-4.6815,0.0,0.0,0.0,-4.5725,-4.5971,0.0,-4.705,0.0,0.0,0.0,0.0,-4.5402,-4.5295,0.0,0.0,-4.4886,-4.4985,-4.5006,-4.5007,-4.4765,-4.4274,-4.468,-4.4369,-4.3442,-4.2852,0.0,0.0,0.0,0.0,0.0,0.0,-4.4206,-4.4869,-4.6153,-4.7066,-4.7592,-4.7592,-4.7752,-4.823,-4.7657,-4.6908,-4.5852,-4.4501,-4.318,-4.1762,-4.0384,0.0,0.0,0.0,0.0,0.0,0.0,0.0,0.0,0.0,0.0,0.0,0.0,0.0,0.0,0.0,0.0,0.0,0.0,0.0,0.0,-3.8702,0.0,0.0,0.0,0.0,0.0,0.0,0.0,0.0,0.0,-4.1423,-4.2829,-4.3801,-4.4808,-4.5744,0.0,0.0,0.0,0.0,-4.9818,-4.9766,-5.0856,-5.1709,-5.1733,-5.253,-5.2998,-5.26,0.0,0.0,-5.3381,-5.2988,-5.2858,-5.3191,-5.329,-5.3696,-5.5115,-5.5071,-5.5208,-5.6136,-5.6046,-5.6238,-5.7486,-5.8295,-5.8841,-4.6795,0.0,0.0,0.0,0.0,-4.7389,-4.7454,-4.7246,-4.7246,-4.6712,-4.5962,-4.6183,0.0,0.0,0.0,0.0,0.0,0.0,-4.4324,-4.4374,-4.4765,-4.4924,-4.4998,-4.5055,-4.4796,-4.44,-4.4482,-4.4441,-4.4096,-4.3269,-4.2911,-4.3097,0.0,0.0,0.0,0.0,-4.4491,-4.5244,-4.5765,-4.6212,-4.6649,-4.6993,-4.7373,-4.7773,-4.7276,-4.6768,-4.6094,-4.4773,-4.3376,-4.2004,-4.0705,0.0,0.0,0.0,0.0,0.0,0.0,0.0,0.0,0.0,0.0,0.0,0.0,0.0,0.0,0.0,0.0,0.0,0.0,0.0,-3.8304,-3.8885,-3.9226,0.0,0.0,0.0,0.0,0.0,0.0,0.0,0.0,0.0,-4.2392,-4.326,-4.4289,0.0,0.0,-4.6677,-4.7038,-4.7937,-4.862,-4.8565,-4.9506,0.0,-5.0625,-5.1171,-5.1744,-5.2317,-5.3413,-5.4065,-5.363,-5.3959,-5.4124,-5.3471,-5.3306,-5.3442,-5.3418,-5.4104,-5.4819,-5.5601,-5.6171,-5.6662,-5.7313,-5.8228,-5.8876,-4.616,-4.6008,-4.6186,-4.6313,-4.6398,-4.6757,-4.6735,-4.6476,-4.6322,-4.5954,-4.546,-4.5669,-4.5015,-4.3961,-4.3723,0.0,0.0,0.0,-4.406,-4.3973,-4.4588,-4.4862,-4.4793,-4.4887,-4.4813,-4.4399,-4.439,-4.4253,-4.4156,-4.3779,-4.3555,-4.3546,0.0,-4.3502,-4.3673,-4.4072,-4.4577,-4.5274,-4.5702,-4.6078,-4.6347,-4.6449,-4.659,-4.6811,-4.6378,-4.6104,-4.5959,-4.4649,-4.3515,-4.2689,-4.1117,-3.9881,0.0,0.0,0.0,0.0,0.0,0.0,0.0,0.0,0.0,0.0,0.0,-3.8037,-3.8171,0.0,0.0,0.0,-3.8132,-3.8316,-3.8501,-3.9012,0.0,0.0,0.0,0.0,0.0,0.0,0.0,-4.0878,-4.1503,-4.2122,-4.2619,-4.3386,-4.4239,-4.5267,-4.5577,-4.589,-4.6484,0.0,-4.7661,-4.7856,-4.8842,-4.9654,-4.9941,-5.0317,-5.0994,-5.1882,-5.2685,-5.321,-5.3382,-5.3492,-5.3514,-5.3171,-5.2991,-5.2811,-5.2659,-5.3195,-5.3948,-5.4719,-5.5386,-5.5974,-5.6485,-5.74,-5.8153,-4.5575,-4.4462,-4.5574,-4.5736,-4.5394,-4.5472,-4.5043,-4.4374,-4.3998,-4.4279,-4.4944,-4.5224,-4.4818,-4.3856,-4.3473,0.0,-4.33,-4.387,-4.3872,-4.3618,-4.4499,-4.472,-4.435,-4.4805,-4.4746,-4.4252,-4.4336,-4.4121,-4.3711,-4.4123,-4.409,-4.3694,-4.2802,-4.2648,-4.3131,-4.3905,-4.4512,-4.4968,-4.5832,-4.6266,-4.6266,-4.5861,-4.5698,-4.5698,-4.5169,-4.5109,-4.5504,-4.4225,-4.353,-4.3421,-4.1498,-4.0176,-3.9734,0.0,0.0,0.0,0.0,0.0,0.0,0.0,0.0,0.0,0.0,0.0,0.0,0.0,0.0,-3.7823,-3.8236,0.0,-3.904,-3.9049,0.0,0.0,0.0,-4.0111,-4.0973,-4.0753,-4.0844,-4.1636,0.0,0.0,-4.3081,-4.3799,-4.4503,-4.4905,-4.5036,-4.5316,-4.6142,-4.6594,-4.7024,-4.7448,-4.8516,-4.9359,-4.9344,-4.9934,-5.0593,-5.1419,-5.151,-5.1866,-5.2478,-5.2149,-5.1853,-5.2449,-5.2249,-5.21,-5.2459,-5.2535,-5.274,-5.3521,-5.4047,-5.4645,-5.5312,-5.612,-5.6848,-4.5615,-4.4457,-4.5048,-4.5006,-4.4722,-4.5021,-4.4985,-4.4886,-4.5068,-4.4765,-4.3958,-4.3797,-4.2988,-4.1852,-4.1998,-4.2092,-4.2171,-4.2829,-4.3329,-4.3612,-4.4224,-4.4194,-4.3804,-4.4291,-4.4149,-4.3491,-4.3701,-4.3808,-4.3711,-4.3793,-4.3817,-4.3719,-4.3487,-4.3577,-4.4019,-4.43,-4.4563,-4.4967,-4.5515,-4.5942,-4.6266,-4.5881,-4.5698,-4.5698,-4.4947,-4.4543,-4.4683,-4.3733,-4.3066,-4.2677,-4.1549,-4.0585,-3.9702,-3.9111,0.0,0.0,0.0,0.0,0.0,0.0,0.0,0.0,0.0,-3.7859,-3.8292,0.0,-3.8337,0.0,-3.9401,-3.9763,-3.9562,-3.9832,0.0,0.0,-4.0512,-4.0619,-4.1464,-4.1504,-4.1582,-4.1759,-4.217,-4.2602,-4.3033,-4.3575,-4.4017,-4.4478,-4.5129,-4.5716,-4.6246,-4.6345,-4.6444,-4.6649,-4.7259,-4.775,-4.817,-4.9107,-5.0001,-5.0599,-5.091,-5.1077,-5.0943,-5.1289,-5.1422,-5.135,-5.1423,-5.1585,-5.1639,-5.1947,-5.2154,-5.2459,-5.3219,-5.3972,-5.4197,-5.4868,-5.5558,-4.5764,-4.4419,-4.4852,-4.4878,-4.472,-4.4764,-4.4824,-4.4964,-4.4882,-4.4395,-4.3667,-4.2848,-4.2042,-4.1397,-4.1574,-4.1811,-4.1959,-4.2604,-4.3,-4.3019,-4.3695,-4.3641,-4.3093,-4.3564,-4.3652,-4.3337,-4.3394,-4.3643,-4.4004,-4.4023,-4.4018,-4.3942,-4.3768,-4.3901,-4.436,-4.4594,-4.476,-4.4964,-4.5209,-4.5535,-4.5698,-4.5291,-4.5127,-4.5107,-4.4279,-4.3877,-4.41,-4.3042,-4.2465,-4.2439,-4.1446,-4.0519,-3.979,-3.9083,-3.8485,0.0,0.0,0.0,0.0,0.0,0.0,0.0,0.0,0.0,0.0,0.0,-3.8779,-3.9612,-4.0127,-4.0464,-4.0623,-4.0887,-4.1207,-4.162,-4.1523,-4.1641,-4.2305,-4.2363,-4.2441,-4.2617,-4.2851,-4.3086,-4.332,-4.3585,-4.3929,-4.433,-4.48,-4.5372,-4.5942,-4.6185,-4.6266,-4.6347,-4.6509,-4.6754,-4.7025,-4.7906,-4.8627,-4.9124,-4.948,-4.9789,-4.9985,-5.0285,-5.0591,-5.0523,-5.0711,-5.0944,-5.1122,-5.1331,-5.1485,-5.1793,-5.2383,-5.2992,-5.3219,-5.3897,-5.457,-4.5842,-4.4316,-4.4631,-4.4798,-4.4739,-4.4363,-4.4512,-4.5124,-4.4466,-4.3994,-4.3706,-4.2216,-4.1649,-4.1723,-4.1641,-4.1805,-4.2294,-4.2678,-4.2766,-4.2454,-4.3167,-4.31,-4.2411,-4.281,-4.3196,-4.3572,-4.3215,-4.3485,-4.4304,-4.4207,-4.4129,-4.4128,-4.3668,-4.3649,-4.3966,-4.4382,-4.4782,-4.4982,-4.5022,-4.5104,-4.5044,-4.4716,-4.4449,-4.4429,-4.3526,-4.3151,-4.3516,-4.2407,-4.1876,-4.2171,-4.1092,-4.0199,-3.9829,-3.868,-3.8035,0.0,-3.7232,0.0,0.0,0.0,0.0,0.0,0.0,0.0,0.0,-3.8711,-3.9304,-4.0509,-4.0665,-4.0996,-4.1737,-4.1894,-4.2051,-4.2461,-4.2519,-4.2676,-4.3086,-4.3164,-4.3301,-4.3652,-4.3691,-4.3691,-4.3691,-4.3691,-4.3856,-4.4205,-4.437,-4.4698,-4.5372,-4.5861,-4.6104,-4.6104,-4.6104,-4.6125,-4.6308,-4.6631,-4.702,-4.7454,-4.7873,-4.8322,-4.909,-4.9307,-4.9516,-4.9908,-5.0065,-5.0244,-5.0633,-5.0711,-5.0866,-5.1254,-5.1639,-5.2,-5.2459,-5.3143,-5.3596,-4.4946,-4.3369,-4.3433,-4.3433,-4.3413,-4.2921,-4.4038,-4.6175,-4.6363,-4.564,-4.4116,-4.2013,-4.131,-4.1574,-4.12,-4.1403,-4.215,-4.2637,-4.296,-4.3261,-4.3426,-4.3222,-4.2775,-4.2903,-4.3008,-4.3015,-4.2677,-4.2968,-4.3795,-4.3109,-4.2913,-4.3165,-4.2434,-4.2097,-4.2148,0.0,0.0,0.0,-4.5366,-4.5533,-4.5526,-4.5091,-4.4905,-4.4802,-4.3389,0.0,-4.26,-4.1817,-4.1211,-4.086,-4.0318,0.0,0.0,0.0,0.0,0.0,0.0,0.0,0.0,0.0,0.0,0.0,-3.8386,-3.8956,-3.9052,-3.9718,-4.0349,-4.0913,-4.132,-4.159,-4.1744,-4.2084,-4.248,-4.2891,-4.2949,-4.3125,-4.3516,-4.3574,-4.3633,-4.3691,-4.3691,-4.3691,-4.3691,-4.3691,-4.3691,-4.3876,-4.4123,-4.4452,-4.4616,-4.5046,-4.5209,-4.5209,-4.5291,-4.5372,-4.5779,-4.5962,-4.6125,-4.6532,-4.6915,-4.7276,-4.75,-4.8098,-4.8569,-4.9065,-4.9415,-4.9752,-5.0221,-5.0299,-5.04,-5.0789,-5.1021,-5.1254,-5.1947,-5.2436,-5.284,-4.4746,-4.3664,-4.3452,-4.3375,0.0,-4.3105,-4.4058,-4.5723,-4.5306,-4.4489,-4.3273,-4.1723,-4.1111,-4.1256,-4.2001,-4.2472,-4.2858,-4.3723,-4.4063,-4.3876,-4.3876,-4.3389,-4.2651,-4.2679,-4.2627,-4.2609,-4.2012,-4.2396,-4.349,-4.2584,-4.2449,-4.3172,-4.2002,-4.1543,-4.1851,-4.2205,-4.2876,-4.4039,-4.4039,-4.411,-4.4082,-4.4258,-4.4194,-4.371,-4.3089,0.0,0.0,0.0,0.0,0.0,0.0,0.0,0.0,-3.8379,0.0,-3.7664,-3.7439,-3.7132,-3.679,-3.7276,-3.7686,-3.7644,-3.9006,-3.986,-3.9842,-4.039,-4.1005,-4.1376,-4.1585,-4.1876,-4.2086,-4.225,-4.2592,-4.3031,-4.307,-4.3249,-4.3589,-4.3691,-4.3691,-4.3691,-4.3691,-4.3691,-4.3691,-4.3691,-4.3691,-4.3691,-4.3876,-4.4041,-4.4123,-4.4616,-4.4964,-4.4984,-4.4984,-4.5046,-4.5311,-4.5372,-4.5372,-4.5617,-4.5861,-4.6104,-4.6347,-4.673,-4.7192,-4.7773,-4.8172,-4.8468,-4.9122,-4.9359,-4.9673,-5.0065,-5.0377,-5.0711,-5.1331,-5.187,-5.2307,-4.4439,-4.3964,-4.3553,-4.3316,-4.3251,-4.3231,-4.3676,-4.4303,-4.3517,0.0,0.0,-4.1331,-4.0893,-4.0984,-4.2365,-4.3031,-4.3232,-4.4272,-4.4517,-4.4022,-4.3862,-4.3287,-4.2381,-4.2234,-4.2205,-4.2166,-4.1365,-4.1719,-4.3061,-4.2088,-4.2042,-4.2796,-4.1506,-4.1099,-4.1706,-4.184,-4.2082,-4.2406,-4.2452,-4.2545,-4.2545,-4.3204,-4.3204,-4.2545,-4.2645,-4.2188,-4.1022,-4.0589,-3.9991,-3.9337,-3.9239,-3.9001,-3.8504,-3.8202,-3.7837,-3.7453,-3.7285,-3.7037,-3.6456,-3.7025,-3.7625,-3.8168,-3.9477,-4.0345,-4.0613,-4.089,-4.1266,-4.1688,-4.1707,-4.1858,-4.2281,-4.2318,-4.2569,-4.3068,-4.3068,-4.3214,-4.3628,-4.3691,-4.3691,-4.3691,-4.3691,-4.3691,-4.3691,-4.3691,-4.3691,-4.3691,-4.3711,-4.3691,-4.3793,-4.4288,-4.4718,-4.4718,-4.4636,-4.4718,-4.4882,-4.4882,-4.4882,-4.5046,-4.5046,-4.5127,-4.5434,-4.5596,-4.5921,-4.6649,-4.679,-4.7111,-4.7752,-4.815,-4.8569,-4.8943,-4.9415,-4.9908,-5.0377,-5.0999,-5.1539,-4.34,-4.2656,-4.2162,-4.1789,-4.1489,-4.1489,-4.1508,-4.1648,-4.2631,-4.3063,-4.2772,-4.0766,-4.0268,-4.077,-4.0316,-4.0647,-4.1581,-4.1832,-4.2264,-4.3015,-4.2546,-4.2542,-4.2747,-4.2087,-4.1732,-4.1655,-4.1239,-4.1123,-4.1275,-4.1074,-4.1048,-4.1019,-4.0508,-4.0158,-3.9966,-4.0281,-4.0331,-4.0238,-4.1928,-4.2881,-4.2881,-4.3004,-4.3004,-4.2844,-4.1833,-4.1073,-4.0547,-4.0024,-3.9622,-3.9177,-3.9177,-3.8914,-3.8523,-3.8112,-3.7865,-3.7812,-3.7435,-3.717,-3.705,-3.7552,-3.8175,-3.8855,-3.9199,-3.9736,-4.0868,-4.1073,-4.1249,-4.1602,-4.1686,-4.1723,-4.1779,-4.2151,-4.2569,-4.2985,-4.3068,-4.3234,-4.3628,-4.3609,-4.3609,-4.3609,-4.3691,-4.3691,-4.3628,-4.3711,-4.3691,-4.3691,-4.3691,-4.3691,-4.3691,-4.3793,-4.3876,-4.3876,-4.3876,-4.4041,-4.437,-4.4452,-4.4616,-4.4964,-4.4964,-4.4882,-4.5046,-4.5025,-4.527,-4.5759,-4.5921,-4.6063,-4.6548,-4.6629,-4.6951,-4.7331,-4.7752,-4.823,-4.9022,-4.9573,-5.0199,-4.3124,-4.2686,-4.1975,-4.1462,-4.106,-4.0807,-4.0554,-4.0385,-4.0971,-4.1383,-4.145,-4.0269,-3.9836,-4.0192,-4.0753,-4.1249,-4.1782,-4.2316,-4.2671,-4.2812,-4.2448,-4.2051,-4.1851,-4.1505,-4.1242,-4.1197,-4.0529,-4.0589,-4.109,-4.0526,-4.0473,-4.0887,-4.0396,-3.9856,-3.9599,-3.972,-3.9634,-3.9356,-4.0726,-4.1401,-4.1269,-4.1641,-4.1659,-4.1269,-4.1002,-4.0572,-3.9724,-3.9526,-3.9062,-3.8471,-3.8453,-3.8376,-3.8153,-3.7937,-3.7854,-3.7854,-3.7669,-3.7416,-3.721,-3.7816,-3.8614,-3.9303,-3.9693,-4.0114,-4.1018,-4.1118,-4.121,-4.1378,-4.1378,-4.1378,-4.1378,-4.1546,-4.19,-4.2299,-4.2299,-4.255,-4.2882,-4.2985,-4.2965,-4.2965,-4.2985,-4.3068,-4.3297,-4.338,-4.3463,-4.3628,-4.3711,-4.3691,-4.3691,-4.3691,-4.3691,-4.3691,-4.3691,-4.3793,-4.3958,-4.4041,-4.4123,-4.4288,-4.4288,-4.4288,-4.4288,-4.4288,-4.4534,-4.4862,-4.5005,-4.5189,-4.5515,-4.584,-4.6063,-4.6225,-4.6629,-4.7111,-4.7651,-4.8309,-4.9258,-4.2823,-4.265,-4.1844,-4.1294,-4.0892,-4.0554,-4.0046,-3.9519,-3.9519,-3.9689,-3.9858,-3.9604,-3.9491,-3.9617,-4.103,-4.1668,-4.1904,-4.2557,-4.2821,-4.2521,-4.2065,-4.151,-4.0894,-4.089,-4.0804,-4.06,-4.0031,-4.0175,-4.0649,-3.9911,-3.9994,-4.0829,-4.0438,-3.9967,-3.9607,-3.9676,-3.9453,-3.8957,-3.9687,-3.998,-3.9678,-4.0475,-4.0493,-3.9798,-4.0218,-4.004,-3.8962,-3.8926,-3.8618,-3.8004,-3.7969,-3.794,-3.7945,-3.7895,-3.7895,-3.781,-3.7878,-3.7758,-3.7518,-3.8061,-3.8694,-3.9313,-3.9791,-4.0216,-4.0554,-4.0807,-4.0976,-4.106,-4.1145,-4.1145,-4.1145,-4.1145,-4.1294,-4.1612,-4.1695,-4.1965,-4.2318,-4.2402,-4.2402,-4.2402,-4.2402,-4.2569,-4.2985,-4.2985,-4.3068,-4.3463,-4.3628,-4.3711,-4.3691,-4.3691,-4.3691,-4.3691,-4.3691,-4.3691,-4.3691,-4.3691,-4.3691,-4.3691,-4.3691,-4.3774,-4.3793,-4.3691,-4.3876,-4.4205,-4.4288,-4.437,-4.4718,-4.4944,-4.5189,-4.525,-4.5495,-4.5982,-4.6548,-4.7192,-4.8324,-4.2254,-4.1751,-4.1415,-4.0892,-4.0469,-4.0385,-3.9894,-3.911,-3.9025,-3.8854,-3.858,-3.8854,-3.9062,-3.9027,-3.9545,-4.0173,-4.077,-4.0894,-4.1231,-4.1497,-4.0856,-4.0413,-4.0393,-4.0449,-4.0193,-3.9858,-4.0076,-3.9925,-3.939,-3.9461,-3.9773,-4.0142,-4.0378,-4.0327,-4.0053,-4.0292,-3.995,-3.8957,-3.9336,-3.9581,-3.9652,-4.0101,-4.0119,-3.9634,-3.9323,-3.889,-3.8443,-3.8357,-3.834,-3.8238,-3.8289,-3.8238,-3.8272,-3.8272,-3.8015,-3.7655,-3.7998,-3.8255,-3.822,-3.8255,-3.8357,-3.8409,-3.8939,-3.9195,-3.9281,-3.9961,-4.0639,-4.0976,-4.106,-4.106,-4.106,-4.106,-4.1229,-4.1528,-4.163,-4.1863,-4.2235,-4.2402,-4.2402,-4.2402,-4.2318,-4.2569,-4.2818,-4.2735,-4.2652,-4.3068,-4.338,-4.3546,-4.3628,-4.3609,-4.3711,-4.3691,-4.3691,-4.3691,-4.3691,-4.3691,-4.3691,-4.3691,-4.3691,-4.3691,-4.3691,-4.3691,-4.3774,-4.3876,-4.3793,-4.3876,-4.3876,-4.3856,-4.3939,-4.4205,-4.4534,-4.4862,-4.5576,-4.6144,-4.7065,-4.2132,-4.1695,-4.1313,-4.0639,-4.0046,-3.9961,-3.9451,-3.858,-3.8854,-3.8768,-3.8409,-3.8768,-3.8855,-3.8597,-3.8974,-3.9318,-3.9632,-3.9632,-3.972,-3.9931,-3.9686,-3.9509,-3.9577,-3.9539,-3.9682,-3.9896,-3.9861,-3.9722,-3.9576,-3.9526,-3.9681,-3.9984,-4.019,-4.0173,-4.0053,-4.019,-3.9916,-3.9265,-3.9425,-3.9288,-3.8873,-3.8994,-3.8994,-3.8821,-3.8649,-3.8512,-3.834,-3.8323,-3.8323,-3.8323,-3.8323,-3.8323,-3.8323,-3.8066,-3.7808,-3.7636,-3.7808,-3.7894,-3.7877,-3.8152,-3.8409,-3.8683,-3.8854,-3.911,-3.9366,-3.9791,-4.0131,-4.03,-4.0807,-4.0892,-4.0469,-4.0807,-4.106,-4.1042,-4.1126,-4.1378,-4.1565,-4.1649,-4.1649,-4.1649,-4.1649,-4.1816,-4.2216,-4.2402,-4.2485,-4.2652,-4.2902,-4.3048,-4.3297,-4.338,-4.3463,-4.3628,-4.3691,-4.3691,-4.3691,-4.3691,-4.3691,-4.3691,-4.3691,-4.3691,-4.3691,-4.3691,-4.3691,-4.3691,-4.3691,-4.3691,-4.3691,-4.3691,-4.3691,-4.3793,-4.3793,-4.4205,-4.4842,-4.5087,-4.5717,-4.2049,-4.1528,-4.11,-4.0457,-3.9698,-3.9698,-3.919,-3.8442,-3.8802,-3.8768,-3.8323,-3.8683,-3.8597,-3.8392,-3.8734,-3.9009,-3.9079,-3.9079,-3.9096,-3.9045,-3.9027,-3.8957,-3.8854,-3.8939,-3.9287,-3.9652,-3.9529,-3.9458,-3.9539,-3.9436,-3.9453,-3.971,-3.983,-3.9881,-3.9881,-3.9864,-3.9693,-3.9333,-3.9391,-3.9063,-3.8392,-3.8323,-3.8323,-3.8323,-3.8323,-3.8323,-3.8323,-3.8323,-3.8323,-3.8323,-3.8323,-3.8323,-3.8323,-3.798,-3.7722,-3.7636,-3.7447,-3.7447,-3.7619,-3.8066,-3.8409,-3.8768,-3.8768,-3.8939,-3.9263,-3.9433,-3.9433,-3.9348,-4.0216,-4.0385,-4.0113,-4.0367,-4.0554,-4.0469,-4.0723,-4.0892,-4.0892,-4.0976,-4.1145,-4.106,-4.1229,-4.1229,-4.1546,-4.1965,-4.2402,-4.2235,-4.2318,-4.2485,-4.2818,-4.2902,-4.2985,-4.3297,-4.3297,-4.3463,-4.3609,-4.3691,-4.3691,-4.3691,-4.3691,-4.3691,-4.3691,-4.3691,-4.3691,-4.3691,-4.3691,-4.3691,-4.3691,-4.3691,-4.3691,-4.3691,-4.3711,-4.3793,-4.4186,-4.4205,-4.4534,-4.19,-4.1089,-4.0657,-4.0261,-3.9808,-3.9808,-3.9223,-3.8351,-3.885,-3.8751,-3.8323,-3.8323,-3.8323,-3.8357,-3.8717,-3.9166,-3.9496,-3.9479,-3.9461,-3.9426,-3.9113,-3.8768,-3.8323,-3.8768,-3.8994,-3.9114,-3.9046,-3.889,-3.8546,-3.8785,-3.894,-3.9008,-3.9333,-3.9488,-3.9488,-3.9488,-3.9316,-3.9008,-3.8905,-3.8717,-3.8375,-3.8323,-3.8323,-3.8323,-3.8323,-3.8323,-3.8237,-3.8323,-3.8323,-3.8323,-3.8323,-3.8323,-3.8323,-3.8237,-3.798,-3.7636,-3.7205,-3.7188,-3.7619,-3.8066,-3.8323,-3.8306,-3.8409,-3.8323,-3.8494,-3.8854,-3.8854,-3.8409,-3.9281,-3.9858,-4.0216,-4.0046,-4.0046,-4.03,-4.0403,-4.0403,-4.0488,-4.0723,-4.106,-4.106,-4.0976,-4.106,-4.1145,-4.19,-4.2068,-4.1882,-4.2049,-4.2402,-4.2402,-4.2402,-4.2485,-4.2485,-4.2569,-4.2716,-4.3463,-4.3546,-4.3546,-4.3546,-4.3463,-4.3609,-4.3691,-4.3691,-4.3691,-4.3609,-4.3546,-4.3546,-4.3609,-4.3691,-4.3609,-4.3609,-4.3609,-4.3691,-4.3856,-4.3774,-4.4021,-4.19,-4.1108,-4.0639,-4.0058,-3.9336,-3.9353,-3.8873,-3.8113,-3.8758,-3.8968,-3.8734,-3.8768,-3.8768,-3.8786,-3.8563,-3.8632,-3.8787,-3.8787,-3.8787,-3.877,-3.8649,-3.8512,-3.8323,-3.8512,-3.8718,-3.8854,-3.8942,-3.901,-3.8991,-3.8734,-3.8666,-3.8905,-3.9042,-3.9111,-3.9111,-3.9111,-3.9042,-3.8905,-3.8683,-3.846,-3.834,-3.8323,-3.8323,-3.8323,-3.8323,-3.8152,-3.7894,-3.8152,-3.8152,-3.7894,-3.8152,-3.8323,-3.8237,-3.7808,-3.7291,-3.6876,-3.6946,-3.7105,-3.7367,-3.793,-3.8203,-3.8015,-3.8203,-3.8323,-3.8323,-3.8512,-3.8512,-3.8426,-3.858,-3.9093,-3.9774,-3.9774,-3.9791,-3.9858,-3.9961,-3.9961,-3.9961,-4.0113,-4.0198,-4.0198,-4.0469,-4.0639,-4.0807,-4.1229,-4.1481,-4.1378,-4.1481,-4.1714,-4.1882,-4.1965,-4.2049,-4.2318,-4.2402,-4.2485,-4.2735,-4.2882,-4.2882,-4.2965,-4.2965,-4.2965,-4.3048,-4.3214,-4.3214,-4.3048,-4.2965,-4.3048,-4.3048,-4.3048,-4.3048,-4.3297,-4.3297,-4.338,-4.3628,-4.3628,-4.3691,-4.1649,-4.1089,-4.0639,-3.9967,-3.9158,-3.9303,-3.8855,-3.8018,-3.8931,-3.9179,-3.9088,-3.9058,-3.9042,-3.8939,-3.8512,-3.8323,-3.8323,-3.8323,-3.8323,-3.8323,-3.8323,-3.8323,-3.8323,-3.8323,-3.846,-3.8683,-3.8717,-3.8871,-3.9025,-3.858,-3.8494,-3.8717,-3.8734,-3.8717,-3.8734,-3.8717,-3.8734,-3.8666,-3.846,-3.8323,-3.8323,-3.8323,-3.8323,-3.8323,-3.8323,-3.8152,-3.7808,-3.8152,-3.8152,-3.7894,-3.8152,-3.8237,-3.798,-3.7378,-3.6773,-3.6443,-3.6616,-3.6777,-3.6922,-3.7501,-3.7775,-3.7555,-3.7913,-3.8066,-3.8066,-3.8237,-3.8323,-3.8323,-3.8323,-3.8666,-3.9195,-3.9348,-3.9348,-3.9604,-3.9519,-3.9451,-3.9451,-3.9604,-3.9706,-3.9791,-3.9961,-4.0216,-4.0403,-4.0723,-4.0892,-4.106,-4.106,-4.121,-4.1462,-4.1546,-4.163,-4.19,-4.19,-4.19,-4.1984,-4.1984,-4.2318,-4.2485,-4.2652,-4.2569,-4.2588,-4.2735,-4.2735,-4.2485,-4.2402,-4.2402,-4.2402,-4.2402,-4.2569,-4.2838,-4.2902,-4.2965,-4.3214,-4.3463,-4.3546,-4.1108,-4.0932,-4.062,-3.9933,-3.9212,-3.9513,-3.9087,-3.8181,-3.9199,-3.9438,-3.9144,-3.9038,-3.9025,-3.8939,-3.8494,-3.8323,-3.8323,-3.8323,-3.8323,-3.8323,-3.8323,-3.8323,-3.8323,-3.8323,-3.834,-3.8375,-3.8357,-3.8357,-3.8409,-3.8357,-3.8357,-3.834,-3.8375,-3.8409,-3.8357,-3.8375,-3.8357,-3.8357,-3.834,-3.8323,-3.8323,-3.8323,-3.8323,-3.8323,-3.8323,-3.8237,-3.8237,-3.8323,-3.8237,-3.8237,-3.8237,-3.8066,-3.7722,-3.7205,-3.6773,-3.6443,-3.6372,-3.6356,-3.641,-3.6827,-3.7102,-3.7191,-3.743,-3.7722,-3.7808,-3.8066,-3.8323,-3.8323,-3.8323,-3.8494,-3.8854,-3.8683,-3.8768,-3.9433,-3.9281,-3.9025,-3.9025,-3.9366,-3.9689,-3.9604,-3.9604,-3.9876,-4.0216,-4.0385,-4.0554,-4.0892,-4.0976,-4.106,-4.1145,-4.1229,-4.1145,-4.1145,-4.1313,-4.1397,-4.1313,-4.1145,-4.1649,-4.2068,-4.2235,-4.2318,-4.2189,-4.2291,-4.231,-4.2143,-4.1984,-4.1984,-4.2021,-4.2021,-4.2208,-4.2375,-4.244,-4.2626,-4.2818,-4.317,-4.3336,-4.0805,-4.0262,-3.9777,-3.915,-3.8436,-3.8813,-3.8437,-3.766,-3.883,-3.9436,-3.9492,-3.9208,-3.9195,-3.9281,-3.8666,-3.8323,-3.8323,-3.8323,-3.8323,-3.8323,-3.8323,-3.8323,-3.834,-3.8323,-3.8323,-3.8323,-3.8323,-3.8323,-3.8323,-3.8323,-3.8323,-3.8323,-3.8323,-3.8323,-3.8323,-3.8323,-3.8323,-3.8323,-3.8323,-3.8323,-3.8323,-3.8323,-3.8323,-3.8323,-3.8323,-3.8323,-3.8323,-3.8323,-3.8152,-3.7894,-3.8152,-3.8066,-3.7636,-3.7205,-3.6946,-3.6789,-3.6443,-3.6329,-3.6408,-3.6728,-3.7003,-3.7127,-3.7399,-3.7791,-3.8066,-3.8254,-3.8323,-3.8323,-3.8323,-3.8512,-3.8768,-3.8597,-3.8597,-3.9195,-3.8768,-3.8494,-3.8597,-3.8683,-3.8751,-3.8751,-3.9025,-3.9281,-3.9451,-3.9706,-4.0131,-4.0554,-4.0639,-4.0723,-4.0976,-4.106,-4.1145,-4.1145,-4.106,-4.106,-4.106,-4.106,-4.1397,-4.1649,-4.1798,-4.1882,-4.1854,-4.2022,-4.2022,-4.1938,-4.176,-4.1723,-4.1658,-4.1742,-4.1844,-4.2078,-4.2256,-4.2434,-4.258,-4.2869,-4.3086,-4.0703,-4.0115,-3.963,-3.8969,-3.8257,-3.865,-3.8355,-3.7809,-3.8878,-3.9586,-3.971,-3.9645,-3.9536,-3.9519,-3.8939,-3.8494,-3.8323,-3.8323,-3.8323,-3.8323,-3.8323,-3.8392,-3.8512,-3.8546,-3.8546,-3.8512,-3.8392,-3.8323,-3.8323,-3.8323,-3.8323,-3.8323,-3.8323,-3.8323,-3.8323,-3.8323,-3.8323,-3.8323,-3.8323,-3.8323,-3.8323,-3.8323,-3.8323,-3.8323,-3.8323,-3.8323,-3.8323,-3.8323,-3.8152,-3.798,-3.8152,-3.8066,-3.7636,-3.7378,-3.7119,-3.6946,-3.6773,-3.6588,-3.6665,-3.683,-3.7036,-3.7127,-3.7416,-3.7722,-3.798,-3.8152,-3.8323,-3.8323,-3.8323,-3.8426,-3.8597,-3.8512,-3.8426,-3.8683,-3.8494,-3.8323,-3.8323,-3.8323,-3.8323,-3.8409,-3.8597,-3.8768,-3.9025,-3.9195,-3.9621,-4.0046,-4.0131,-4.03,-4.0723,-4.0807,-4.0892,-4.0976,-4.106,-4.106,-4.106,-4.106,-4.106,-4.1229,-4.1378,-4.1397,-4.1415,-4.173,-4.1878,-4.1952,-4.1848,-4.1682,-4.1682,-4.145,-4.1497,-4.1804,-4.214,-4.2236,-4.2359,-4.2706,-4.2989,-4.0832,-4.0409,-4.0042,-3.9276,-3.8626,-3.8894,-3.8631,-3.8264,-3.9339,-3.9868,-3.9951,-4.0144,-4.0046,-3.9706,-3.9195,-3.8768,-3.8409,-3.8409,-3.8323,-3.834,-3.8306,-3.8424,-3.8731,-3.8714,-3.875,-3.882,-3.8494,-3.834,-3.8323,-3.8323,-3.8323,-3.8323,-3.8323,-3.8323,-3.8323,-3.8323,-3.8323,-3.8323,-3.8323,-3.8323,-3.8323,-3.8323,-3.8323,-3.8323,-3.8323,-3.8323,-3.8323,-3.8323,-3.8323,-3.8237,-3.8237,-3.8152,-3.7722,-3.7619,-3.7378,-3.7119,-3.7032,-3.6929,-3.7016,-3.6999,-3.7016,-3.7155,-3.7414,-3.7619,-3.7808,-3.8152,-3.8323,-3.8323,-3.8323,-3.8323,-3.8323,-3.8323,-3.8323,-3.8323,-3.8323,-3.8323,-3.8323,-3.8323,-3.8323,-3.8323,-3.8323,-3.8426,-3.8854,-3.8939,-3.9195,-3.9536,-3.9689,-3.9876,-4.0216,-4.0385,-4.0639,-4.0723,-4.0892,-4.106,-4.106,-4.106,-4.106,-4.1145,-4.1229,-4.1163,-4.1236,-4.1549,-4.199,-4.2063,-4.1959,-4.1794,-4.1684,-4.1592,-4.1409,-4.1597,-4.1793,-4.1885,-4.2259,-4.2672,-4.2937,-4.0821,-3.9634,-3.9479,-3.8912,-3.8264,-3.8547,-3.8511,-3.8192,-3.9339,-3.9913,-3.9933,-4.0294,-4.0131,-3.9689,-3.9536,-3.9093,-3.858,-3.8683,-3.8597,-3.8289,-3.8285,-3.8433,-3.867,-3.8518,-3.8574,-3.8767,-3.8529,-3.8323,-3.8323,-3.8323,-3.8323,-3.8323,-3.8323,-3.8323,-3.8323,-3.8323,-3.8323,-3.8323,-3.8323,-3.8323,-3.8323,-3.8323,-3.8323,-3.8323,-3.8323,-3.8323,-3.8323,-3.8323,-3.8323,-3.8323,-3.8323,-3.8237,-3.8066,-3.7808,-3.7533,-3.7464,-3.7205,-3.7032,-3.7032,-3.7032,-3.7119,-3.7447,-3.7533,-3.7722,-3.8066,-3.8237,-3.8323,-3.8323,-3.8323,-3.8323,-3.8323,-3.8323,-3.8323,-3.8323,-3.8323,-3.8323,-3.8323,-3.8323,-3.8323,-3.8323,-3.8323,-3.8409,-3.8512,-3.8597,-3.8683,-3.9025,-3.9195,-3.9366,-3.9706,-3.9876,-4.0046,-4.0385,-4.0554,-4.0807,-4.0976,-4.106,-4.106,-4.106,-4.1181,-4.1218,-4.1347,-4.1604,-4.2118,-4.2454,-4.2289,-4.2142,-4.2106,-4.2032,-4.1812,-4.1555,-4.221,-4.2683,-4.2431,-4.2678,-4.2889,-4.0833,-3.9776,-3.9185,-3.87,-3.834,-3.8481,-3.8481,-3.8486,-3.9402,-3.9913,-4.0033,-4.0461,-4.0469,-4.0046,-3.9961,-3.9451,-3.8683,-3.8854,-3.8768,-3.8392,-3.8283,-3.8393,-3.8628,-3.851,-3.8622,-3.8784,-3.8512,-3.834,-3.8323,-3.8323,-3.8323,-3.8323,-3.8323,-3.8323,-3.8323,-3.8323,-3.8426,-3.8597,-3.858,-3.8683,-3.8837,-3.8922,-3.8922,-3.8837,-3.8768,-3.8494,-3.8323,-3.8323,-3.8323,-3.8323,-3.8323,-3.8323,-3.8237,-3.8066,-3.7894,-3.7894,-3.7636,-3.755,-3.755,-3.755,-3.7636,-3.7894,-3.7894,-3.8066,-3.8237,-3.8323,-3.8323,-3.8323,-3.8323,-3.8323,-3.8323,-3.8323,-3.8323,-3.8323,-3.8323,-3.8323,-3.8323,-3.8512,-3.8597,-3.8597,-3.8597,-3.8597,-3.8597,-3.8426,-3.8426,-3.858,-3.8666,-3.8939,-3.9281,-3.9366,-3.9536,-3.9876,-4.0167,-4.0354,-4.0542,-4.0729,-4.0978,-4.0978,-4.1434,-4.1415,-4.161,-4.1831,-4.2362,-4.2784,-4.2637,-4.2509,-4.2454,-4.2362,-4.2161,-4.2234,-4.2913,-4.3059,-4.2803,-4.2766,-4.296,-4.1028,-4.0372,-3.9203,-3.8713,-3.8579,-3.864,-3.856,-3.8707,-3.9502,-3.9913,-4.0015,-4.0694,-4.0705,-4.03,-4.0216,-3.9791,-3.8939,-3.8939,-3.8649,-3.8425,-3.8247,-3.841,-3.8624,-3.854,-3.8707,-3.8801,-3.8512,-3.8357,-3.8323,-3.8323,-3.8323,-3.8323,-3.8323,-3.8323,-3.8323,-3.8323,-3.8597,-3.8854,-3.8939,-3.911,-3.9433,-3.9519,-3.9536,-3.9451,-3.911,-3.8683,-3.8409,-3.8323,-3.8323,-3.8323,-3.8323,-3.8323,-3.834,-3.8237,-3.8237,-3.8237,-3.8152,-3.8152,-3.8237,-3.8152,-3.8237,-3.8237,-3.8237,-3.8323,-3.8426,-3.8409,-3.8323,-3.8409,-3.8323,-3.8323,-3.8357,-3.8392,-3.8494,-3.8494,-3.8426,-3.8409,-3.8512,-3.8735,-3.8957,-3.9009,-3.8923,-3.9009,-3.8958,-3.8683,-3.8409,-3.8615,-3.8632,-3.8597,-3.8854,-3.8939,-3.9195,-3.9536,-3.9674,-3.9813,-4.0019,-4.0207,-4.0629,-4.0912,-4.1705,-4.1919,-4.2061,-4.2298,-4.2824,-4.3133,-4.3004,-4.2876,-4.2747,-4.2619,-4.2491,-4.2546,-4.2986,-4.3023,-4.2968,-4.3114,-4.3295,-4.1487,-4.0419,-3.9844,-3.9208,-3.8695,-3.864,-3.864,-3.8731,-3.9502,-3.9932,-4.0115,-4.0795,-4.062,-3.9876,-4.0131,-3.9706,-3.8666,-3.8786,-3.8735,-3.8264,-3.8228,-3.841,-3.8611,-3.846,-3.8554,-3.8733,-3.8512,-3.834,-3.8323,-3.8323,-3.8323,-3.8323,-3.8323,-3.8323,-3.8323,-3.8323,-3.8512,-3.8939,-3.9025,-3.9281,-3.9689,-3.9774,-3.9774,-3.9689,-3.9281,-3.8768,-3.8409,-3.8323,-3.8323,-3.8323,-3.8323,-3.8323,-3.8323,-3.8323,-3.8323,-3.8323,-3.8323,-3.8323,-3.8323,-3.8323,-3.8323,-3.8323,-3.8409,-3.8426,-3.8768,-3.8512,-3.8512,-3.8683,-3.8512,-3.834,-3.8409,-3.8905,-3.8974,-3.8837,-3.8803,-3.8905,-3.9042,-3.8769,-3.8666,-3.8856,-3.8924,-3.9062,-3.9286,-3.8907,-3.8751,-3.8734,-3.8563,-3.8375,-3.8426,-3.8512,-3.8768,-3.911,-3.9406,-3.9511,-3.9856,-4.0134,-4.0627,-4.1014,-4.1686,-4.2114,-4.2257,-4.2469,-4.2796,-4.3156,-4.3408,-4.3243,-4.2934,-4.3114,-4.3059,-4.3059,-4.3023,-4.3151,-4.3279,-4.3463,-4.3481,-4.1303,-4.0447,-3.9684,-3.9043,-3.8676,-3.864,-3.867,-3.9006,-3.9557,-3.996,-4.0235,-4.0636,-4.0469,-4.0046,-4.0046,-3.9536,-3.8854,-3.8597,-3.8512,-3.8251,-3.8285,-3.8387,-3.8419,-3.8351,-3.844,-3.8803,-3.8512,-3.834,-3.8323,-3.8323,-3.8323,-3.8323,-3.8323,-3.8323,-3.8323,-3.8323,-3.8597,-3.8939,-3.9281,-3.9536,-3.9961,-4.0216,-4.0028,-3.9774,-3.9433,-3.9025,-3.8409,-3.8323,-3.8323,-3.8323,-3.8323,-3.8323,-3.8323,-3.8323,-3.8323,-3.8323,-3.8323,-3.8323,-3.8323,-3.8323,-3.8426,-3.8597,-3.8597,-3.8768,-3.8939,-3.8768,-3.8597,-3.8597,-3.8529,-3.8392,-3.8597,-3.8871,-3.9111,-3.9231,-3.9179,-3.9282,-3.9404,-3.8993,-3.8821,-3.9011,-3.9063,-3.9201,-3.927,-3.9009,-3.8871,-3.8768,-3.8512,-3.8323,-3.8323,-3.8409,-3.8409,-3.8752,-3.9046,-3.9323,-3.96,-4.0106,-4.0755,-4.1143,-4.1639,-4.1996,-4.2103,-4.2299,-4.262,-4.2925,-4.3284,-4.3248,-4.3013,-4.3248,-4.3463,-4.3353,-4.3316,-4.3444,-4.3481,-4.3481,-4.3481,-4.0887,-4.033,-3.9178,-3.8615,-3.8579,-3.864,-3.886,-3.9245,-3.9575,-3.996,-4.0372,-4.0337,-4.0277,-4.0216,-3.9791,-3.9366,-3.8854,-3.8512,-3.8289,-3.8289,-3.8306,-3.8408,-3.8442,-3.8425,-3.8477,-3.8837,-3.8512,-3.834,-3.8323,-3.8323,-3.8323,-3.8323,-3.8323,-3.8323,-3.8323,-3.8323,-3.8512,-3.9025,-3.9451,-3.9876,-4.03,-4.0639,-4.0385,-3.9689,-3.9451,-3.9093,-3.8494,-3.8323,-3.8323,-3.8323,-3.8323,-3.8323,-3.8323,-3.8323,-3.8323,-3.8323,-3.8323,-3.8323,-3.8323,-3.8323,-3.8426,-3.8854,-3.8854,-3.8939,-3.8939,-3.8854,-3.8683,-3.858,-3.8563,-3.8717,-3.8957,-3.9299,-3.9402,-3.9488,-3.9556,-3.9573,-3.9576,-3.9322,-3.9253,-3.9427,-3.9305,-3.9374,-3.9201,-3.9045,-3.8924,-3.8751,-3.8512,-3.834,-3.834,-3.8357,-3.8392,-3.8683,-3.9079,-3.9595,-3.9944,-4.0102,-4.075,-4.1034,-4.1513,-4.1691,-4.1886,-4.2138,-4.2371,-4.2783,-4.3016,-4.298,-4.3069,-4.3374,-4.3481,-4.3481,-4.3481,-4.3481,-4.3481,-4.3481,-4.3481,-4.0726,-3.993,-3.9314,-3.8951,-3.8579,-3.864,-3.878,-3.9208,-3.9336,-3.9777,-4.0437,-4.0047,-3.988,-3.9685,-3.9366,-3.8854,-3.846,-3.8306,-3.8323,-3.8323,-3.834,-3.8443,-3.8614,-3.8443,-3.8546,-3.8717,-3.8529,-3.8323,-3.8323,-3.8323,-3.8323,-3.8323,-3.8323,-3.8323,-3.8323,-3.8323,-3.8494,-3.8939,-3.9366,-3.9876,-4.0216,-4.0385,-4.0131,-3.9281,-3.9195,-3.8854,-3.8494,-3.8323,-3.8323,-3.8323,-3.8323,-3.8323,-3.8323,-3.8323,-3.8323,-3.8323,-3.8323,-3.8323,-3.8323,-3.8323,-3.8323,-3.8426,-3.8512,-3.8683,-3.8854,-3.87,-3.87,-3.8873,-3.9045,-3.9265,-3.9368,-3.9762,-4.0053,-4.0036,-3.995,-4.0036,-4.0121,-3.9868,-3.9458,-3.9614,-3.9475,-3.9372,-3.9251,-3.9096,-3.8889,-3.8768,-3.8631,-3.8477,-3.846,-3.8494,-3.8529,-3.882,-3.9162,-3.9744,-4.0365,-4.0382,-4.07,-4.0756,-4.1131,-4.1311,-4.1471,-4.1849,-4.2119,-4.2299,-4.2568,-4.2748,-4.2927,-4.3124,-4.3303,-4.3303,-4.3392,-4.3481,-4.3481,-4.341,-4.3481,-4.0005,-3.9252,-3.8995,-3.8743,-3.8579,-3.864,-3.8798,-3.9226,-3.9465,-3.9887,-4.0216,-3.9988,-3.964,-3.9236,-3.8644,-3.8219,-3.8151,-3.8272,-3.8306,-3.8323,-3.834,-3.8392,-3.8614,-3.8392,-3.8443,-3.8512,-3.8409,-3.8323,-3.8323,-3.8323,-3.8323,-3.8323,-3.8323,-3.8323,-3.8323,-3.8323,-3.8409,-3.8768,-3.911,-3.9451,-3.9706,-3.9876,-3.9621,-3.9195,-3.8957,-3.8768,-3.8409,-3.8323,-3.8323,-3.8323,-3.8323,-3.8323,-3.8323,-3.8323,-3.8323,-3.8323,-3.8323,-3.8323,-3.8323,-3.8323,-3.8494,-3.8922,-3.8854,-3.8939,-3.911,-3.9025,-3.8787,-3.8942,-3.9028,-3.9351,-3.971,-4.0104,-4.0258,-4.0344,-4.031,-4.0395,-4.0446,-4.0207,-4.0001,-3.9727,-3.9368,-3.9318,-3.937,-3.9094,-3.8837,-3.8734,-3.8717,-3.8683,-3.8631,-3.8683,-3.8768,-3.9145,-3.9505,-3.9861,-4.0356,-4.0441,-4.0493,-4.0583,-4.0674,-4.0856,-4.1054,-4.1308,-4.1308,-4.1398,-4.1759,-4.1939,-4.2029,-4.2029,-4.2497,-4.3034,-4.3034,-4.3034,-4.3303,-4.341,-4.3303,-3.9332,-3.864,-3.864,-3.864,-3.864,-3.864,-3.8798,-3.9226,-3.9447,-3.9887,-4.0372,-3.9814,-3.9294,-3.8905,-3.8264,-3.7741,-3.7724,-3.8083,-3.8272,-3.8203,-3.8289,-3.8323,-3.8323,-3.8323,-3.834,-3.8375,-3.834,-3.8323,-3.8323,-3.8323,-3.8323,-3.8323,-3.8323,-3.8323,-3.8323,-3.8323,-3.8323,-3.8409,-3.8768,-3.8957,-3.911,-3.9366,-3.9366,-3.8939,-3.8854,-3.8683,-3.8323,-3.8323,-3.8323,-3.8323,-3.8323,-3.8323,-3.8323,-3.8323,-3.8323,-3.8323,-3.8323,-3.8323,-3.8323,-3.8323,-3.858,-3.9007,-3.9025,-3.911,-3.9145,-3.8975,-3.8994,-3.9027,-3.9077,-3.9333,-3.9864,-4.0036,-4.0224,-4.0464,-4.0549,-4.0583,-4.0566,-4.0464,-4.0361,-4.0001,-3.9453,-3.9231,-3.9282,-3.9299,-3.9042,-3.894,-3.8922,-3.9059,-3.9008,-3.9025,-3.9162,-3.9539,-3.9881,-4.01,-4.03,-4.0294,-4.0328,-4.0328,-4.0402,-4.051,-4.051,-4.0583,-4.0601,-4.051,-4.0311,-4.0493,-4.0674,-4.1037,-4.1669,-4.2119,-4.2389,-4.2479,-4.2479,-4.2586,-4.2586,-3.9072,-3.856,-3.864,-3.864,-3.856,-3.856,-3.878,-3.9073,-3.889,-3.9447,-4.0244,-3.9295,-3.8872,-3.8711,-3.8128,-3.7619,-3.757,-3.7878,-3.8083,-3.7946,-3.8135,-3.8289,-3.8323,-3.8323,-3.8323,-3.8323,-3.8323,-3.8323,-3.8323,-3.8323,-3.8323,-3.8323,-3.8323,-3.8323,-3.8323,-3.8323,-3.8323,-3.8409,-3.8768,-3.8957,-3.8939,-3.9025,-3.8854,-3.8512,-3.8409,-3.8409,-3.8323,-3.8323,-3.8323,-3.8323,-3.8323,-3.8323,-3.8323,-3.8323,-3.8323,-3.8323,-3.8323,-3.8323,-3.8323,-3.8409,-3.8409,-3.8751,-3.8597,-3.8494,-3.8683,-3.8873,-3.8975,-3.9456,-3.9385,-3.9556,-3.9916,-4.0053,-4.0241,-4.0429,-4.0583,-4.0583,-4.0583,-4.0583,-4.0498,-4.0429,-3.9933,-3.9382,-3.916,-3.9282,-3.9282,-3.9196,-3.9162,-3.9316,-3.9436,-3.947,-3.9453,-3.9779,-3.9925,-4.0141,-4.0135,-4.0129,-4.0146,-4.0055,-4.0237,-4.0237,-4.0237,-4.0237,-3.9815,-3.9632,-3.9358,-3.9391,-3.9882,-4.0413,-4.0963,-4.12,-4.1471,-4.1471,-4.1471,-4.1561,-4.1669,-3.856,-3.8004,-3.8402,-3.8481,-3.8322,-3.8481,-3.8572,-3.8559,-3.8569,-3.8779,-3.8986,-3.8558,-3.817,-3.7965,-3.7328,-3.7159,-3.7261,-3.757,-3.7758,-3.7758,-3.7929,-3.8135,-3.8289,-3.8323,-3.8323,-3.8323,-3.8323,-3.8323,-3.8323,-3.8323,-3.8323,-3.8323,-3.8323,-3.8323,-3.8323,-3.8323,-3.8323,-3.8323,-3.8512,-3.858,-3.8597,-3.858,-3.8494,-3.8323,-3.8323,-3.8323,-3.8323,-3.8323,-3.8323,-3.8323,-3.8323,-3.8323,-3.8323,-3.8323,-3.8323,-3.8323,-3.8323,-3.8323,-3.8323,-3.8751,-3.8751,-3.8683,-3.87,-3.8787,-3.8666,-3.8631,-3.8888,-3.9419,-3.9453,-3.9642,-3.9984,-4.0224,-4.0395,-4.0532,-4.0583,-4.0583,-4.0583,-4.0583,-4.0549,-4.0498,-4.0412,-3.9861,-3.9379,-3.9345,-3.945,-3.9277,-3.9345,-3.9638,-3.9809,-4.0036,-3.9984,-3.995,-3.9988,-4.0021,-4.0021,-3.9964,-3.9964,-3.9964,-4.022,-4.022,-4.0146,-3.9889,-3.9466,-3.9231,-3.9069,-3.9162,-3.9389,-3.9657,-4.0014,-4.0237,-4.0459,-4.0549,-4.0566,-4.0459,-4.0566,-3.8163,-3.7605,-3.8322,-3.8402,-3.8163,-3.8481,-3.8402,-3.804,-3.8293,-3.8249,-3.8022,-3.7807,-3.7483,-3.7084,-3.683,-3.6765,-3.6919,-3.7124,-3.7279,-3.7467,-3.769,-3.7929,-3.8118,-3.822,-3.8323,-3.8323,-3.8323,-3.8323,-3.8323,-3.8323,-3.8323,-3.8323,-3.8323,-3.8323,-3.8323,-3.8323,-3.8323,-3.8323,-3.8512,-3.8512,-3.8409,-3.8494,-3.8409,-3.8323,-3.8323,-3.8323,-3.8323,-3.8323,-3.8323,-3.8323,-3.8323,-3.8323,-3.8323,-3.8323,-3.8323,-3.8323,-3.8409,-3.8426,-3.8494,-3.8751,-3.911,-3.8939,-3.8889,-3.8735,-3.8889,-3.8631,-3.87,-3.9419,-3.947,-3.9659,-3.9967,-4.0275,-4.0412,-4.0498,-4.0583,-4.0583,-4.0583,-4.0583,-4.0583,-4.0549,-4.0498,-4.0356,-3.9925,-3.9648,-3.9546,-3.9355,-3.9507,-3.9835,-4.0078,-4.0214,-4.0361,-4.0134,-3.9999,-3.9873,-3.969,-3.9599,-3.9599,-3.9707,-4.0038,-4.0038,-3.9781,-3.9524,-3.9099,-3.8912,-3.8784,-3.853,-3.8537,-3.8797,-3.8949,-3.925,-3.9474,-3.9657,-3.9657,-3.9582,-3.9491,-3.8322,-3.8004,-3.8402,-3.856,-3.8481,-3.856,-3.8322,-3.7924,-3.796,-3.7953,-3.7735,-3.748,-3.7079,-3.676,-3.6654,-3.6457,-3.6268,-3.6902,-3.6953,-3.7073,-3.7364,-3.769,-3.7895,-3.8101,-3.8306,-3.8289,-3.8306,-3.8323,-3.8323,-3.8323,-3.8323,-3.8323,-3.8323,-3.8323,-3.8323,-3.8323,-3.8323,-3.8323,-3.8597,-3.8597,-3.8512,-3.8597,-3.8683,-3.8323,-3.8323,-3.8323,-3.8323,-3.8323,-3.8323,-3.8323,-3.8323,-3.8323,-3.8323,-3.8323,-3.8323,-3.8323,-3.8597,-3.8512,-3.8512,-3.858,-3.8494,-3.8426,-3.846,-3.858,-3.8854,-3.8888,-3.9077,-3.9368,-3.9453,-3.9659,-3.9899,-4.0104,-4.0361,-4.0481,-4.0583,-4.0583,-4.0583,-4.0583,-4.0583,-4.0583,-4.0459,-4.0317,-4.0027,-3.9717,-3.9616,-3.9424,-3.9221,-3.9473,-3.9869,-4.0061,-4.0351,-4.0317,-3.997,-3.969,-3.9217,-3.9125,-3.905,-3.905,-3.9233,-3.9308,-3.9125,-3.89,-3.8846,-3.8732,-3.8553,-3.8127,-3.7906,-3.836,-3.8687,-3.8521,-3.8608,-3.8808,-3.8906,-3.8819,-3.8754,-3.8097,-3.7345,-3.7975,-3.8084,-3.7845,-3.7845,-3.7605,-3.7285,-3.7205,-3.7035,-3.6887,-3.6627,-3.6598,-3.6551,-3.6367,-3.6371,-3.6405,-3.6422,-3.6559,-3.6782,-3.7142,-3.7381,-3.7604,-3.7929,-3.822,-3.8101,-3.8186,-3.8323,-3.8323,-3.8323,-3.8323,-3.8323,-3.8323,-3.8323,-3.8323,-3.8323,-3.834,-3.834,-3.8512,-3.8409,-3.8409,-3.8409,-3.8512,-3.8323,-3.8323,-3.8323,-3.8323,-3.8323,-3.8323,-3.8323,-3.8323,-3.8323,-3.8323,-3.8323,-3.8323,-3.8323,-3.8494,-3.8494,-3.8512,-3.8768,-3.9007,-3.8683,-3.8529,-3.8512,-3.8871,-3.8734,-3.894,-3.9214,-3.9488,-3.9693,-3.9967,-4.0241,-4.0481,-4.0549,-4.0583,-4.0583,-4.0583,-4.0583,-4.0583,-4.0583,-4.0493,-4.0385,-4.0021,-3.964,-3.9573,-3.9432,-3.9242,-3.9217,-3.9491,-3.9765,-4.0038,-4.0055,-3.969,-3.9508,-3.9034,-3.8667,-3.8408,-3.8408,-3.85,-3.8591,-3.87,-3.8868,-3.8813,-3.8662,-3.851,-3.84,-3.8322,-3.8417,-3.8352,-3.8216,-3.8104,-3.8152,-3.8095,-3.8193,-3.8348,-3.7825,-3.7066,-3.7424,-3.7586,-3.7427,-3.7392,-3.7205,-3.6965,-3.6982,-3.6661,-3.6258,-3.6195,-3.6217,-3.6337,-3.6251,-3.62,-3.632,-3.6268,-3.6303,-3.6577,-3.6919,-3.709,-3.7364,-3.7741,-3.8169,-3.7929,-3.8118,-3.8323,-3.8323,-3.8323,-3.8323,-3.8323,-3.8323,-3.8323,-3.8323,-3.8323,-3.8375,-3.8477,-3.846,-3.8512,-3.8477,-3.8563,-3.8426,-3.8323,-3.8323,-3.8323,-3.8323,-3.8323,-3.8409,-3.8409,-3.8426,-3.8409,-3.8409,-3.8426,-3.8323,-3.8323,-3.8323,-3.8323,-3.8512,-3.889,-3.9197,-3.8717,-3.8838,-3.8768,-3.8803,-3.8751,-3.9145,-3.9556,-3.9676,-3.9779,-4.0138,-4.0412,-4.0532,-4.0583,-4.0583,-4.0583,-4.0583,-4.0583,-4.0583,-4.0583,-4.0493,-4.0493,-4.0129,-3.9673,-3.9109,-3.8968,-3.8818,-3.8759,-3.8958,-3.9217,-3.9582,-3.9508,-3.9233,-3.905,-3.885,-3.8408,-3.804,-3.804,-3.8132,-3.8224,-3.8304,-3.8578,-3.8662,-3.8524,-3.8496,-3.8672,-3.8624,-3.8417,-3.8116,-3.7782,-3.7922,-3.8066,-3.8257,-3.8432,-3.8354,-3.7718,-3.7349,-3.6952,-3.7016,-3.7288,-3.7347,-3.7365,-3.7205,-3.7205,-3.6965,-3.6581,-3.6258,-3.6097,-3.6131,-3.6033,-3.6148,-3.6085,-3.6131,-3.6148,-3.632,-3.6799,-3.6902,-3.7142,-3.7553,-3.8015,-3.7912,-3.8118,-3.8323,-3.8323,-3.8323,-3.8323,-3.8323,-3.8323,-3.8323,-3.8323,-3.8323,-3.8529,-3.8768,-3.8821,-3.8821,-3.8804,-3.8718,-3.8529,-3.8409,-3.8323,-3.8323,-3.8323,-3.8323,-3.8494,-3.8768,-3.8597,-3.8597,-3.8939,-3.8597,-3.8426,-3.8426,-3.8323,-3.834,-3.8375,-3.8786,-3.8821,-3.8701,-3.8957,-3.9162,-3.9077,-3.9179,-3.9453,-3.983,-3.9933,-4.0138,-4.0395,-4.0566,-4.0583,-4.0583,-4.0583,-4.0583,-4.0583,-4.0583,-4.0583,-4.0583,-4.0583,-4.0493,-4.022,-3.9765,-3.8759,-3.8391,-3.8316,-3.8316,-3.85,-3.8775,-3.9142,-3.905,-3.8883,-3.8873,-3.8689,-3.8056,-3.7763,-3.7763,-3.7855,-3.7947,-3.8091,-3.8364,-3.8305,-3.8274,-3.8576,-3.8942,-3.8624,-3.8243,-3.8131,-3.8068,-3.8131,-3.8259,-3.8433,-3.8608,-3.8719,-3.6623,-3.584,-3.5902,-3.6061,-3.6244,-3.6463,-3.6563,-3.6581,-3.6563,-3.6483,-3.6339,-3.6178,-3.5935,-3.5757,-3.5918,-3.5935,-3.5757,-3.6016,-3.6097,-3.6166,-3.6645,-3.6525,-3.6731,-3.7313,-3.7758,-3.7672,-3.7929,-3.8323,-3.8323,-3.8323,-3.8323,-3.8323,-3.8323,-3.8323,-3.8323,-3.8323,-3.8426,-3.8477,-3.8477,-3.8495,-3.8512,-3.8512,-3.8512,-3.8323,-3.8323,-3.8323,-3.8323,-3.8323,-3.8597,-3.8939,-3.8768,-3.8939,-3.9281,-3.8922,-3.8683,-3.8683,-3.8512,-3.8477,-3.8717,-3.9042,-3.9231,-3.9231,-3.9299,-3.947,-3.9333,-3.9368,-3.9659,-3.995,-4.007,-4.0275,-4.0498,-4.0566,-4.0583,-4.0583,-4.0583,-4.0583,-4.0583,-4.0583,-4.0583,-4.0583,-4.0583,-4.0402,-4.0055,-3.9673,-3.885,-3.8224,-3.8132,-3.804,-3.804,-3.8316,-3.8683,-3.8683,-3.8532,-3.8662,-3.8433,-3.8123,-3.7925,-3.802,-3.7954,-3.7763,-3.797,-3.8227,-3.8417,-3.8592,-3.891,-3.918,-3.8862,-3.8592,-3.8513,-3.8481,-3.8529,-3.8672,-3.8894,-3.9101,-3.9275,-3.5905,-3.5298,-3.5515,-3.5519,-3.5487,-3.5725,-3.604,-3.6224,-3.6161,-3.6161,-3.6241,-3.6178,-3.5935,-3.5855,-3.5918,-3.5999,-3.5676,-3.5935,-3.6097,-3.6148,-3.6457,-3.6388,-3.6577,-3.7124,-3.7501,-3.7518,-3.7895,-3.8323,-3.8323,-3.8323,-3.8323,-3.8323,-3.8323,-3.8323,-3.8323,-3.8323,-3.8426,-3.8494,-3.8494,-3.8426,-3.8494,-3.8443,-3.8323,-3.8323,-3.8323,-3.8323,-3.8323,-3.8512,-3.8768,-3.9025,-3.9195,-3.9281,-3.9348,-3.9195,-3.8854,-3.8597,-3.8684,-3.8768,-3.9248,-3.9299,-3.9539,-3.9864,-3.9847,-3.9779,-3.9744,-3.983,-4.0001,-4.0173,-4.019,-4.0327,-4.0532,-4.0583,-4.0601,-4.0601,-4.0583,-4.0583,-4.0601,-4.0618,-4.0583,-4.0583,-4.0583,-4.0328,-3.9964,-3.9399,-3.885,-3.8408,-3.8056,-3.7887,-3.7718,-3.7995,-3.8353,-3.8401,-3.8417,-3.8437,-3.8425,-3.8238,-3.8163,-3.8338,-3.8163,-3.7941,-3.8195,-3.8592,-3.8735,-3.8878,-3.9085,-3.9212,-3.9132,-3.8974,-3.8846,-3.8846,-3.8942,-3.9117,-3.9355,-3.9466,-3.9546,-3.5588,-3.5546,-3.5584,-3.5305,-3.5061,-3.5381,-3.5994,-3.6563,-3.6258,-3.6339,-3.6581,-3.6178,-3.6016,-3.5999,-3.6097,-3.6016,-3.6016,-3.6016,-3.6097,-3.6166,-3.6388,-3.6268,-3.6525,-3.7107,-3.7347,-3.7553,-3.7878,-3.8323,-3.8323,-3.8323,-3.8323,-3.8323,-3.8323,-3.8323,-3.8323,-3.8357,-3.8477,-3.8529,-3.8477,-3.8477,-3.8546,-3.8477,-3.8357,-3.8323,-3.8323,-3.8323,-3.8512,-3.8683,-3.9195,-3.9366,-3.9366,-3.9451,-3.9263,-3.8854,-3.8494,-3.8443,-3.8734,-3.9214,-3.971,-3.9659,-3.9881,-4.0258,-4.0429,-4.0327,-4.0224,-4.0241,-4.0344,-4.0429,-4.0464,-4.0498,-4.0583,-4.0601,-4.0618,-4.0618,-4.0601,-4.0618,-4.0652,-4.0635,-4.0601,-4.0583,-4.0583,-4.0402,-4.0072,-3.9616,-3.9307,-3.8879,-3.8574,-3.8175,-3.8082,-3.7845,-3.8143,-3.8366,-3.8366,-3.8257,-3.8227,-3.8448,-3.8465,-3.8672,-3.8592,-3.8449,-3.8719,-3.8862,-3.8974,-3.9085,-3.9196,-3.9228,-3.9164,-3.9148,-3.9117,-3.9164,-3.9212,-3.9387,-3.9561,-3.945,-3.9482,-3.4754,-3.4667,-3.4412,-3.445,-3.4624,-3.5268,-3.58,-3.6224,-3.6097,-3.6178,-3.6258,-3.6178,-3.5935,-3.5676,-3.5918,-3.5838,-3.5838,-3.5918,-3.6097,-3.6166,-3.6234,-3.6183,-3.6457,-3.6936,-3.7193,-3.7518,-3.7878,-3.8323,-3.8323,-3.8323,-3.8323,-3.8323,-3.8323,-3.8323,-3.8323,-3.8323,-3.8426,-3.8477,-3.8392,-3.8443,-3.8494,-3.8392,-3.8323,-3.8323,-3.8323,-3.8409,-3.8768,-3.8939,-3.9366,-3.9961,-3.9706,-3.9689,-4.0046,-3.9384,-3.8838,-3.8717,-3.894,-3.9214,-3.9847,-3.9933,-4.007,-4.0537,-4.0674,-4.0566,-4.0481,-4.0515,-4.0601,-4.0583,-4.0583,-4.0583,-4.0618,-4.0652,-4.0755,-4.084,-4.084,-4.0857,-4.0875,-4.0857,-4.0823,-4.0789,-4.0789,-4.0698,-4.0424,-4.0192,-3.9865,-3.9435,-3.9019,-3.8743,-3.8368,-3.8147,-3.8211,-3.8449,-3.8481,-3.8465,-3.864,-3.8783,-3.8878,-3.8958,-3.891,-3.8846,-3.8878,-3.9005,-3.9164,-3.9291,-3.9403,-3.9355,-3.9228,-3.926,-3.9371,-3.9339,-3.9403,-3.9577,-3.9704,-3.9593,-3.9546,-3.4365,-3.4591,-3.437,-3.4504,-3.483,-3.5155,-3.5435,-3.568,-3.5948,-3.6097,-3.6097,-3.6097,-3.5935,-3.5757,-3.5999,-3.5999,-3.5757,-3.5935,-3.6097,-3.6097,-3.6097,-3.6234,-3.6491,-3.6885,-3.7261,-3.7587,-3.7929,-3.8323,-3.8323,-3.8323,-3.8323,-3.8323,-3.8323,-3.8323,-3.8323,-3.8323,-3.8323,-3.834,-3.8323,-3.8323,-3.8323,-3.8323,-3.8323,-3.8323,-3.8323,-3.8597,-3.9025,-3.911,-3.9706,-4.0318,-4.0046,-3.9961,-4.01,-3.9336,-3.9236,-3.9231,-3.9419,-3.9816,-4.0425,-4.0373,-4.0545,-4.0752,-4.0873,-4.0868,-4.0777,-4.0703,-4.0635,-4.0583,-4.0583,-4.0583,-4.0652,-4.072,-4.0943,-4.1131,-4.1149,-4.1166,-4.1149,-4.1149,-4.1114,-4.108,-4.108,-4.1097,-4.0981,-4.0731,-4.0443,-3.9918,-3.9454,-3.9113,-3.8829,-3.8545,-3.8624,-3.8831,-3.8799,-3.8767,-3.8974,-3.9164,-3.9196,-3.9275,-3.9339,-3.9275,-3.9164,-3.9212,-3.9434,-3.9546,-3.9625,-3.953,-3.9434,-3.9561,-3.9657,-3.9593,-3.9546,-3.956,-3.9752,-3.972,-3.9689,-3.4273,-3.4892,-3.4959,-3.4908,-3.5309,-3.5052,-3.4902,-3.4924,-3.5646,-3.6011,-3.6011,-3.608,-3.6097,-3.6016,-3.6097,-3.6097,-3.6016,-3.6097,-3.6097,-3.6097,-3.6097,-3.6217,-3.6508,-3.6987,-3.721,-3.7672,-3.8066,-3.8323,-3.8323,-3.8323,-3.8323,-3.8323,-3.8323,-3.8323,-3.8323,-3.8323,-3.8323,-3.8323,-3.8323,-3.8323,-3.8323,-3.8323,-3.8323,-3.8323,-3.8323,-3.8494,-3.9025,-3.9451,-3.9961,-4.0233,-4.0318,-4.0131,-3.973,-3.9287,-3.9336,-3.9765,-3.9919,-4.0373,-4.085,-4.0832,-4.0957,-4.1113,-4.1235,-4.1084,-4.0829,-4.096,-4.0943,-4.0875,-4.0909,-4.0823,-4.084,-4.0943,-4.1114,-4.1303,-4.1405,-4.1508,-4.1645,-4.156,-4.1423,-4.1405,-4.1405,-4.1423,-4.1364,-4.1204,-4.0999,-4.0452,-4.0129,-3.9817,-3.9324,-3.8974,-3.9053,-3.9228,-3.918,-3.918,-3.9339,-3.9482,-3.9482,-3.9561,-3.9625,-3.9641,-3.9482,-3.9577,-3.9736,-3.9736,-3.9704,-3.9736,-3.9704,-3.9655,-3.9655,-3.9736,-3.9607,-3.9639,-3.967,-3.9573,-3.9573,-3.4649,-3.4516,-3.4243,-3.4094,-3.4237,-3.4418,-3.4511,-3.4458,-3.5032,-3.5412,-3.5669,-3.5926,-3.6097,-3.6097,-3.6046,-3.6046,-3.6097,-3.6097,-3.6097,-3.6097,-3.6097,-3.6183,-3.6371,-3.6868,-3.7073,-3.7261,-3.7672,-3.8289,-3.8323,-3.8323,-3.8323,-3.8323,-3.8323,-3.8323,-3.8323,-3.8323,-3.8323,-3.8323,-3.8323,-3.8323,-3.8323,-3.8323,-3.8323,-3.8323,-3.8323,-3.8751,-3.9178,-3.9621,-3.9961,-4.0318,-4.0403,-4.0122,-3.9616,-3.9218,-3.9316,-3.9864,-4.0338,-4.0832,-4.1079,-4.1294,-4.1311,-4.1165,-4.1162,-4.0834,-4.0806,-4.12,-4.1354,-4.1286,-4.12,-4.108,-4.1046,-4.1166,-4.132,-4.1508,-4.1697,-4.1919,-4.2125,-4.1953,-4.1782,-4.1765,-4.1748,-4.1782,-4.1834,-4.1638,-4.1413,-4.1236,-4.107,-4.0721,-3.9917,-3.9579,-3.9498,-3.9609,-3.9593,-3.9625,-3.972,-3.9736,-3.9689,-3.9689,-3.9736,-3.9768,-3.9768,-3.9832,-3.9879,-3.98,-3.9752,-3.9768,-3.967,-3.9362,-3.9362,-3.9475,-3.928,-3.9085,-3.8987,-3.8987,-3.8971,-3.4423,-3.4365,-3.4139,-3.4145,-3.4324,-3.4393,-3.429,-3.4182,-3.4896,-3.5121,-3.507,-3.5412,-3.5772,-3.5977,-3.5926,-3.5994,-3.6063,-3.6097,-3.6097,-3.6097,-3.6114,-3.6234,-3.6491,-3.6765,-3.6936,-3.7107,-3.7638,-3.8101,-3.8289,-3.8323,-3.8323,-3.8323,-3.8323,-3.8323,-3.8323,-3.834,-3.834,-3.8323,-3.8357,-3.834,-3.834,-3.834,-3.8323,-3.8323,-3.8409,-3.8854,-3.9263,-3.9604,-3.9791,-4.005,-4.014,-4.0117,-3.9809,-3.9632,-3.971,-4.0194,-4.0687,-4.1099,-4.1346,-4.1597,-4.1777,-4.1597,-4.1608,-4.1622,-4.1413,-4.1649,-4.1371,-4.1303,-4.12,-4.108,-4.1286,-4.1423,-4.1714,-4.1953,-4.2193,-4.2433,-4.2518,-4.245,-4.2364,-4.2347,-4.2347,-4.2364,-4.2304,-4.2321,-4.2059,-4.1677,-4.1561,-4.1094,-4.0449,-3.9977,-3.9927,-3.9974,-3.9927,-3.9816,-3.9752,-3.98,-3.9832,-3.9847,-3.9911,-3.9832,-3.9847,-3.9959,-4.0006,-3.9927,-3.9847,-3.9768,-3.9557,-3.928,-3.9167,-3.9264,-3.8889,-3.8399,-3.8399,-3.8384,-3.8384,-3.429,-3.4441,-3.4441,-3.4502,-3.4632,-3.4453,-3.4069,-3.3862,-3.481,-3.4984,-3.4624,-3.483,-3.5344,-3.5686,-3.572,-3.5874,-3.5994,-3.608,-3.6097,-3.6097,-3.6097,-3.6285,-3.6457,-3.6662,-3.6919,-3.7193,-3.7587,-3.7998,-3.8323,-3.8323,-3.8323,-3.8323,-3.834,-3.8357,-3.8392,-3.8426,-3.8477,-3.8563,-3.858,-3.846,-3.8409,-3.8357,-3.8375,-3.8375,-3.8443,-3.8871,-3.923,-3.9692,-3.9795,-3.9869,-4.0099,-4.021,-4.0158,-4.01,-4.0266,-4.0666,-4.0967,-4.1363,-4.1687,-4.2119,-4.2209,-4.2281,-4.242,-4.2323,-4.197,-4.1637,-4.1344,-4.1268,-4.1166,-4.1337,-4.1525,-4.1748,-4.2073,-4.2313,-4.257,-4.2697,-4.2697,-4.281,-4.2697,-4.2697,-4.2697,-4.2697,-4.2714,-4.2748,-4.2556,-4.2172,-4.169,-4.1111,-4.0675,-4.0284,-4.0133,-4.0181,-4.0181,-4.0038,-3.9959,-4.0006,-4.0133,-4.0197,-4.0245,-4.0038,-3.9959,-4.0197,-4.026,-4.0086,-3.999,-3.9943,-3.9554,-3.9147,-3.9018,-3.8905,-3.8188,-3.7697,-3.7893,-3.7893,-3.7697,-3.5082,-3.4857,-3.4499,-3.4074,-3.3644,-3.3822,-3.3712,-3.3407,-3.3882,-3.4368,-3.4693,-3.4607,-3.4915,-3.5618,-3.5566,-3.572,-3.6046,-3.6097,-3.6097,-3.6097,-3.6097,-3.632,-3.6491,-3.6542,-3.7039,-3.733,-3.7518,-3.7741,-3.822,-3.8323,-3.8323,-3.8323,-3.8323,-3.8477,-3.8785,-3.8803,-3.8854,-3.8922,-3.8854,-3.8734,-3.8666,-3.8614,-3.858,-3.8632,-3.8856,-3.92,-3.9632,-4.0253,-4.0425,-4.0378,-4.0192,-4.0491,-4.0577,-4.0465,-4.0563,-4.0933,-4.1325,-4.1687,-4.2119,-4.2389,-4.2389,-4.2479,-4.2423,-4.1825,-4.1531,-4.1183,-4.1052,-4.1223,-4.1292,-4.1628,-4.1868,-4.2073,-4.2347,-4.2433,-4.2621,-4.2663,-4.2731,-4.2748,-4.2731,-4.2731,-4.2731,-4.2731,-4.2731,-4.2765,-4.2686,-4.2206,-4.1803,-4.1241,-4.0935,-4.0624,-4.0423,-4.0419,-4.0499,-4.0562,-4.0594,-4.0483,-4.0546,-4.061,-4.0642,-4.0531,-4.0499,-4.0594,-4.0578,-4.0388,-4.0162,-4.0114,-3.961,-3.9107,-3.862,-3.8408,-3.7431,-3.6908,-3.7234,-3.7461,-3.7407]},{"header":{"parameterUnit":"m.s-1","parameterCategory":1,"la1":31.0,"la2":29.5877,"lo1":-88.7671,"lo2":-86.6584,"dy":0.0162,"dx":0.0185,"nx":115,"ny":88,"refTime":"2024-04-26T00:00:00:Z","depth":0,"parameterNumber":3,"parameterNumberName":"V-component_of_WINDS"},"data":[0.0,0.0,0.0,0.0,0.0,0.0,0.0,0.0,0.0,0.0,0.0,0.0,0.0,0.0,0.0,0.0,0.0,0.0,0.0,0.0,0.0,0.0,0.0,0.0,0.0,0.0,0.0,0.0,0.0,0.0,0.0,0.0,0.0,0.0,0.0,0.0,0.0,0.0,0.0,0.0,0.0,0.0,0.0,0.0,0.0,0.0,0.0,0.0,0.0,0.0,0.0,0.0,0.0,0.0,0.0,0.0,0.0,0.0,0.0,0.0,0.0,0.0,0.0,0.0,0.0,0.0,0.0,0.0,0.0,0.0,0.0,0.0,0.0,0.0,0.0,0.0,0.0,0.0,0.0,0.0,0.0,0.0,0.0,0.0,0.0,0.0,0.0,0.0,0.0,0.0,0.0,0.0,0.0,0.0,0.0,0.0,0.0,0.0,0.0,0.0,0.0,0.0,0.0,0.0,0.0,0.0,0.0,0.0,0.0,0.0,0.0,0.0,0.0,0.0,0.0,0.0,0.0,0.0,0.0,0.0,0.0,0.0,0.0,0.0,0.0,0.0,0.0,0.0,0.0,0.0,0.0,0.0,0.0,0.0,0.0,0.0,0.0,0.0,0.0,0.0,0.0,0.0,0.0,0.0,0.0,0.0,0.0,0.0,0.0,0.0,0.0,0.0,0.0,0.0,0.0,0.0,0.0,0.0,0.0,0.0,0.0,0.0,0.0,0.0,0.0,0.0,0.0,0.0,0.0,0.0,0.0,0.0,0.0,0.0,0.0,0.0,0.0,0.0,0.0,0.0,0.0,0.0,0.0,0.0,0.0,0.0,0.0,0.0,0.0,0.0,0.0,0.0,0.0,0.0,0.0,0.0,0.0,0.0,0.0,0.0,0.0,0.0,0.0,0.0,0.0,0.0,0.0,0.0,0.0,0.0,0.0,0.0,0.0,0.0,0.0,0.0,0.0,0.0,0.0,0.0,0.0,0.0,0.0,0.0,0.0,0.0,0.0,0.0,0.0,0.0,0.0,0.0,0.0,0.0,0.0,0.0,0.0,0.0,0.0,0.0,0.0,0.0,0.0,0.0,0.0,0.0,0.0,0.0,0.0,0.0,0.0,0.0,0.0,0.0,0.0,0.0,0.0,0.0,0.0,0.0,0.0,0.0,0.0,0.0,0.0,0.0,0.0,0.0,0.0,0.0,0.0,0.0,0.0,0.0,0.0,0.0,0.0,0.0,0.0,0.0,0.0,0.0,0.0,0.0,0.0,0.0,0.0,0.0,0.0,0.0,0.0,0.0,0.0,0.0,0.0,0.0,0.0,0.0,0.0,0.0,0.0,0.0,0.0,0.0,0.0,0.0,0.0,0.0,0.0,0.0,0.0,0.0,0.0,0.0,0.0,0.0,0.0,0.0,0.0,0.0,0.0,0.0,0.0,0.0,0.0,0.0,0.0,0.0,0.0,0.0,0.0,0.0,0.0,0.0,0.0,0.0,0.0,0.0,0.0,0.0,0.0,0.0,0.0,0.0,0.0,0.0,0.0,0.0,0.0,0.0,0.0,0.0,0.0,0.0,0.0,0.0,0.0,0.0,0.0,0.0,0.0,0.0,0.0,0.0,0.0,0.0,0.0,0.0,0.0,0.0,0.0,0.0,0.0,0.0,0.0,0.0,0.0,0.0,0.0,0.0,0.0,0.0,0.0,0.0,0.0,0.0,0.0,0.0,0.0,0.0,0.0,0.0,0.0,0.0,0.0,0.0,0.0,0.0,0.0,0.0,0.0,0.0,0.0,0.0,0.0,0.0,0.0,0.0,0.0,0.0,0.0,0.0,0.0,0.0,0.0,0.0,0.0,0.0,0.0,0.0,0.0,0.0,0.0,0.0,0.0,0.0,0.0,0.0,0.0,0.0,0.0,0.0,0.0,0.0,0.0,0.0,0.0,0.0,0.0,0.0,0.0,0.0,0.0,0.0,0.0,0.0,0.0,0.0,0.0,0.0,0.0,0.0,0.0,0.0,0.0,0.0,0.0,0.0,0.0,0.0,0.0,0.0,0.0,0.0,0.0,0.0,0.0,0.0,0.0,0.0,0.0,0.0,0.0,0.0,0.0,0.0,0.0,0.0,0.0,0.0,0.0,0.0,0.0,0.0,0.0,0.0,0.0,0.0,0.0,0.0,0.0,0.0,0.0,0.0,0.0,0.0,0.0,0.0,0.0,0.0,0.0,0.0,0.0,0.0,0.0,0.0,0.0,0.0,0.0,0.0,0.0,0.0,0.0,0.0,0.0,0.0,0.0,0.0,0.0,0.0,0.0,0.0,0.0,0.0,0.0,0.0,0.0,0.0,0.0,0.0,0.0,0.0,0.0,0.0,0.0,0.0,0.0,0.0,0.0,0.0,0.0,0.0,0.0,0.0,0.0,0.0,0.0,0.0,0.0,0.0,0.0,0.0,0.0,0.0,0.0,0.0,0.0,0.0,0.0,0.0,0.0,0.0,0.0,0.0,0.0,0.0,0.0,0.0,0.0,0.0,0.0,0.0,0.0,0.0,0.0,0.0,0.0,0.0,0.0,0.0,0.0,0.0,0.0,0.0,0.0,0.0,0.0,0.0,0.0,0.0,0.0,0.0,0.0,0.0,0.0,0.0,0.0,0.0,0.0,0.0,0.0,0.0,0.0,0.0,0.0,0.0,0.0,0.0,0.0,0.0,0.0,0.0,0.0,0.0,0.0,0.0,0.0,0.0,0.0,0.0,0.0,0.0,0.0,0.0,0.0,0.0,0.0,0.0,0.0,0.0,0.0,0.0,0.0,0.0,0.0,0.0,0.0,0.0,0.0,0.0,0.0,0.0,0.0,0.0,0.0,0.0,0.0,0.0,0.0,0.0,0.0,0.0,0.0,0.0,0.0,0.0,0.0,0.0,0.0,0.0,0.0,0.0,0.0,0.0,0.0,0.0,0.0,0.0,0.0,0.0,0.0,0.0,0.0,0.0,0.0,0.0,0.0,0.0,0.0,0.0,0.0,0.0,0.0,0.0,0.0,0.0,0.0,0.0,0.0,0.0,0.0,0.0,0.0,0.0,0.0,0.0,0.0,0.0,0.0,0.0,0.0,0.0,0.0,0.0,0.0,0.0,0.0,0.0,0.0,0.0,0.0,0.0,0.0,0.0,0.0,0.0,0.0,0.0,0.0,0.0,0.0,0.0,0.0,0.0,0.0,0.0,0.0,0.0,0.0,0.0,0.0,0.0,0.0,0.0,0.0,0.0,0.0,0.0,0.0,0.0,0.0,0.0,0.0,0.0,0.0,0.0,0.0,0.0,0.0,0.0,0.0,0.0,0.0,0.0,0.0,0.0,0.0,0.0,0.0,0.0,0.0,0.0,0.0,0.0,0.0,0.0,0.0,0.0,0.0,0.0,0.0,0.0,0.0,0.0,0.0,0.0,0.0,0.0,0.0,0.0,0.0,0.0,0.0,0.0,0.0,0.0,0.0,0.0,0.0,0.0,0.0,0.0,0.0,0.0,0.0,0.0,0.0,0.0,0.0,0.0,0.0,0.0,0.0,0.0,0.0,0.0,0.0,0.0,0.0,0.0,0.0,0.0,0.0,0.0,0.0,0.0,0.0,0.0,0.0,0.0,0.0,0.0,0.0,0.0,0.0,0.0,0.0,0.0,0.0,0.0,0.0,0.0,0.0,0.0,0.0,0.0,0.0,0.0,0.0,0.0,0.0,0.0,0.0,0.0,0.0,0.0,0.0,0.0,0.0,0.0,0.0,0.0,0.0,0.0,0.0,0.0,0.0,0.0,0.0,0.0,0.0,0.0,0.0,0.0,0.0,0.0,0.0,0.0,0.0,0.0,0.0,0.0,0.0,0.0,0.0,0.0,0.0,0.0,0.0,0.0,0.0,0.0,0.0,0.0,0.0,0.0,0.0,0.0,0.0,0.0,0.0,0.0,0.0,0.0,0.0,0.0,0.0,0.0,0.0,0.0,0.0,0.0,0.0,0.0,0.0,0.0,0.0,0.0,0.0,0.0,0.0,0.0,0.0,0.0,0.0,0.0,0.0,0.0,0.0,0.0,0.0,0.0,0.0,0.0,0.0,0.0,0.0,0.0,0.0,0.0,0.0,0.0,0.0,0.0,0.0,0.0,0.0,0.0,0.0,0.0,0.0,0.0,0.0,0.0,0.0,0.0,0.0,0.0,0.0,0.0,0.0,0.0,0.0,0.0,0.0,0.0,0.0,0.0,0.0,0.0,0.0,0.0,3.9814,0.0,0.0,0.0,4.025,0.0,0.0,0.0,0.0,0.0,0.0,0.0,0.0,0.0,0.0,0.0,0.0,0.0,0.0,0.0,0.0,0.0,0.0,0.0,0.0,0.0,0.0,0.0,0.0,0.0,0.0,0.0,0.0,0.0,0.0,0.0,0.0,0.0,0.0,0.0,0.0,0.0,0.0,0.0,0.0,0.0,0.0,0.0,0.0,0.0,0.0,0.0,0.0,0.0,0.0,0.0,0.0,0.0,0.0,0.0,0.0,0.0,0.0,0.0,0.0,0.0,0.0,0.0,0.0,0.0,0.0,0.0,0.0,0.0,0.0,0.0,0.0,0.0,0.0,0.0,0.0,0.0,0.0,0.0,0.0,0.0,0.0,0.0,0.0,0.0,0.0,0.0,0.0,0.0,0.0,0.0,0.0,0.0,0.0,0.0,0.0,0.0,0.0,0.0,0.0,0.0,0.0,0.0,0.0,0.0,0.0,0.0,0.0,0.0,0.0,3.9873,3.9989,4.0769,4.0932,4.0427,0.0,0.0,0.0,0.0,0.0,0.0,0.0,0.0,0.0,0.0,0.0,0.0,0.0,0.0,0.0,0.0,0.0,0.0,0.0,0.0,0.0,0.0,0.0,0.0,0.0,0.0,0.0,0.0,0.0,0.0,0.0,0.0,0.0,0.0,0.0,0.0,0.0,0.0,0.0,0.0,0.0,0.0,0.0,0.0,0.0,0.0,0.0,0.0,0.0,0.0,0.0,0.0,0.0,0.0,0.0,0.0,0.0,0.0,0.0,0.0,0.0,0.0,0.0,0.0,0.0,0.0,0.0,0.0,0.0,0.0,0.0,0.0,0.0,0.0,0.0,0.0,0.0,0.0,0.0,0.0,0.0,0.0,0.0,0.0,0.0,0.0,0.0,0.0,0.0,0.0,0.0,0.0,0.0,0.0,0.0,0.0,0.0,0.0,0.0,0.0,0.0,0.0,0.0,0.0,0.0,0.0,0.0,0.0,0.0,0.0,0.0,0.0,4.1242,4.1514,4.116,0.0,0.0,0.0,0.0,0.0,0.0,0.0,0.0,0.0,0.0,0.0,0.0,0.0,0.0,0.0,0.0,0.0,0.0,0.0,0.0,0.0,0.0,0.0,0.0,0.0,0.0,0.0,0.0,0.0,0.0,0.0,0.0,0.0,0.0,0.0,0.0,0.0,0.0,0.0,0.0,0.0,0.0,0.0,0.0,0.0,0.0,0.0,0.0,0.0,0.0,0.0,0.0,0.0,0.0,0.0,0.0,0.0,0.0,0.0,0.0,0.0,0.0,0.0,0.0,0.0,0.0,0.0,0.0,0.0,0.0,0.0,0.0,0.0,0.0,0.0,0.0,0.0,0.0,0.0,0.0,0.0,0.0,0.0,0.0,0.0,0.0,0.0,0.0,0.0,0.0,0.0,0.0,0.0,0.0,0.0,0.0,0.0,0.0,0.0,0.0,0.0,0.0,0.0,0.0,0.0,0.0,0.0,0.0,0.0,0.0,4.0752,4.2054,4.2734,0.0,4.3296,0.0,0.0,0.0,0.0,0.0,0.0,0.0,0.0,0.0,0.0,0.0,0.0,0.0,0.0,0.0,0.0,0.0,0.0,0.0,0.0,0.0,0.0,0.0,0.0,0.0,0.0,0.0,0.0,0.0,0.0,0.0,0.0,0.0,0.0,0.0,0.0,0.0,0.0,0.0,0.0,0.0,0.0,0.0,0.0,0.0,0.0,0.0,0.0,0.0,0.0,0.0,0.0,0.0,0.0,0.0,0.0,0.0,0.0,0.0,0.0,0.0,0.0,0.0,0.0,0.0,0.0,0.0,0.0,0.0,0.0,0.0,0.0,0.0,0.0,0.0,0.0,0.0,0.0,0.0,0.0,0.0,0.0,0.0,0.0,0.0,0.0,0.0,0.0,0.0,0.0,0.0,0.0,0.0,0.0,0.0,0.0,0.0,0.0,0.0,0.0,0.0,0.0,0.0,0.0,0.0,0.0,0.0,0.0,0.0,0.0,4.1224,4.2257,4.2879,4.2978,0.0,0.0,0.0,0.0,0.0,0.0,0.0,0.0,0.0,0.0,0.0,0.0,0.0,0.0,0.0,0.0,0.0,0.0,0.0,0.0,0.0,0.0,0.0,0.0,0.0,0.0,0.0,0.0,0.0,0.0,0.0,0.0,0.0,0.0,0.0,0.0,0.0,0.0,0.0,0.0,0.0,0.0,0.0,0.0,0.0,0.0,0.0,0.0,0.0,0.0,0.0,0.0,0.0,0.0,0.0,0.0,0.0,0.0,0.0,0.0,0.0,0.0,0.0,0.0,0.0,0.0,0.0,0.0,0.0,0.0,0.0,0.0,0.0,0.0,0.0,0.0,0.0,0.0,0.0,0.0,0.0,0.0,0.0,0.0,0.0,0.0,0.0,0.0,0.0,0.0,0.0,0.0,0.0,0.0,0.0,0.0,0.0,0.0,0.0,0.0,0.0,0.0,0.0,0.0,0.0,0.0,0.0,0.0,0.0,0.0,4.1235,4.1686,4.2844,4.278,4.2671,4.2471,0.0,0.0,0.0,0.0,0.0,0.0,0.0,0.0,0.0,0.0,0.0,0.0,0.0,0.0,0.0,0.0,0.0,0.0,0.0,0.0,0.0,0.0,0.0,0.0,0.0,0.0,0.0,0.0,0.0,0.0,0.0,0.0,0.0,0.0,0.0,0.0,0.0,0.0,0.0,0.0,0.0,0.0,0.0,0.0,0.0,0.0,0.0,0.0,0.0,0.0,0.0,0.0,0.0,0.0,0.0,0.0,0.0,0.0,0.0,0.0,0.0,0.0,0.0,0.0,0.0,0.0,0.0,0.0,0.0,0.0,0.0,0.0,0.0,0.0,0.0,0.0,0.0,0.0,0.0,0.0,0.0,0.0,0.0,0.0,0.0,0.0,0.0,0.0,0.0,0.0,0.0,0.0,0.0,0.0,0.0,0.0,0.0,0.0,0.0,0.0,0.0,0.0,0.0,0.0,0.0,0.0,0.0,0.0,4.4293,4.2518,4.2388,4.4228,4.2656,4.2545,0.0,0.0,0.0,0.0,0.0,0.0,0.0,0.0,0.0,0.0,0.0,0.0,0.0,0.0,0.0,0.0,0.0,0.0,0.0,0.0,0.0,0.0,0.0,0.0,0.0,0.0,0.0,0.0,0.0,0.0,0.0,0.0,0.0,0.0,0.0,0.0,0.0,0.0,0.0,0.0,0.0,0.0,0.0,0.0,0.0,0.0,0.0,0.0,0.0,0.0,0.0,0.0,0.0,0.0,0.0,0.0,0.0,0.0,0.0,0.0,0.0,0.0,0.0,0.0,0.0,0.0,0.0,0.0,0.0,0.0,0.0,0.0,0.0,0.0,0.0,0.0,0.0,0.0,0.0,0.0,0.0,0.0,0.0,0.0,0.0,0.0,0.0,0.0,0.0,0.0,0.0,0.0,0.0,0.0,0.0,0.0,0.0,0.0,0.0,0.0,0.0,0.0,0.0,0.0,0.0,0.0,0.0,0.0,0.0,4.2928,4.2687,4.2936,4.3633,4.333,4.3408,0.0,0.0,0.0,0.0,0.0,0.0,0.0,0.0,0.0,0.0,0.0,0.0,0.0,0.0,0.0,0.0,0.0,0.0,0.0,0.0,0.0,0.0,0.0,0.0,0.0,0.0,0.0,0.0,0.0,0.0,0.0,0.0,0.0,0.0,0.0,0.0,0.0,0.0,0.0,0.0,0.0,0.0,0.0,0.0,0.0,0.0,0.0,0.0,0.0,0.0,0.0,0.0,0.0,0.0,0.0,0.0,0.0,0.0,0.0,0.0,0.0,0.0,0.0,0.0,0.0,0.0,0.0,0.0,0.0,0.0,0.0,0.0,0.0,0.0,0.0,0.0,0.0,0.0,0.0,0.0,0.0,0.0,0.0,0.0,0.0,0.0,0.0,0.0,0.0,0.0,0.0,0.0,0.0,0.0,0.0,0.0,0.0,0.0,0.0,0.0,0.0,0.0,0.0,0.0,0.0,0.0,0.0,0.0,0.0,4.2554,0.0,4.3723,4.3657,4.3669,4.3598,0.0,0.0,0.0,0.0,0.0,0.0,0.0,0.0,0.0,0.0,0.0,0.0,0.0,0.0,0.0,0.0,0.0,0.0,0.0,0.0,0.0,0.0,0.0,0.0,0.0,0.0,0.0,0.0,0.0,0.0,0.0,0.0,0.0,0.0,0.0,0.0,0.0,0.0,0.0,0.0,0.0,0.0,0.0,0.0,0.0,0.0,0.0,0.0,0.0,0.0,0.0,0.0,0.0,0.0,0.0,0.0,0.0,0.0,0.0,0.0,0.0,0.0,0.0,0.0,0.0,0.0,0.0,0.0,0.0,0.0,0.0,0.0,0.0,0.0,0.0,0.0,0.0,0.0,0.0,0.0,0.0,0.0,0.0,0.0,0.0,0.0,0.0,0.0,0.0,0.0,0.0,0.0,0.0,0.0,0.0,0.0,0.0,0.0,0.0,0.0,0.0,0.0,0.0,0.0,0.0,0.0,0.0,0.0,4.3275,4.3481,4.4467,4.4777,4.4484,4.3545,4.302,0.0,0.0,0.0,0.0,0.0,0.0,0.0,0.0,0.0,0.0,0.0,0.0,0.0,0.0,0.0,0.0,0.0,0.0,0.0,0.0,0.0,0.0,0.0,0.0,0.0,0.0,0.0,0.0,0.0,0.0,0.0,0.0,0.0,0.0,0.0,0.0,0.0,0.0,0.0,0.0,0.0,0.0,0.0,0.0,0.0,0.0,0.0,0.0,0.0,0.0,0.0,0.0,0.0,0.0,0.0,0.0,0.0,0.0,0.0,0.0,0.0,0.0,0.0,0.0,0.0,0.0,0.0,0.0,0.0,0.0,0.0,0.0,0.0,0.0,0.0,0.0,0.0,0.0,0.0,0.0,0.0,0.0,0.0,0.0,0.0,0.0,0.0,0.0,0.0,0.0,0.0,0.0,0.0,0.0,0.0,0.0,0.0,0.0,0.0,0.0,0.0,0.0,0.0,0.0,0.0,0.0,0.0,0.0,0.0,4.2554,4.3565,4.4642,4.5685,4.451,4.4434,0.0,0.0,0.0,0.0,0.0,0.0,0.0,0.0,0.0,0.0,0.0,0.0,0.0,0.0,0.0,0.0,0.0,0.0,0.0,0.0,0.0,0.0,0.0,0.0,0.0,0.0,0.0,0.0,0.0,0.0,0.0,0.0,0.0,0.0,0.0,0.0,0.0,0.0,0.0,0.0,0.0,0.0,0.0,0.0,0.0,0.0,0.0,0.0,0.0,0.0,0.0,0.0,0.0,0.0,0.0,0.0,0.0,0.0,0.0,0.0,0.0,0.0,0.0,0.0,0.0,0.0,0.0,0.0,0.0,0.0,0.0,0.0,0.0,0.0,0.0,0.0,0.0,0.0,0.0,0.0,0.0,0.0,0.0,0.0,0.0,0.0,0.0,0.0,0.0,0.0,0.0,0.0,0.0,0.0,0.0,0.0,0.0,0.0,0.0,0.0,0.0,0.0,0.0,0.0,0.0,0.0,0.0,0.0,0.0,4.3584,4.4399,4.5498,4.6637,4.5725,4.5553,4.6202,0.0,0.0,0.0,0.0,0.0,0.0,0.0,0.0,0.0,0.0,0.0,0.0,0.0,0.0,0.0,0.0,0.0,0.0,0.0,0.0,0.0,0.0,0.0,0.0,0.0,0.0,0.0,0.0,0.0,0.0,0.0,0.0,0.0,0.0,0.0,0.0,0.0,0.0,0.0,0.0,0.0,0.0,0.0,0.0,0.0,0.0,0.0,0.0,0.0,0.0,0.0,0.0,0.0,0.0,0.0,0.0,0.0,0.0,0.0,0.0,0.0,0.0,0.0,0.0,0.0,0.0,0.0,0.0,0.0,0.0,0.0,0.0,0.0,0.0,0.0,0.0,0.0,0.0,0.0,0.0,0.0,0.0,0.0,0.0,0.0,0.0,0.0,0.0,0.0,0.0,0.0,0.0,0.0,0.0,0.0,0.0,0.0,0.0,0.0,0.0,0.0,0.0,0.0,0.0,0.0,0.0,0.0,0.0,4.6124,4.6811,4.7209,4.7352,4.7025,4.6429,0.0,0.0,0.0,0.0,0.0,0.0,0.0,0.0,0.0,0.0,0.0,0.0,0.0,0.0,0.0,0.0,0.0,0.0,0.0,0.0,0.0,0.0,0.0,0.0,0.0,0.0,0.0,0.0,0.0,0.0,0.0,0.0,0.0,0.0,0.0,0.0,0.0,0.0,0.0,0.0,0.0,0.0,0.0,0.0,0.0,0.0,0.0,0.0,0.0,0.0,0.0,0.0,0.0,0.0,0.0,0.0,0.0,0.0,0.0,0.0,0.0,0.0,0.0,0.0,0.0,0.0,0.0,0.0,0.0,0.0,0.0,0.0,0.0,0.0,0.0,0.0,0.0,0.0,0.0,0.0,0.0,0.0,0.0,0.0,0.0,0.0,0.0,0.0,0.0,0.0,0.0,0.0,0.0,0.0,0.0,0.0,0.0,0.0,0.0,0.0,0.0,0.0,0.0,0.0,0.0,0.0,0.0,0.0,0.0,4.8742,4.9172,4.9559,4.9774,4.8514,4.8021,0.0,0.0,0.0,0.0,0.0,0.0,0.0,0.0,0.0,0.0,0.0,0.0,0.0,0.0,0.0,0.0,0.0,0.0,0.0,0.0,0.0,0.0,0.0,0.0,0.0,0.0,0.0,0.0,0.0,0.0,0.0,0.0,0.0,0.0,0.0,0.0,0.0,0.0,0.0,0.0,0.0,0.0,0.0,0.0,0.0,0.0,0.0,0.0,0.0,0.0,0.0,0.0,0.0,0.0,0.0,0.0,0.0,0.0,0.0,0.0,0.0,0.0,0.0,0.0,0.0,0.0,0.0,0.0,0.0,0.0,0.0,0.0,0.0,0.0,0.0,0.0,0.0,0.0,0.0,0.0,0.0,0.0,0.0,0.0,0.0,0.0,0.0,0.0,0.0,0.0,0.0,0.0,0.0,0.0,0.0,0.0,0.0,0.0,0.0,0.0,0.0,0.0,0.0,0.0,0.0,0.0,0.0,0.0,4.9058,5.0214,5.0783,5.1347,5.196,5.0883,5.0169,0.0,0.0,0.0,0.0,0.0,0.0,0.0,0.0,0.0,0.0,0.0,0.0,0.0,0.0,0.0,0.0,0.0,0.0,0.0,0.0,0.0,0.0,0.0,0.0,0.0,0.0,0.0,0.0,0.0,0.0,0.0,0.0,0.0,0.0,0.0,0.0,0.0,0.0,0.0,0.0,0.0,0.0,0.0,0.0,0.0,0.0,0.0,0.0,0.0,0.0,0.0,0.0,0.0,0.0,0.0,0.0,0.0,0.0,0.0,0.0,0.0,0.0,0.0,0.0,0.0,0.0,0.0,0.0,0.0,0.0,0.0,0.0,0.0,0.0,0.0,0.0,0.0,0.0,0.0,0.0,0.0,0.0,0.0,0.0,0.0,0.0,0.0,0.0,0.0,0.0,0.0,0.0,0.0,0.0,0.0,0.0,0.0,0.0,0.0,0.0,0.0,0.0,0.0,0.0,0.0,0.0,0.0,0.0,5.1016,5.1118,5.19,5.2818,5.37,5.3322,5.2366,0.0,0.0,0.0,0.0,0.0,0.0,0.0,0.0,0.0,0.0,0.0,0.0,0.0,0.0,0.0,0.0,0.0,0.0,0.0,0.0,0.0,0.0,0.0,0.0,0.0,0.0,0.0,0.0,0.0,0.0,0.0,0.0,0.0,0.0,0.0,0.0,0.0,0.0,0.0,0.0,0.0,0.0,0.0,0.0,0.0,0.0,0.0,0.0,0.0,0.0,0.0,0.0,0.0,0.0,0.0,0.0,0.0,0.0,0.0,0.0,0.0,0.0,0.0,0.0,0.0,0.0,0.0,0.0,0.0,0.0,0.0,0.0,0.0,0.0,0.0,0.0,0.0,0.0,0.0,0.0,0.0,0.0,0.0,0.0,0.0,0.0,0.0,0.0,0.0,0.0,0.0,0.0,0.0,0.0,0.0,0.0,0.0,0.0,0.0,0.0,0.0,0.0,0.0,0.0,0.0,0.0,0.0,0.0,5.233,5.3192,5.3744,5.4236,5.4725,5.3435,5.2284,0.0,0.0,0.0,0.0,0.0,0.0,0.0,0.0,0.0,0.0,0.0,0.0,0.0,0.0,0.0,0.0,0.0,0.0,0.0,0.0,0.0,0.0,0.0,0.0,0.0,0.0,0.0,0.0,0.0,0.0,0.0,0.0,0.0,0.0,0.0,0.0,0.0,0.0,0.0,0.0,0.0,0.0,0.0,0.0,0.0,0.0,0.0,0.0,4.6931,0.0,0.0,0.0,0.0,0.0,0.0,0.0,0.0,0.0,0.0,0.0,0.0,0.0,0.0,0.0,0.0,0.0,0.0,0.0,0.0,0.0,0.0,0.0,0.0,0.0,0.0,0.0,0.0,0.0,0.0,0.0,0.0,0.0,0.0,0.0,0.0,0.0,0.0,0.0,0.0,0.0,0.0,0.0,0.0,0.0,0.0,0.0,0.0,0.0,0.0,0.0,0.0,0.0,0.0,0.0,0.0,0.0,0.0,0.0,5.3739,5.4383,5.4897,5.5279,5.5403,5.5104,5.4152,0.0,0.0,0.0,0.0,0.0,0.0,0.0,0.0,0.0,0.0,0.0,0.0,0.0,0.0,0.0,0.0,0.0,0.0,0.0,0.0,0.0,0.0,0.0,0.0,0.0,0.0,0.0,0.0,0.0,0.0,0.0,0.0,0.0,0.0,0.0,0.0,0.0,0.0,0.0,0.0,0.0,0.0,0.0,0.0,0.0,0.0,0.0,0.0,0.0,0.0,0.0,0.0,0.0,0.0,0.0,0.0,0.0,0.0,0.0,0.0,0.0,0.0,0.0,0.0,0.0,0.0,0.0,0.0,0.0,0.0,0.0,0.0,0.0,0.0,0.0,0.0,0.0,0.0,0.0,0.0,0.0,0.0,0.0,0.0,0.0,0.0,0.0,0.0,0.0,0.0,0.0,0.0,0.0,0.0,0.0,0.0,0.0,0.0,0.0,0.0,0.0,0.0,0.0,0.0,0.0,0.0,0.0,5.4485,5.508,5.5293,5.5897,5.6197,5.6052,5.7009,5.6493,5.4345,0.0,0.0,0.0,0.0,0.0,0.0,0.0,0.0,0.0,0.0,0.0,0.0,0.0,0.0,0.0,0.0,0.0,0.0,0.0,0.0,0.0,0.0,0.0,0.0,0.0,0.0,0.0,0.0,0.0,0.0,0.0,0.0,0.0,0.0,0.0,0.0,0.0,0.0,4.7392,4.8958,0.0,0.0,0.0,0.0,0.0,0.0,0.0,0.0,4.9355,0.0,0.0,0.0,0.0,0.0,0.0,0.0,0.0,0.0,0.0,0.0,0.0,0.0,0.0,0.0,0.0,0.0,0.0,0.0,0.0,0.0,0.0,0.0,0.0,0.0,0.0,0.0,0.0,0.0,0.0,0.0,0.0,0.0,0.0,0.0,0.0,0.0,0.0,0.0,0.0,0.0,0.0,0.0,0.0,0.0,0.0,0.0,0.0,0.0,0.0,0.0,0.0,0.0,0.0,0.0,0.0,5.5667,5.5419,5.5866,5.707,5.7569,5.7432,5.6753,5.7655,5.7137,5.5015,0.0,0.0,0.0,0.0,0.0,0.0,0.0,0.0,0.0,0.0,0.0,0.0,0.0,0.0,0.0,0.0,0.0,0.0,0.0,0.0,0.0,0.0,0.0,0.0,0.0,0.0,0.0,0.0,0.0,0.0,0.0,0.0,0.0,0.0,0.0,0.0,0.0,0.0,0.0,5.0474,5.0854,0.0,0.0,0.0,0.0,0.0,0.0,0.0,0.0,4.9546,0.0,0.0,0.0,0.0,0.0,0.0,0.0,0.0,0.0,0.0,0.0,0.0,0.0,0.0,0.0,0.0,0.0,0.0,0.0,0.0,0.0,0.0,0.0,0.0,0.0,0.0,0.0,0.0,0.0,0.0,0.0,0.0,0.0,0.0,0.0,0.0,0.0,0.0,0.0,0.0,0.0,0.0,0.0,0.0,0.0,0.0,0.0,0.0,0.0,0.0,0.0,0.0,0.0,0.0,0.0,5.6247,5.6969,5.7641,5.8314,5.8742,5.8592,5.7795,5.8121,5.7369,0.0,0.0,0.0,0.0,0.0,0.0,0.0,0.0,0.0,0.0,0.0,0.0,0.0,0.0,0.0,0.0,0.0,0.0,0.0,0.0,0.0,0.0,0.0,0.0,0.0,0.0,0.0,0.0,0.0,0.0,0.0,0.0,0.0,0.0,0.0,0.0,0.0,0.0,0.0,0.0,5.2529,5.2811,5.271,0.0,0.0,0.0,0.0,0.0,0.0,4.9974,4.985,0.0,0.0,0.0,0.0,0.0,0.0,0.0,0.0,0.0,0.0,0.0,0.0,0.0,0.0,0.0,0.0,0.0,0.0,0.0,0.0,0.0,0.0,0.0,0.0,0.0,0.0,0.0,0.0,0.0,0.0,0.0,0.0,0.0,0.0,0.0,0.0,0.0,0.0,0.0,0.0,0.0,0.0,0.0,0.0,0.0,0.0,0.0,0.0,0.0,0.0,0.0,0.0,0.0,0.0,0.0,5.6767,5.8314,5.9303,5.9571,5.9718,5.9522,5.8932,5.8845,5.7801,0.0,0.0,0.0,0.0,0.0,0.0,0.0,0.0,0.0,0.0,0.0,0.0,0.0,0.0,0.0,0.0,0.0,0.0,0.0,0.0,0.0,0.0,0.0,0.0,0.0,0.0,0.0,0.0,0.0,0.0,0.0,0.0,0.0,0.0,0.0,0.0,0.0,0.0,0.0,0.0,0.0,5.4878,5.4861,5.4472,0.0,0.0,0.0,0.0,5.126,5.1126,0.0,0.0,0.0,0.0,0.0,0.0,0.0,0.0,0.0,0.0,0.0,0.0,0.0,0.0,0.0,0.0,0.0,0.0,0.0,0.0,0.0,0.0,0.0,0.0,0.0,0.0,0.0,0.0,0.0,0.0,0.0,0.0,0.0,0.0,0.0,0.0,0.0,0.0,0.0,0.0,0.0,0.0,0.0,0.0,0.0,0.0,0.0,0.0,0.0,0.0,0.0,0.0,0.0,0.0,0.0,0.0,5.79,5.88,5.985,6.11,6.0682,6.0166,5.9583,6.0144,5.9246,0.0,0.0,0.0,0.0,0.0,0.0,0.0,0.0,0.0,0.0,0.0,0.0,0.0,0.0,0.0,0.0,0.0,0.0,0.0,0.0,0.0,0.0,0.0,0.0,0.0,0.0,0.0,0.0,0.0,0.0,0.0,0.0,0.0,0.0,0.0,0.0,0.0,0.0,0.0,0.0,0.0,5.6374,5.5095,5.5499,5.548,0.0,0.0,5.3922,5.4262,5.4708,0.0,0.0,0.0,0.0,0.0,0.0,0.0,0.0,0.0,0.0,0.0,0.0,0.0,0.0,0.0,0.0,0.0,0.0,0.0,0.0,0.0,0.0,0.0,0.0,0.0,0.0,0.0,0.0,0.0,0.0,0.0,0.0,0.0,0.0,0.0,0.0,0.0,0.0,0.0,0.0,0.0,0.0,0.0,0.0,0.0,0.0,0.0,0.0,0.0,0.0,0.0,0.0,0.0,0.0,0.0,5.7654,5.8722,6.0655,6.1848,6.2292,6.2066,6.155,6.0827,6.0192,5.9103,0.0,0.0,0.0,0.0,0.0,0.0,0.0,0.0,0.0,0.0,0.0,0.0,0.0,0.0,0.0,0.0,0.0,0.0,0.0,0.0,0.0,0.0,0.0,0.0,0.0,0.0,0.0,0.0,0.0,0.0,0.0,0.0,0.0,0.0,0.0,0.0,0.0,0.0,0.0,0.0,0.0,0.0,5.7425,5.7615,0.0,0.0,0.0,5.5687,5.5687,0.0,0.0,0.0,0.0,0.0,0.0,0.0,0.0,0.0,0.0,0.0,0.0,0.0,0.0,0.0,0.0,0.0,0.0,0.0,0.0,0.0,0.0,0.0,0.0,0.0,0.0,0.0,0.0,0.0,0.0,0.0,0.0,0.0,0.0,0.0,0.0,0.0,0.0,0.0,0.0,0.0,0.0,0.0,0.0,0.0,0.0,0.0,0.0,0.0,0.0,0.0,0.0,0.0,0.0,0.0,0.0,0.0,5.9625,6.2477,6.3941,6.3769,6.3498,6.2956,6.2109,6.0761,0.0,0.0,0.0,0.0,0.0,0.0,0.0,0.0,0.0,0.0,0.0,0.0,0.0,0.0,0.0,0.0,0.0,0.0,0.0,0.0,0.0,0.0,0.0,0.0,0.0,0.0,0.0,5.166,0.0,0.0,0.0,0.0,0.0,0.0,0.0,0.0,0.0,0.0,0.0,0.0,0.0,0.0,5.9323,5.9617,5.983,5.9766,0.0,0.0,5.7791,5.7327,5.8425,5.8457,0.0,0.0,0.0,0.0,0.0,0.0,0.0,0.0,0.0,0.0,0.0,0.0,0.0,0.0,0.0,0.0,0.0,0.0,0.0,0.0,0.0,0.0,0.0,0.0,0.0,0.0,0.0,0.0,5.582,0.0,0.0,0.0,0.0,0.0,0.0,0.0,0.0,0.0,0.0,0.0,0.0,0.0,0.0,0.0,0.0,0.0,0.0,0.0,0.0,0.0,0.0,0.0,0.0,0.0,6.0275,6.0936,6.3862,6.5517,6.5798,6.4865,6.4096,6.3395,6.2647,6.1248,0.0,0.0,0.0,0.0,0.0,0.0,0.0,0.0,0.0,0.0,0.0,0.0,0.0,0.0,0.0,0.0,0.0,0.0,0.0,0.0,0.0,0.0,0.0,0.0,0.0,0.0,0.0,0.0,0.0,0.0,0.0,0.0,0.0,0.0,0.0,0.0,0.0,0.0,0.0,0.0,0.0,6.0646,6.1019,6.1755,6.2179,0.0,6.1451,6.0863,6.0005,6.1896,6.2038,5.7847,0.0,0.0,0.0,0.0,0.0,0.0,0.0,0.0,0.0,0.0,0.0,0.0,0.0,0.0,0.0,0.0,0.0,0.0,0.0,0.0,0.0,0.0,0.0,0.0,0.0,5.6324,5.7129,0.0,5.7315,0.0,0.0,0.0,0.0,0.0,0.0,0.0,0.0,0.0,0.0,0.0,0.0,0.0,0.0,0.0,0.0,0.0,0.0,0.0,0.0,0.0,0.0,0.0,0.0,6.1551,6.245,6.5158,6.6673,6.6818,6.6486,6.5856,6.5049,6.4218,6.2648,0.0,0.0,0.0,0.0,0.0,0.0,0.0,0.0,0.0,0.0,0.0,0.0,0.0,0.0,0.0,0.0,0.0,0.0,0.0,0.0,0.0,0.0,0.0,0.0,0.0,0.0,0.0,0.0,5.4196,5.4313,5.439,0.0,0.0,0.0,0.0,0.0,0.0,0.0,0.0,0.0,0.0,6.229,6.2883,6.3918,0.0,0.0,6.403,6.3554,6.3204,6.3384,6.2676,5.9997,5.976,0.0,0.0,0.0,0.0,0.0,0.0,0.0,0.0,0.0,0.0,0.0,0.0,0.0,0.0,0.0,0.0,0.0,0.0,0.0,0.0,0.0,0.0,0.0,0.0,0.0,0.0,0.0,0.0,0.0,0.0,0.0,0.0,0.0,0.0,0.0,0.0,0.0,0.0,0.0,0.0,0.0,0.0,0.0,0.0,0.0,0.0,0.0,0.0,0.0,0.0,0.0,0.0,6.2743,6.3965,6.6596,6.8092,6.8237,6.8237,6.7754,6.673,6.569,6.4061,0.0,0.0,0.0,0.0,0.0,0.0,0.0,0.0,0.0,0.0,0.0,0.0,0.0,0.0,0.0,0.0,0.0,0.0,0.0,0.0,0.0,0.0,0.0,0.0,0.0,0.0,0.0,0.0,5.5841,5.6095,5.6279,0.0,0.0,0.0,0.0,0.0,0.0,0.0,0.0,0.0,0.0,6.3776,6.4324,6.5319,6.5922,6.5711,6.529,6.493,6.4719,6.4505,6.3837,6.1894,0.0,0.0,0.0,0.0,0.0,0.0,0.0,0.0,0.0,0.0,0.0,0.0,0.0,0.0,0.0,0.0,0.0,0.0,0.0,0.0,0.0,0.0,0.0,0.0,0.0,0.0,0.0,6.0324,0.0,0.0,6.0324,0.0,0.0,0.0,0.0,0.0,0.0,0.0,0.0,0.0,0.0,0.0,0.0,0.0,0.0,0.0,0.0,0.0,0.0,0.0,0.0,0.0,0.0,6.3783,6.5459,6.8121,6.9745,7.0155,7.0155,6.9558,6.8334,6.7225,6.5569,6.322,0.0,0.0,0.0,0.0,0.0,0.0,0.0,0.0,0.0,0.0,0.0,0.0,0.0,0.0,0.0,0.0,0.0,0.0,0.0,0.0,0.0,0.0,0.0,0.0,0.0,0.0,5.6904,5.7088,5.729,0.0,0.0,0.0,0.0,0.0,0.0,0.0,0.0,0.0,6.1492,6.3479,6.4906,6.5299,6.5715,6.5814,6.5147,6.4995,6.4782,6.4236,6.5602,6.5966,0.0,0.0,0.0,0.0,0.0,0.0,0.0,0.0,0.0,0.0,0.0,0.0,0.0,0.0,0.0,0.0,0.0,0.0,0.0,0.0,0.0,0.0,0.0,0.0,0.0,0.0,0.0,6.1447,6.1102,0.0,0.0,0.0,0.0,0.0,0.0,0.0,0.0,0.0,0.0,0.0,6.7395,6.8128,0.0,0.0,0.0,0.0,0.0,0.0,0.0,0.0,0.0,0.0,0.0,0.0,6.5048,6.7004,6.9017,7.0471,7.1351,7.1218,7.0846,7.0172,6.9241,6.7404,6.4665,0.0,0.0,0.0,0.0,0.0,0.0,0.0,0.0,0.0,0.0,0.0,0.0,0.0,0.0,0.0,0.0,0.0,0.0,0.0,0.0,0.0,0.0,0.0,0.0,0.0,5.9307,0.0,0.0,0.0,0.0,0.0,0.0,0.0,0.0,0.0,0.0,6.0977,6.2355,6.3665,6.5062,6.6081,6.6526,6.7336,6.776,0.0,0.0,0.0,0.0,0.0,0.0,0.0,0.0,0.0,0.0,0.0,0.0,0.0,0.0,6.3737,6.0121,5.8551,5.7854,5.7837,0.0,0.0,0.0,0.0,0.0,0.0,0.0,0.0,0.0,0.0,0.0,0.0,0.0,0.0,6.3485,6.3142,6.3089,0.0,0.0,0.0,0.0,0.0,0.0,0.0,0.0,6.9419,7.06,7.0682,7.1604,7.1406,7.0253,6.9511,6.7275,0.0,0.0,0.0,0.0,0.0,0.0,0.0,0.0,6.6274,6.8169,7.0058,7.1454,7.2379,7.2283,7.2036,7.1679,7.0544,6.8659,6.5938,6.3387,6.1795,0.0,0.0,0.0,0.0,0.0,0.0,0.0,0.0,0.0,0.0,0.0,0.0,0.0,0.0,0.0,0.0,0.0,0.0,0.0,0.0,0.0,0.0,0.0,6.0519,0.0,0.0,0.0,0.0,0.0,0.0,0.0,0.0,0.0,6.2055,6.3244,6.4706,6.5888,6.6767,6.7493,6.8064,0.0,0.0,0.0,0.0,0.0,0.0,0.0,6.7627,6.7846,6.7534,6.7274,6.759,6.815,6.8413,6.7659,0.0,0.0,6.3832,6.2116,6.1263,6.1307,6.047,5.9745,5.9899,5.938,5.8548,0.0,0.0,0.0,0.0,6.4583,0.0,0.0,0.0,6.5454,6.5806,0.0,6.5809,0.0,0.0,0.0,0.0,6.4392,6.7311,0.0,0.0,7.2182,7.3589,7.3622,7.4536,7.4134,7.2604,7.3089,7.2226,6.986,6.6303,0.0,0.0,0.0,0.0,0.0,0.0,6.7425,6.9092,7.1239,7.2649,7.3285,7.3285,7.3181,7.2867,7.1324,6.9381,6.7028,6.5821,6.4168,6.2061,6.0869,0.0,0.0,0.0,0.0,0.0,0.0,0.0,0.0,0.0,0.0,0.0,0.0,0.0,0.0,0.0,0.0,0.0,0.0,0.0,0.0,6.075,0.0,0.0,0.0,0.0,0.0,0.0,0.0,0.0,0.0,6.5177,6.4402,6.5398,6.6745,6.8139,0.0,0.0,0.0,0.0,6.8726,6.8812,6.8886,6.8933,6.8964,7.0026,7.0651,7.012,0.0,0.0,7.0999,7.0317,6.9828,6.9476,6.9449,6.9037,6.7759,6.5922,6.4784,6.4862,6.3488,6.2322,6.2188,6.1699,6.0799,6.8087,0.0,0.0,0.0,0.0,6.7054,6.7772,6.8583,6.8583,6.8285,6.7662,6.7512,0.0,0.0,0.0,0.0,0.0,0.0,7.1105,7.2589,7.3952,7.4951,7.5634,7.5918,7.5482,7.4445,7.4031,7.3417,7.2667,7.0609,6.8672,6.6842,0.0,0.0,0.0,0.0,6.9336,7.0848,7.2183,7.3241,7.3935,7.3764,7.3473,7.3214,7.2279,7.1164,6.9971,6.8128,6.6475,6.499,6.3132,0.0,0.0,0.0,0.0,0.0,0.0,0.0,0.0,0.0,0.0,0.0,0.0,0.0,0.0,0.0,0.0,0.0,0.0,0.0,6.1002,6.1929,6.2775,0.0,0.0,0.0,0.0,0.0,0.0,0.0,0.0,0.0,6.8672,6.8729,6.9187,0.0,0.0,7.0522,7.0564,7.0571,7.0577,7.0662,7.0866,0.0,7.1798,7.141,7.1383,7.2173,7.2679,7.2732,7.1983,7.1933,7.1662,7.0637,7.0419,7.012,6.9302,6.817,6.7244,6.6853,6.5914,6.5182,6.4923,6.4104,6.3136,7.142,6.9841,6.8313,6.8179,6.9112,6.9483,7.0109,7.0888,7.0989,7.0763,7.0338,7.0156,6.9649,6.884,6.913,0.0,0.0,0.0,7.3328,7.4652,7.5695,7.635,7.6616,7.6969,7.665,7.5942,7.5359,7.494,7.4589,7.3587,7.2309,7.0714,0.0,6.8946,6.8884,7.0019,7.0993,7.1755,7.2962,7.374,7.4171,7.4153,7.4019,7.3833,7.3505,7.2894,7.1967,7.0254,6.88,6.7658,6.5324,6.3978,0.0,0.0,0.0,0.0,0.0,0.0,0.0,0.0,0.0,0.0,0.0,6.1169,6.1086,0.0,0.0,0.0,6.2074,6.2374,6.2674,6.3506,0.0,0.0,0.0,0.0,0.0,0.0,0.0,6.854,6.9759,7.08,7.1459,7.1499,7.1664,7.2266,7.1887,7.1687,7.2095,0.0,7.1838,7.2131,7.2411,7.2757,7.3176,7.287,7.2828,7.3923,7.3353,7.3069,7.3138,7.2621,7.1827,7.1205,7.0803,7.0401,6.988,6.9325,6.8741,6.8179,6.7638,6.7152,6.6723,6.5886,6.5012,7.419,7.3815,7.1194,7.0764,7.1771,7.1722,7.2084,7.2589,7.2864,7.315,7.3522,7.3259,7.2958,7.263,7.1994,0.0,7.3326,7.4849,7.5797,7.6123,7.7464,7.7653,7.7009,7.7604,7.7502,7.684,7.6792,7.642,7.5709,7.547,7.5037,7.4363,7.2123,7.0804,7.0556,7.1823,7.2459,7.2315,7.3525,7.4221,7.4221,7.4473,7.4573,7.4573,7.4803,7.4337,7.3177,7.1993,7.0861,6.9827,6.7388,6.6045,6.6129,0.0,0.0,0.0,0.0,0.0,0.0,0.0,0.0,0.0,0.0,0.0,0.0,0.0,0.0,6.2948,6.3793,0.0,6.5134,6.531,0.0,0.0,0.0,6.7087,6.8529,6.8841,6.9513,7.086,0.0,0.0,7.3137,7.362,7.3882,7.3638,7.2778,7.2697,7.4023,7.3138,7.2583,7.3239,7.3474,7.3523,7.3674,7.403,7.448,7.4815,7.3564,7.2882,7.3741,7.2439,7.1206,7.1206,7.0771,7.0249,6.9933,6.9875,6.9672,6.9123,6.8713,6.8238,6.7699,6.703,6.6414,7.5172,7.4911,7.4054,7.3622,7.3338,7.3109,7.3589,7.4335,7.427,7.4134,7.4071,7.4167,7.4458,7.4923,7.5378,7.6131,7.7068,7.7865,7.8571,7.9084,7.8564,7.8312,7.8218,7.7493,7.6855,7.6286,7.6076,7.5879,7.5709,7.5662,7.5512,7.5344,7.4756,7.3979,7.3079,7.3365,7.38,7.4286,7.4456,7.4423,7.4221,7.4506,7.4573,7.4573,7.4253,7.3949,7.3636,7.2248,7.1145,7.033,6.8639,6.7212,6.6239,6.5091,0.0,0.0,0.0,0.0,0.0,0.0,0.0,0.0,0.0,6.2698,6.3258,0.0,6.3961,0.0,6.5737,6.634,6.6005,6.7117,0.0,0.0,6.912,6.9826,7.1278,7.1526,7.1661,7.1965,7.2674,7.3418,7.4161,7.4161,7.4354,7.4761,7.437,7.4057,7.4188,7.3988,7.3787,7.3935,7.3825,7.3881,7.4353,7.4722,7.4832,7.4665,7.4075,7.3627,7.3435,7.2572,7.1759,7.133,7.094,7.0676,7.0589,7.0363,7.0161,6.9933,6.9356,6.8772,6.8595,6.8059,6.7548,7.6542,7.5976,7.5766,7.5433,7.4981,7.45,7.46,7.5018,7.5067,7.4993,7.4877,7.5349,7.5846,7.6244,7.717,7.8018,7.8913,7.9499,7.9818,7.9852,7.944,7.8934,7.8345,7.7591,7.6958,7.6598,7.6116,7.5974,7.6217,7.6251,7.6434,7.6883,7.6578,7.6231,7.5875,7.5329,7.5048,7.5018,7.487,7.4672,7.4573,7.4821,7.4919,7.4886,7.4426,7.4119,7.3941,7.2707,7.1732,7.1157,6.9838,6.8617,6.755,6.6516,6.5825,0.0,0.0,0.0,0.0,0.0,0.0,0.0,0.0,0.0,0.0,0.0,6.5834,6.7247,6.8122,6.8695,6.8964,6.976,7.0659,7.1367,7.1559,7.2124,7.3274,7.3375,7.351,7.3815,7.4221,7.4627,7.5033,7.4924,7.495,7.5258,7.5115,7.4771,7.4423,7.4272,7.4221,7.4171,7.407,7.41,7.453,7.4478,7.4522,7.4571,7.4053,7.3468,7.3241,7.2655,7.1917,7.1488,7.1258,7.1092,7.1013,7.0813,7.0701,7.0476,6.999,6.953,6.9356,6.883,6.8298,7.7631,7.6758,7.653,7.6433,7.6332,7.5691,7.5378,7.5286,7.5677,7.5817,7.5892,7.6553,7.6907,7.7045,7.8109,7.9039,7.9753,8.0477,8.0431,7.9844,8.0128,7.9587,7.8316,7.7831,7.7528,7.7407,7.6577,7.6469,7.7126,7.6956,7.7406,7.8394,7.7577,7.7543,7.8306,7.7261,7.6215,7.5234,7.5301,7.5252,7.5152,7.5347,7.546,7.5426,7.4823,7.4364,7.406,7.2899,7.2168,7.1951,7.0816,6.9979,6.9335,6.8192,6.757,0.0,6.7168,0.0,0.0,0.0,0.0,0.0,0.0,0.0,0.0,6.7049,6.8421,7.0341,7.0612,7.1187,7.2474,7.2563,7.2834,7.3544,7.3646,7.3916,7.4627,7.4762,7.4999,7.5608,7.5676,7.5676,7.5676,7.5676,7.558,7.5422,7.5325,7.5131,7.4771,7.4473,7.4322,7.4322,7.4322,7.4355,7.4288,7.4085,7.4163,7.4488,7.3894,7.318,7.3468,7.2757,7.2046,7.1775,7.1666,7.1589,7.1314,7.1258,7.1148,7.0869,7.0589,7.0275,6.9933,6.9414,6.9065,7.707,7.6266,7.6184,7.6184,7.615,7.625,7.6468,7.6659,7.6592,7.6525,7.6603,7.6976,7.7489,7.8189,7.9356,8.0175,8.0755,8.147,8.1654,8.1362,8.0609,8.0231,8.0027,7.8404,7.799,7.861,7.7191,7.7119,7.8402,7.7174,7.7417,7.8884,7.7547,7.7331,7.8236,0.0,0.0,0.0,7.6824,7.6725,7.5956,7.6169,7.6234,7.6249,7.4587,0.0,7.3599,7.2247,7.156,7.1671,7.09,0.0,0.0,0.0,0.0,0.0,0.0,0.0,0.0,0.0,0.0,0.0,6.9788,6.974,6.991,7.1104,7.2049,7.2314,7.2847,7.3323,7.3595,7.3446,7.3578,7.4289,7.439,7.4695,7.5371,7.5473,7.5574,7.5676,7.5676,7.5676,7.5676,7.5676,7.5676,7.5614,7.547,7.5277,7.5179,7.4968,7.487,7.487,7.4821,7.4771,7.4523,7.4456,7.4355,7.4286,7.3998,7.3675,7.367,7.3188,7.2688,7.2401,7.2068,7.1884,7.1557,7.1502,7.1479,7.1203,7.1037,7.0869,7.0363,6.9901,6.9646,7.7502,7.7176,7.6802,7.6666,0.0,7.6773,7.7086,7.7429,7.6723,7.6478,7.6679,7.7045,7.7727,7.8622,7.9201,7.9879,8.0603,8.1159,8.1153,8.081,8.081,8.054,8.0005,7.9015,7.851,7.8475,7.7377,7.7479,7.8661,7.7822,7.8384,8.0347,7.858,7.8338,7.9545,7.8959,7.8152,7.7052,7.7052,7.6787,7.6352,7.6657,7.6739,7.6476,7.5391,0.0,0.0,0.0,0.0,0.0,0.0,0.0,0.0,7.1614,0.0,7.1022,7.1538,7.1521,7.0862,7.1798,7.2202,7.1739,7.2785,7.3033,7.2063,7.3054,7.3785,7.4071,7.4446,7.4775,7.515,7.5058,7.509,7.5289,7.5357,7.5479,7.5689,7.5676,7.5676,7.5676,7.5676,7.5676,7.5676,7.5676,7.5676,7.5676,7.5614,7.5518,7.547,7.5179,7.5018,7.5051,7.5051,7.4968,7.4854,7.4771,7.4771,7.4622,7.4473,7.4322,7.4171,7.3884,7.3544,7.3214,7.2952,7.2709,7.2315,7.2154,7.1938,7.1666,7.1447,7.1258,7.0813,7.0419,7.0047,7.7949,7.7904,7.7373,7.7148,7.7229,7.7195,7.7394,7.7711,7.672,0.0,0.0,7.7123,7.793,7.894,7.9051,7.9668,8.0669,8.0906,8.0726,8.0241,8.0995,8.0772,7.9707,7.9431,7.8959,7.8271,7.7592,7.7846,7.8897,7.8535,7.9488,8.1343,7.9945,7.9585,8.0546,7.9948,7.8936,7.7697,7.7181,7.6951,7.6951,7.7345,7.7345,7.6951,7.6539,7.572,7.458,7.3792,7.3273,7.2829,7.2837,7.2965,7.3184,7.3386,7.3268,7.2719,7.3375,7.3281,7.2131,7.3856,7.4647,7.3712,7.5232,7.548,7.3645,7.434,7.5025,7.5595,7.5629,7.5903,7.6473,7.6541,7.6402,7.6122,7.6122,7.5994,7.5757,7.5676,7.5676,7.5676,7.5676,7.5676,7.5676,7.5676,7.5676,7.5676,7.5709,7.5676,7.5662,7.5373,7.5164,7.5164,7.5213,7.5164,7.5067,7.5067,7.5067,7.4968,7.4968,7.4919,7.4688,7.4589,7.4389,7.3935,7.38,7.3595,7.3181,7.292,7.2688,7.239,7.2068,7.1775,7.1447,7.1005,7.0613,7.7101,7.6756,7.685,7.6965,7.7215,7.7215,7.725,7.7308,7.7306,7.7289,7.7362,7.7688,7.8606,8.0016,8.0421,8.1304,8.2496,8.2544,8.228,8.1757,8.1297,8.0859,8.0396,7.9155,7.8901,7.9383,7.7969,7.8162,7.9713,7.9113,7.9699,8.1379,8.0805,8.0107,7.9723,8.0133,7.9582,7.7919,7.8443,7.8772,7.8772,7.8794,7.8794,7.8703,7.7652,7.6641,7.5859,7.5076,7.4714,7.486,7.486,7.4953,7.5199,7.5408,7.5532,7.5428,7.5703,7.579,7.5544,7.5732,7.5945,7.6257,7.652,7.6331,7.5465,7.6242,7.6768,7.6622,7.6576,7.6645,7.6748,7.6633,7.6402,7.6169,7.6122,7.6028,7.5757,7.5723,7.5723,7.5723,7.5676,7.5676,7.5757,7.5709,7.5676,7.5676,7.5676,7.5676,7.5676,7.5662,7.5614,7.5614,7.5614,7.5518,7.5325,7.5277,7.5179,7.5018,7.5018,7.5067,7.4968,7.4935,7.4787,7.4489,7.4389,7.4256,7.3953,7.3902,7.3698,7.3408,7.3181,7.2867,7.2337,7.196,7.1525,7.6807,7.7007,7.6908,7.6964,7.7223,7.7357,7.749,7.7579,7.7668,7.7627,7.7547,7.7771,7.8607,7.974,7.9982,8.0737,8.1781,8.1505,8.132,8.1158,8.0467,7.9925,7.9545,7.8888,7.8805,7.9138,7.8692,7.9232,8.0643,8.0184,8.0735,8.2232,8.169,8.1042,8.0298,8.0543,8.015,7.8936,7.9074,7.8899,7.8439,7.8728,7.8763,7.8439,7.8138,7.7525,7.6513,7.6132,7.5844,7.5708,7.5673,7.5931,7.6524,7.6718,7.676,7.676,7.6807,7.6713,7.6292,7.6473,7.6817,7.7345,7.7277,7.7059,7.6538,7.6927,7.7099,7.7009,7.7009,7.7009,7.7009,7.6918,7.6771,7.6507,7.6507,7.6368,7.6182,7.6169,7.6135,7.6135,7.6169,7.6122,7.5947,7.5899,7.5852,7.5757,7.5709,7.5676,7.5676,7.5676,7.5676,7.5676,7.5676,7.5662,7.5566,7.5518,7.547,7.5373,7.5373,7.5373,7.5373,7.5373,7.5228,7.5033,7.4902,7.4837,7.4639,7.4439,7.4256,7.4155,7.3902,7.3595,7.3201,7.2814,7.2176,7.6663,7.734,7.7068,7.7054,7.7313,7.749,7.7754,7.798,7.798,7.7893,7.7807,7.7937,7.8562,7.946,7.9664,8.0257,8.0927,8.0674,8.0534,8.0605,7.9741,7.9106,7.8767,7.8549,7.8593,7.8831,7.899,7.9705,8.0866,8.071,8.1323,8.2566,8.2453,8.1945,8.1207,8.1348,8.0891,7.9873,7.96,7.9103,7.8293,7.8588,7.8622,7.832,7.872,7.8372,7.7298,7.7229,7.7034,7.6642,7.6572,7.6935,7.7585,7.7696,7.7696,7.7738,7.7661,7.7415,7.6924,7.718,7.7607,7.7996,7.7885,7.7667,7.749,7.7357,7.7268,7.7223,7.7178,7.7178,7.7178,7.7178,7.7054,7.6839,7.6793,7.6691,7.6541,7.6495,7.6495,7.6495,7.6495,7.6402,7.6169,7.6169,7.6122,7.5852,7.5757,7.5709,7.5676,7.5676,7.5676,7.5676,7.5676,7.5676,7.5676,7.5676,7.5676,7.5676,7.5676,7.5628,7.5662,7.5676,7.5614,7.5422,7.5373,7.5325,7.5164,7.4984,7.4837,7.4754,7.4605,7.4306,7.3953,7.3544,7.2664,7.6621,7.6896,7.7078,7.7313,7.7535,7.7579,7.7876,7.8229,7.8272,7.8357,7.8448,7.8357,7.8777,7.9795,8.0411,8.1016,8.1548,8.1574,8.1359,8.1005,7.9753,7.9102,7.8849,7.8117,7.8249,7.9077,7.8441,7.8781,8.0096,7.98,8.043,8.2076,8.2787,8.2682,8.212,8.2612,8.1909,7.9873,8.0427,8.0263,7.9312,7.913,7.9164,7.9277,7.9519,7.9297,7.8385,7.8427,7.8392,7.8399,7.8287,7.8399,7.8469,7.8469,7.8594,7.8723,7.8558,7.8434,7.8363,7.8434,7.8427,7.8532,7.8314,7.8186,7.8143,7.7798,7.7446,7.7268,7.7223,7.7223,7.7223,7.7223,7.7133,7.6884,7.6873,7.6702,7.6587,7.6495,7.6495,7.6495,7.6541,7.6402,7.6262,7.6309,7.6356,7.6122,7.5899,7.5805,7.5757,7.5723,7.5709,7.5676,7.5676,7.5676,7.5676,7.5676,7.5676,7.5676,7.5676,7.5676,7.5676,7.5676,7.5628,7.5614,7.5662,7.5614,7.5614,7.558,7.5532,7.5422,7.5228,7.5033,7.4556,7.4206,7.3346,7.6599,7.6793,7.7088,7.7446,7.7754,7.7798,7.8058,7.8448,7.8357,7.8399,7.8532,7.8399,7.8574,7.9136,7.9908,8.0392,8.0586,8.0586,8.0543,8.0308,7.9164,7.8597,7.8519,7.8232,7.8728,8.002,7.9731,8.0106,8.0918,8.0595,8.091,8.198,8.2401,8.2366,8.212,8.2401,8.1839,8.0505,8.0166,7.9667,7.9044,7.8854,7.8854,7.8939,7.9023,7.896,7.8609,7.8574,7.8574,7.8574,7.8574,7.8574,7.8574,7.8699,7.8823,7.8906,7.8823,7.8782,7.8747,7.8657,7.8532,7.8441,7.8357,7.8229,7.8101,7.7885,7.771,7.7623,7.7357,7.7313,7.7535,7.7357,7.7223,7.7189,7.7144,7.7009,7.6953,7.6907,7.6907,7.6907,7.6907,7.6816,7.6553,7.6495,7.6449,7.6356,7.6216,7.6088,7.5947,7.5899,7.5852,7.5757,7.5676,7.5676,7.5676,7.5676,7.5676,7.5676,7.5676,7.5676,7.5676,7.5676,7.5676,7.5676,7.5676,7.5676,7.5676,7.5676,7.5676,7.5662,7.5662,7.5422,7.5,7.4852,7.424,7.6645,7.6884,7.6892,7.71,7.7494,7.7494,7.7752,7.8168,7.8252,7.8399,7.8574,7.8441,7.8483,7.8715,7.9417,7.976,7.9683,7.9683,7.9718,7.9613,7.8707,7.8349,7.8357,7.8314,7.9014,8.0185,8.0158,8.0454,8.1067,8.0856,8.0891,8.1418,8.1664,8.1769,8.1769,8.1734,8.1383,8.0646,7.9878,7.9212,7.8715,7.8574,7.8574,7.8574,7.8574,7.8574,7.8574,7.8574,7.8574,7.8574,7.8574,7.8574,7.8574,7.8741,7.8864,7.8906,7.8952,7.8952,7.887,7.8699,7.8532,7.8399,7.8399,7.8314,7.8109,7.8023,7.8023,7.8066,7.7667,7.7579,7.7676,7.7544,7.749,7.7535,7.7402,7.7313,7.7313,7.7268,7.7178,7.7223,7.7133,7.7133,7.6918,7.6691,7.6495,7.6587,7.6541,7.6449,7.6262,7.6216,7.6169,7.5947,7.5947,7.5852,7.5723,7.5676,7.5676,7.5676,7.5676,7.5676,7.5676,7.5676,7.5676,7.5676,7.5676,7.5676,7.5676,7.5676,7.5676,7.5676,7.5709,7.5662,7.5388,7.5422,7.5228,7.6771,7.7075,7.6464,7.6321,7.647,7.647,7.6772,7.7342,7.7922,7.8364,7.8574,7.8574,7.8574,7.8644,7.9382,7.964,7.9433,7.9398,7.9363,7.9294,7.8664,7.8399,7.8574,7.8399,7.8854,7.9753,7.9177,7.8862,7.903,7.9522,7.9838,7.9978,8.0646,8.0961,8.0961,8.0961,8.061,7.9978,7.9768,7.9382,7.8679,7.8574,7.8574,7.8574,7.8574,7.8574,7.8616,7.8574,7.8574,7.8574,7.8574,7.8574,7.8574,7.8616,7.8741,7.8906,7.911,7.9074,7.887,7.8699,7.8574,7.8539,7.8532,7.8574,7.849,7.8357,7.8357,7.8532,7.8143,7.7807,7.7667,7.7754,7.7754,7.7623,7.7613,7.7613,7.7569,7.7402,7.7223,7.7223,7.7268,7.7223,7.7178,7.6771,7.6679,7.6736,7.6645,7.6495,7.6495,7.6495,7.6449,7.6449,7.6402,7.6275,7.5852,7.5805,7.5805,7.5805,7.5852,7.5723,7.5676,7.5676,7.5676,7.5723,7.5805,7.5805,7.5723,7.5676,7.5723,7.5723,7.5723,7.5676,7.558,7.5628,7.5484,7.6771,7.7109,7.643,7.6339,7.6582,7.6002,7.6292,7.7285,7.7313,7.7732,7.8329,7.8399,7.8399,7.8434,7.8848,7.8988,7.8869,7.8869,7.8869,7.8834,7.8588,7.8525,7.8574,7.8525,7.8946,7.9662,7.9402,7.9542,7.9943,7.9417,7.9276,7.9768,8.0049,8.0189,8.0189,8.0189,8.0049,7.9768,7.9311,7.8855,7.8609,7.8574,7.8574,7.8574,7.8574,7.8657,7.8782,7.8657,7.8657,7.8782,7.8657,7.8574,7.8616,7.8823,7.9069,7.9307,7.9231,7.8898,7.8341,7.8418,7.8328,7.7942,7.8328,7.8574,7.8574,7.8525,7.8525,7.8567,7.8448,7.8194,7.785,7.785,7.7885,7.7807,7.7798,7.7798,7.7798,7.7676,7.7632,7.7632,7.7535,7.7446,7.7357,7.7133,7.6998,7.7009,7.6998,7.6828,7.6736,7.6691,7.6645,7.6541,7.6495,7.6449,7.6309,7.6182,7.6182,7.6135,7.6135,7.6135,7.6088,7.5994,7.5994,7.6088,7.6135,7.6088,7.6088,7.6088,7.6088,7.5947,7.5947,7.5899,7.5757,7.5757,7.5676,7.6907,7.7075,7.643,7.6166,7.6234,7.55,7.5643,7.646,7.6613,7.7101,7.776,7.8124,7.8307,7.8314,7.8525,7.8574,7.8574,7.8574,7.8574,7.8574,7.8574,7.8574,7.8574,7.8574,7.8855,7.9311,7.9382,7.9698,8.0014,7.9101,7.8925,7.9382,7.9417,7.9382,7.9417,7.9382,7.9417,7.9276,7.8855,7.8574,7.8574,7.8574,7.8574,7.8574,7.8574,7.8657,7.8823,7.8657,7.8657,7.8782,7.8657,7.8616,7.8741,7.9028,7.9311,7.9507,7.9427,7.9094,7.8509,7.8623,7.8536,7.8078,7.8383,7.8699,7.8699,7.8616,7.8574,7.8574,7.8574,7.8406,7.8186,7.8066,7.8066,7.7937,7.798,7.8058,7.8058,7.7937,7.7928,7.7885,7.7798,7.7667,7.7613,7.7402,7.7313,7.7223,7.7223,7.7099,7.6964,7.6918,7.6873,7.6771,7.6771,7.6771,7.6725,7.6725,7.6541,7.6449,7.6356,7.6402,7.6436,7.6309,7.6309,7.6449,7.6495,7.6495,7.6495,7.6495,7.6402,7.6297,7.6216,7.6135,7.5994,7.5852,7.5805,7.7109,7.6982,7.6395,7.5699,7.5326,7.4904,7.4687,7.4935,7.5906,7.6573,7.7031,7.7872,7.8272,7.8314,7.849,7.8574,7.8574,7.8574,7.8574,7.8574,7.8574,7.8574,7.8574,7.8574,7.8609,7.8679,7.8644,7.8644,7.875,7.8644,7.8644,7.8609,7.8679,7.875,7.8644,7.8679,7.8644,7.8644,7.8609,7.8574,7.8574,7.8574,7.8574,7.8574,7.8574,7.8616,7.8616,7.8574,7.8616,7.8616,7.8616,7.8699,7.8864,7.911,7.9311,7.9507,7.9582,7.9546,7.9436,7.92,7.9115,7.8857,7.8917,7.8864,7.8823,7.8699,7.8574,7.8574,7.8574,7.849,7.8357,7.8441,7.8399,7.8023,7.8143,7.8272,7.8272,7.8101,7.7893,7.7937,7.7937,7.7841,7.7667,7.7579,7.749,7.7313,7.7268,7.7223,7.7178,7.7133,7.7178,7.7178,7.7088,7.7043,7.7088,7.7178,7.6907,7.6679,7.6587,7.6541,7.6702,7.669,7.6724,7.6816,7.6725,7.6725,7.6794,7.6794,7.6736,7.6644,7.6563,7.6505,7.6262,7.6109,7.6015,7.5942,7.5524,7.4809,7.461,7.4629,7.3772,7.3837,7.4717,7.5393,7.5959,7.6678,7.7787,7.8186,7.8143,7.8406,7.8574,7.8574,7.8574,7.8574,7.8574,7.8574,7.8574,7.8609,7.8574,7.8574,7.8574,7.8574,7.8574,7.8574,7.8574,7.8574,7.8574,7.8574,7.8574,7.8574,7.8574,7.8574,7.8574,7.8574,7.8574,7.8574,7.8574,7.8574,7.8574,7.8574,7.8574,7.8574,7.8574,7.8657,7.8782,7.8657,7.8699,7.8906,7.911,7.9231,7.9347,7.9507,7.9258,7.8749,7.8988,7.8903,7.8499,7.8629,7.8788,7.8699,7.8651,7.8574,7.8574,7.8574,7.8525,7.8399,7.8483,7.8483,7.8186,7.8399,7.849,7.8483,7.8441,7.8364,7.8364,7.8272,7.8143,7.8058,7.7928,7.771,7.749,7.7446,7.7402,7.7268,7.7223,7.7178,7.7178,7.7223,7.7223,7.7223,7.7223,7.7043,7.6907,7.6782,7.6736,7.6885,7.7194,7.7194,7.724,7.7114,7.7045,7.7125,7.7079,7.7068,7.7297,7.7422,7.7147,7.6619,7.6548,7.6739,7.5554,7.5248,7.4533,7.4264,7.4281,7.3461,7.3483,7.4204,7.4884,7.544,7.608,7.7389,7.8015,7.798,7.8314,7.849,7.8574,7.8574,7.8574,7.8574,7.8574,7.8715,7.896,7.903,7.903,7.896,7.8715,7.8574,7.8574,7.8574,7.8574,7.8574,7.8574,7.8574,7.8574,7.8574,7.8574,7.8574,7.8574,7.8574,7.8574,7.8574,7.8574,7.8574,7.8574,7.8574,7.8574,7.8574,7.8657,7.8741,7.8657,7.8699,7.8906,7.9028,7.915,7.9231,7.9311,7.9139,7.8629,7.8983,7.8973,7.8499,7.8664,7.8864,7.8741,7.8657,7.8574,7.8574,7.8574,7.8567,7.8483,7.8525,7.8567,7.8441,7.849,7.8574,7.8574,7.8574,7.8574,7.8532,7.8483,7.8399,7.8272,7.8186,7.7971,7.7754,7.771,7.7623,7.7402,7.7357,7.7313,7.7268,7.7223,7.7223,7.7223,7.7223,7.7223,7.7133,7.7009,7.7043,7.7078,7.7663,7.7938,7.8076,7.8087,7.7777,7.7777,7.7547,7.7433,7.78,7.8018,7.7789,7.741,7.7844,7.7955,7.5795,7.58,7.511,7.4455,7.4002,7.3729,7.3426,7.331,7.4378,7.4981,7.5335,7.6911,7.7754,7.7928,7.8186,7.8399,7.8532,7.8532,7.8574,7.8609,7.8756,7.922,7.9852,7.9817,7.967,7.9592,7.8925,7.8609,7.8574,7.8574,7.8574,7.8574,7.8574,7.8574,7.8574,7.8574,7.8574,7.8574,7.8574,7.8574,7.8574,7.8574,7.8574,7.8574,7.8574,7.8574,7.8574,7.8574,7.8574,7.8616,7.8616,7.8657,7.8864,7.887,7.9028,7.915,7.9191,7.9196,7.9155,7.912,7.9155,7.9004,7.8882,7.887,7.8823,7.8657,7.8574,7.8574,7.8574,7.8574,7.8574,7.8574,7.8574,7.8574,7.8574,7.8574,7.8574,7.8574,7.8574,7.8574,7.8574,7.8567,7.8357,7.8314,7.8186,7.8015,7.7893,7.7841,7.7667,7.7579,7.7446,7.7402,7.7313,7.7223,7.7223,7.7223,7.7223,7.7178,7.7133,7.7213,7.7351,7.7937,7.8764,7.8902,7.8913,7.8603,7.8396,7.8223,7.7879,7.7822,7.7984,7.8156,7.8443,7.8797,7.8875,7.46,7.3378,7.3861,7.3764,7.331,7.3073,7.3004,7.3171,7.4378,7.4869,7.5301,7.6789,7.771,7.7893,7.8015,7.8194,7.8448,7.8441,7.8483,7.8721,7.9374,8.0126,8.0619,8.0302,7.9972,7.9705,7.8995,7.8574,7.8574,7.8574,7.8574,7.8574,7.8574,7.8574,7.8574,7.8574,7.8574,7.8574,7.8574,7.8574,7.8574,7.8574,7.8574,7.8574,7.8574,7.8574,7.8574,7.8574,7.8574,7.8574,7.8574,7.8616,7.8699,7.8823,7.8911,7.8987,7.911,7.9191,7.9191,7.9191,7.915,7.8952,7.8911,7.8864,7.8699,7.8616,7.8574,7.8574,7.8574,7.8574,7.8574,7.8574,7.8574,7.8574,7.8574,7.8574,7.8574,7.8574,7.8574,7.8574,7.8574,7.8532,7.8525,7.8483,7.8441,7.8272,7.8186,7.8101,7.7928,7.7841,7.7754,7.7579,7.749,7.7357,7.7268,7.7223,7.7223,7.7223,7.7247,7.7316,7.7558,7.804,7.9005,7.9844,7.9534,7.9258,7.9189,7.9051,7.8637,7.8154,7.9178,7.9855,7.9591,7.9636,7.9612,7.4237,7.3257,7.331,7.3169,7.2873,7.2755,7.2755,7.315,7.43,7.4869,7.5292,7.6701,7.7535,7.7754,7.7798,7.8058,7.8441,7.8357,7.8399,7.8715,7.9592,8.0492,8.0986,8.0739,8.0296,7.974,7.896,7.8609,7.8574,7.8574,7.8574,7.8574,7.8574,7.8574,7.8574,7.8574,7.8567,7.8483,7.8448,7.8441,7.8322,7.8279,7.8279,7.8322,7.8399,7.849,7.8574,7.8574,7.8574,7.8574,7.8574,7.8574,7.8616,7.8699,7.8782,7.8782,7.8906,7.8947,7.8947,7.8947,7.8906,7.8782,7.8782,7.8699,7.8616,7.8574,7.8574,7.8574,7.8574,7.8574,7.8574,7.8574,7.8574,7.8574,7.8574,7.8574,7.8574,7.8525,7.8483,7.8483,7.8483,7.8483,7.8483,7.8567,7.8567,7.8448,7.8406,7.8314,7.8143,7.8101,7.8015,7.7841,7.778,7.7727,7.7673,7.7619,7.7886,7.7886,7.8131,7.8096,7.8258,7.8672,7.9672,8.0465,8.0189,7.9948,7.9844,7.9672,7.9293,7.9431,8.0707,8.0983,8.05,8.0431,8.0372,7.4398,7.4356,7.3344,7.2809,7.2747,7.2671,7.2713,7.2989,7.4292,7.4869,7.5257,7.6533,7.7367,7.7623,7.7667,7.7885,7.8314,7.8314,7.8588,7.9002,7.9739,8.0527,8.1204,8.1028,8.0472,7.9775,7.896,7.8644,7.8574,7.8574,7.8574,7.8574,7.8574,7.8574,7.8574,7.8574,7.8483,7.8357,7.8314,7.8229,7.8023,7.798,7.8015,7.8058,7.8229,7.8441,7.8532,7.8574,7.8574,7.8574,7.8574,7.8574,7.8609,7.8616,7.8616,7.8616,7.8657,7.8657,7.8616,7.8657,7.8616,7.8616,7.8616,7.8574,7.8567,7.8532,7.8574,7.8532,7.8574,7.8574,7.8644,7.8715,7.8925,7.8925,7.8785,7.875,7.8743,7.8546,7.8349,7.8454,7.8497,7.8454,7.8567,7.8659,7.875,7.8953,7.8771,7.8483,7.8357,7.8314,7.8186,7.8015,7.8076,7.8137,7.8119,7.8067,7.8464,7.8801,7.9268,7.9465,7.9523,7.9971,8.0754,8.1121,8.0879,8.0638,8.0396,8.0155,7.9913,8.0017,8.0845,8.0914,8.081,8.1086,8.1211,7.5037,7.3484,7.4153,7.374,7.2774,7.2671,7.2671,7.2843,7.4292,7.4903,7.5248,7.6523,7.7411,7.7841,7.771,7.7928,7.8406,7.8434,7.8764,7.9774,7.9922,8.0527,8.095,8.0633,8.0155,7.9635,7.896,7.8609,7.8574,7.8574,7.8574,7.8574,7.8574,7.8574,7.8574,7.8574,7.8525,7.8314,7.8272,7.8143,7.7893,7.785,7.785,7.7893,7.8143,7.8399,7.8532,7.8574,7.8574,7.8574,7.8574,7.8574,7.8574,7.8574,7.8574,7.8574,7.8574,7.8574,7.8574,7.8574,7.8574,7.8574,7.8532,7.8567,7.8399,7.8525,7.8525,7.8441,7.8525,7.8609,7.875,7.9768,7.9908,7.9627,7.9557,7.9768,8.0049,7.9269,7.8841,7.9227,7.9367,7.9648,8.0104,7.955,7.9452,7.9417,7.9066,7.8679,7.8567,7.8525,7.8399,7.8229,7.8605,7.8815,7.8859,7.8981,7.952,7.9848,8.0292,8.0686,8.0744,8.072,8.1343,8.1594,8.1638,8.1328,8.0961,8.1086,8.0983,8.0983,8.0914,8.1155,8.1397,8.1741,8.1776,7.4513,7.3157,7.3662,7.3429,7.274,7.2671,7.292,7.336,7.4395,7.5154,7.5671,7.6829,7.7535,7.7754,7.7754,7.8015,7.8357,7.8483,7.8743,7.9303,7.9374,7.9585,7.9873,7.9732,7.9473,7.9557,7.896,7.8609,7.8574,7.8574,7.8574,7.8574,7.8574,7.8574,7.8574,7.8574,7.8483,7.8314,7.8143,7.8015,7.7798,7.7667,7.7719,7.785,7.8023,7.8272,7.8532,7.8574,7.8574,7.8574,7.8574,7.8574,7.8574,7.8574,7.8574,7.8574,7.8574,7.8574,7.8574,7.8574,7.8567,7.8483,7.8483,7.8399,7.8314,7.8399,7.8483,7.8483,7.856,7.8715,7.9136,7.9698,8.0189,8.0435,8.033,8.054,8.0567,7.9507,7.8721,7.9325,7.9212,7.9492,7.9632,7.976,7.9698,7.9487,7.896,7.8574,7.8574,7.8532,7.8532,7.8581,7.9177,7.9519,7.9643,8.0002,8.0637,8.0966,8.1283,8.1539,8.1748,8.169,8.1655,8.1804,8.1836,8.1767,8.1538,8.1767,8.1741,8.1535,8.1466,8.1707,8.1776,8.1776,8.1776,7.3762,7.3132,7.2914,7.2816,7.2747,7.2671,7.3084,7.3809,7.443,7.5154,7.6129,7.7075,7.7371,7.7667,7.7885,7.8101,7.8357,7.8525,7.8721,7.8721,7.8756,7.8967,7.9037,7.9002,7.9108,7.9627,7.896,7.8609,7.8574,7.8574,7.8574,7.8574,7.8574,7.8574,7.8574,7.8574,7.8525,7.8272,7.8058,7.7841,7.7623,7.7446,7.7579,7.7893,7.8058,7.8194,7.849,7.8574,7.8574,7.8574,7.8574,7.8574,7.8574,7.8574,7.8574,7.8574,7.8574,7.8574,7.8574,7.8574,7.8567,7.8357,7.8357,7.8314,7.8314,7.8357,7.8441,7.8666,7.8848,7.9382,7.9873,8.0575,8.0786,8.0961,8.1102,8.1137,8.0918,7.9737,7.9379,7.9511,7.9702,7.9843,7.971,7.9613,7.9585,7.9452,7.896,7.8609,7.8609,7.8644,7.8715,7.9094,7.9683,8.0735,8.0999,8.1095,8.1732,8.1853,8.2137,8.2265,8.2429,8.2257,8.2049,8.1967,8.1977,8.1908,8.1861,8.1789,8.1776,8.1776,8.1776,8.1776,8.1776,8.1776,8.1776,7.3851,7.3351,7.3551,7.3257,7.2747,7.2671,7.3127,7.374,7.3981,7.4809,7.6051,7.6521,7.7224,7.7676,7.8101,7.8357,7.842,7.8539,7.8574,7.8574,7.8609,7.882,7.9171,7.882,7.903,7.9382,7.8995,7.8574,7.8574,7.8574,7.8574,7.8574,7.8574,7.8574,7.8574,7.8574,7.849,7.8314,7.8101,7.7841,7.7667,7.7579,7.771,7.8143,7.8186,7.8357,7.849,7.8574,7.8574,7.8574,7.8574,7.8574,7.8574,7.8574,7.8574,7.8574,7.8574,7.8574,7.8574,7.8574,7.8574,7.8567,7.8525,7.8441,7.8357,7.8476,7.8476,7.8827,7.9613,8.0505,8.0716,8.1523,8.212,8.2085,8.1909,8.2085,8.2261,8.1515,8.0454,8.0551,8.0489,8.0279,8.0033,7.9718,7.9515,7.9487,7.9206,7.889,7.8855,7.8925,7.8995,7.9592,8.0294,8.1488,8.2533,8.2568,8.276,8.2645,8.2721,8.2631,8.2726,8.2579,8.2442,8.235,8.2211,8.2118,8.2024,8.1965,8.1871,8.1871,8.1823,8.1776,8.1776,8.1858,8.1776,7.3489,7.3052,7.3145,7.3058,7.2747,7.2671,7.3161,7.3774,7.4223,7.5016,7.6035,7.6816,7.7172,7.7422,7.772,7.7929,7.8006,7.8469,7.8539,7.8574,7.8609,7.8715,7.9171,7.8715,7.882,7.896,7.875,7.8574,7.8574,7.8574,7.8574,7.8574,7.8574,7.8574,7.8574,7.8574,7.8532,7.8399,7.8229,7.8058,7.7928,7.7841,7.7971,7.8186,7.8349,7.8399,7.8532,7.8574,7.8574,7.8574,7.8574,7.8574,7.8574,7.8574,7.8574,7.8574,7.8574,7.8574,7.8574,7.8574,7.849,7.8279,7.8357,7.8314,7.8229,7.8272,7.8651,7.9184,7.9578,8.0681,8.1418,8.2225,8.2541,8.2717,8.2647,8.2822,8.2928,8.2436,8.2015,8.1453,8.0716,8.0392,8.0497,8.0154,7.9627,7.9417,7.9382,7.9311,7.9206,7.9311,7.9487,8.0259,8.0997,8.1953,8.2972,8.3147,8.3253,8.3208,8.3164,8.3075,8.3021,8.2851,8.2851,8.2806,8.2625,8.2533,8.2488,8.2488,8.2292,8.2012,8.2012,8.2012,8.1871,8.1858,8.1871,7.3009,7.2671,7.2671,7.2671,7.2671,7.2671,7.3161,7.3774,7.4188,7.5016,7.6129,7.6687,7.6911,7.6977,7.7167,7.738,7.7345,7.8083,7.8469,7.8328,7.8504,7.8574,7.8574,7.8574,7.8609,7.8679,7.8609,7.8574,7.8574,7.8574,7.8574,7.8574,7.8574,7.8574,7.8574,7.8574,7.8574,7.8532,7.8399,7.8349,7.8229,7.8101,7.8101,7.8314,7.8357,7.8441,7.8574,7.8574,7.8574,7.8574,7.8574,7.8574,7.8574,7.8574,7.8574,7.8574,7.8574,7.8574,7.8574,7.8574,7.8448,7.8237,7.8272,7.8229,7.8299,7.8602,7.9072,7.9795,8.0119,8.0646,8.1734,8.2085,8.2471,8.2963,8.3138,8.3208,8.3173,8.2963,8.2752,8.2015,8.0891,8.0435,8.054,8.0575,8.0049,7.9838,7.9803,8.0084,7.9978,8.0014,8.0294,8.1067,8.1769,8.2445,8.3086,8.3306,8.3376,8.3376,8.3297,8.3288,8.3288,8.3208,8.3244,8.3288,8.3341,8.3253,8.3164,8.2986,8.267,8.2442,8.2303,8.2257,8.2257,8.2245,8.2245,7.2528,7.2713,7.2671,7.2671,7.2713,7.2713,7.3127,7.3679,7.3334,7.4188,7.5888,7.5284,7.5678,7.6593,7.7103,7.6918,7.7029,7.7661,7.8083,7.7802,7.8188,7.8504,7.8574,7.8574,7.8574,7.8574,7.8574,7.8574,7.8574,7.8574,7.8574,7.8574,7.8574,7.8574,7.8574,7.8574,7.8574,7.8532,7.8399,7.8349,7.8314,7.8272,7.8357,7.8525,7.8532,7.8532,7.8574,7.8574,7.8574,7.8574,7.8574,7.8574,7.8574,7.8574,7.8574,7.8574,7.8574,7.8574,7.8574,7.8532,7.8532,7.8364,7.8483,7.849,7.8659,7.9044,7.969,8.0673,8.0751,8.1102,8.1839,8.212,8.2506,8.2892,8.3208,8.3208,8.3208,8.3208,8.3033,8.2892,8.1874,8.0969,8.0513,8.054,8.054,8.0365,8.0294,8.061,8.0856,8.0926,8.0891,8.1558,8.2313,8.2989,8.3209,8.3429,8.3464,8.3508,8.342,8.342,8.342,8.342,8.3709,8.3795,8.3925,8.3995,8.385,8.3552,8.3066,8.2861,8.2726,8.2726,8.2726,8.2681,8.267,7.2713,7.3005,7.2797,7.2755,7.2838,7.2755,7.2927,7.3288,7.3503,7.4099,7.5092,7.5269,7.5729,7.6355,7.6322,7.6187,7.6397,7.7029,7.7415,7.7415,7.7767,7.8188,7.8504,7.8574,7.8574,7.8574,7.8574,7.8574,7.8574,7.8574,7.8574,7.8574,7.8574,7.8574,7.8574,7.8574,7.8574,7.8574,7.8525,7.8448,7.8483,7.8448,7.849,7.8574,7.8574,7.8574,7.8574,7.8574,7.8574,7.8574,7.8574,7.8574,7.8574,7.8574,7.8574,7.8574,7.8574,7.8574,7.8574,7.8364,7.8364,7.8441,7.8476,7.8651,7.9059,7.9206,7.9733,8.0821,8.0891,8.1277,8.198,8.2471,8.2822,8.3103,8.3208,8.3208,8.3208,8.3208,8.3138,8.3033,8.2857,8.1953,8.1188,8.1118,8.111,8.0977,8.1118,8.1496,8.1848,8.2085,8.198,8.1909,8.2673,8.3437,8.3437,8.3551,8.3551,8.3551,8.3385,8.3385,8.3464,8.363,8.3917,8.4372,8.4748,8.4705,8.4471,8.4086,8.3657,8.342,8.3182,8.3138,8.3173,8.3182,8.3173,7.2922,7.3211,7.2838,7.2797,7.2922,7.2755,7.2797,7.3074,7.3559,7.4066,7.4622,7.5212,7.5592,7.5614,7.5304,7.5379,7.5695,7.6116,7.6432,7.6819,7.7275,7.7767,7.8153,7.8363,7.8574,7.8574,7.8574,7.8574,7.8574,7.8574,7.8574,7.8574,7.8574,7.8574,7.8574,7.8574,7.8574,7.8574,7.8525,7.8525,7.8532,7.849,7.8532,7.8574,7.8574,7.8574,7.8574,7.8574,7.8574,7.8574,7.8574,7.8574,7.8574,7.8574,7.8574,7.8574,7.8532,7.8567,7.849,7.8364,7.8229,7.8314,7.8427,7.8764,7.9515,7.9206,7.9346,8.0821,8.0926,8.1313,8.1945,8.2577,8.2857,8.3033,8.3208,8.3208,8.3208,8.3208,8.3208,8.3138,8.3033,8.2972,8.2313,8.1969,8.1758,8.159,8.1907,8.2356,8.2629,8.291,8.2752,8.2515,8.2927,8.3595,8.3682,8.3725,8.3725,8.3717,8.3472,8.3472,8.3638,8.3803,8.4088,8.4649,8.5351,8.5037,8.4562,8.44,8.4244,8.3932,8.3697,8.3611,8.3611,8.3689,8.3733,7.2838,7.3005,7.2797,7.2713,7.2755,7.2713,7.2838,7.3046,7.3116,7.3691,7.446,7.4764,7.4572,7.4337,7.4738,7.4747,7.4361,7.566,7.5765,7.6011,7.6608,7.7275,7.7696,7.8118,7.8539,7.8504,7.8539,7.8574,7.8574,7.8574,7.8574,7.8574,7.8574,7.8574,7.8574,7.8574,7.8574,7.8574,7.8483,7.8483,7.8525,7.8483,7.8441,7.8574,7.8574,7.8574,7.8574,7.8574,7.8574,7.8574,7.8574,7.8574,7.8574,7.8574,7.8574,7.8574,7.8483,7.8525,7.8525,7.8448,7.849,7.8567,7.8637,7.8883,7.9662,7.9733,8.0119,8.0716,8.0891,8.1313,8.1804,8.2225,8.2752,8.2998,8.3208,8.3208,8.3208,8.3208,8.3208,8.3208,8.3182,8.3121,8.3217,8.2803,8.2592,8.2424,8.2693,8.3223,8.312,8.3288,8.3191,8.3121,8.3331,8.3682,8.3861,8.3904,8.3982,8.3982,8.3897,8.3819,8.3904,8.4138,8.4507,8.4989,8.5584,8.5133,8.489,8.5157,8.5138,8.4527,8.4229,8.418,8.4393,8.4691,8.4549,7.2604,7.251,7.2756,7.2963,7.3088,7.3088,7.3211,7.3375,7.3415,7.3676,7.4187,7.4272,7.4417,7.4527,7.4356,7.4572,7.4642,7.4677,7.4958,7.5414,7.6152,7.6643,7.71,7.7767,7.8363,7.8118,7.8293,7.8574,7.8574,7.8574,7.8574,7.8574,7.8574,7.8574,7.8574,7.8574,7.8609,7.8609,7.8525,7.8532,7.8532,7.8532,7.8525,7.8574,7.8574,7.8574,7.8574,7.8574,7.8574,7.8574,7.8574,7.8574,7.8574,7.8574,7.8574,7.8574,7.849,7.849,7.8525,7.8399,7.8237,7.8441,7.856,7.896,7.9698,7.9417,7.9838,8.04,8.0961,8.1383,8.1945,8.2506,8.2998,8.3138,8.3208,8.3208,8.3208,8.3208,8.3208,8.3208,8.3253,8.3262,8.3437,8.3576,8.3434,8.3372,8.3677,8.3861,8.3733,8.3603,8.3472,8.3508,8.3682,8.3768,8.3947,8.4116,8.4278,8.4278,8.4236,8.4194,8.4187,8.4798,8.5166,8.5578,8.5989,8.5995,8.6073,8.6287,8.5888,8.4836,8.4587,8.4694,8.5062,8.5532,8.5377,7.2085,7.1775,7.247,7.2782,7.2864,7.3189,7.3415,7.3537,7.3571,7.3732,7.3931,7.4006,7.4256,7.4501,7.4326,7.4221,7.4466,7.4361,7.4431,7.4993,7.5695,7.6046,7.6608,7.738,7.8258,7.7767,7.8153,7.8574,7.8574,7.8574,7.8574,7.8574,7.8574,7.8574,7.8574,7.8574,7.8679,7.889,7.8637,7.8743,7.889,7.8631,7.8567,7.8574,7.8574,7.8574,7.8574,7.8574,7.8532,7.8532,7.8567,7.8532,7.8532,7.8567,7.8574,7.8574,7.8574,7.8574,7.8525,7.8644,7.8404,7.8511,7.9192,7.9487,7.9557,7.9452,8.0259,8.1102,8.1348,8.1558,8.2296,8.2857,8.3103,8.3208,8.3208,8.3208,8.3208,8.3208,8.3208,8.3208,8.3253,8.3253,8.3429,8.3646,8.3869,8.3805,8.3961,8.4074,8.4025,8.3861,8.3689,8.3768,8.3897,8.3982,8.4032,8.4278,8.4445,8.4445,8.4403,8.4361,8.4539,8.5144,8.5578,8.5769,8.6209,8.6858,8.6751,8.6287,8.5609,8.486,8.4925,8.5246,8.5674,8.6067,8.6144,7.1125,7.0614,7.1746,7.2065,7.2012,7.2904,7.3334,7.3415,7.3415,7.3537,7.3772,7.3931,7.401,7.408,7.4084,7.4115,7.419,7.408,7.4115,7.4466,7.5449,7.566,7.6152,7.6994,7.7942,7.7731,7.8153,7.8574,7.8574,7.8574,7.8574,7.8574,7.8574,7.8574,7.8574,7.8574,7.8995,7.9487,7.8721,7.8939,7.9122,7.8729,7.856,7.8532,7.8574,7.8574,7.8574,7.8574,7.849,7.8399,7.8483,7.8483,7.8314,7.8483,7.8567,7.8567,7.8574,7.8609,7.8679,7.9304,7.9374,7.9129,7.9873,8.0294,8.0119,8.033,8.0891,8.1664,8.1874,8.2296,8.2822,8.3173,8.3208,8.3208,8.3208,8.3208,8.3208,8.3208,8.3208,8.3208,8.3208,8.3253,8.3385,8.3603,8.4074,8.4242,8.432,8.432,8.4236,8.4109,8.3939,8.3982,8.4103,8.4322,8.4407,8.448,8.4569,8.4569,8.4527,8.4486,8.4807,8.5413,8.5781,8.5966,8.6644,8.7465,8.6751,8.5894,8.5645,8.5502,8.5645,8.593,8.6323,8.6715,8.6965,7.0729,7.0341,7.1229,7.1543,7.1713,7.3133,7.3737,7.3772,7.3737,7.3777,7.3891,7.397,7.4088,7.4132,7.4053,7.4088,7.4132,7.4049,7.401,7.415,7.5133,7.4888,7.5309,7.6503,7.7415,7.724,7.7767,7.8574,7.8574,7.8574,7.8574,7.8574,7.8574,7.8574,7.8574,7.8574,7.8785,7.889,7.8673,7.8708,7.896,7.8743,7.8525,7.8574,7.8574,7.8574,7.8574,7.8574,7.8483,7.8314,7.8399,7.8314,7.8143,7.8279,7.8441,7.8441,7.8525,7.889,7.9382,8.0049,8.0435,8.0435,8.0575,8.0926,8.0646,8.0716,8.1313,8.1909,8.2155,8.2577,8.3033,8.3173,8.3208,8.3208,8.3208,8.3208,8.3208,8.3208,8.3208,8.3208,8.3208,8.3297,8.3508,8.3646,8.4032,8.4361,8.4403,8.4445,8.4445,8.432,8.4152,8.4152,8.4307,8.4591,8.4824,8.4878,8.5181,8.5395,8.4997,8.4569,8.5032,8.5859,8.6287,8.668,8.7393,8.8,8.7286,8.668,8.6501,8.643,8.6537,8.6858,8.7358,8.7821,8.8214,7.0088,6.9652,7.0461,7.0853,7.1175,7.2844,7.369,7.3861,7.3935,7.3935,7.3896,7.397,7.4088,7.4128,7.4053,7.4014,7.417,7.4088,7.401,7.4115,7.4747,7.4607,7.4993,7.6116,7.6889,7.6924,7.7696,7.8574,7.8574,7.8574,7.8574,7.8574,7.8574,7.8574,7.8574,7.8574,7.8785,7.8925,7.8925,7.8785,7.8925,7.882,7.8574,7.8574,7.8574,7.8574,7.8574,7.8525,7.8399,7.8272,7.8186,7.8143,7.8066,7.8186,7.8357,7.8483,7.8876,7.9487,8.047,8.0575,8.1067,8.1734,8.1699,8.1558,8.1488,8.1664,8.2015,8.2366,8.2401,8.2682,8.3103,8.3208,8.3244,8.3244,8.3208,8.3208,8.3244,8.3279,8.3208,8.3208,8.3208,8.3376,8.3551,8.3776,8.4032,8.4278,8.448,8.4599,8.4717,8.4593,8.4646,8.4753,8.4788,8.5079,8.5299,8.5383,8.5716,8.6109,8.5716,8.5216,8.5787,8.668,8.7001,8.7322,8.7786,8.8071,8.7893,8.7536,8.7251,8.7251,8.7465,8.7857,8.8392,8.8642,8.8821,6.9285,6.8648,6.9463,7.0043,7.0514,7.2142,7.319,7.3737,7.3931,7.3891,7.3772,7.397,7.4049,7.4014,7.401,7.4049,7.4049,7.4049,7.401,7.415,7.4607,7.4361,7.4888,7.6081,7.6573,7.6994,7.7661,7.8574,7.8574,7.8574,7.8574,7.8574,7.8574,7.8574,7.8574,7.8644,7.889,7.8995,7.889,7.889,7.903,7.889,7.8644,7.8574,7.8574,7.8574,7.8525,7.8441,7.8186,7.8101,7.8101,7.8058,7.8109,7.8357,7.849,7.882,7.9417,8.04,8.1418,8.1313,8.1769,8.2541,8.2892,8.2682,8.2471,8.2506,8.2717,8.2892,8.2963,8.3033,8.3208,8.3244,8.3279,8.3279,8.3244,8.3279,8.3349,8.3314,8.3244,8.3208,8.3208,8.3297,8.3543,8.376,8.4294,8.4578,8.4889,8.524,8.5282,8.5002,8.5169,8.5668,8.5668,8.5674,8.5859,8.6102,8.6394,8.6858,8.668,8.6358,8.6965,8.7286,8.7536,8.7786,8.8036,8.8107,8.7964,8.7929,8.7857,8.7964,8.8071,8.8464,8.8856,8.8607,8.8678,6.9139,6.8965,6.9398,6.9858,7.0599,7.2111,7.3198,7.3861,7.401,7.397,7.3931,7.397,7.4088,7.417,7.4053,7.4092,7.4092,7.4053,7.401,7.415,7.4291,7.4185,7.4747,7.573,7.6257,7.6924,7.7661,7.8574,7.8574,7.8574,7.8574,7.8574,7.8574,7.8574,7.8574,7.8574,7.8785,7.889,7.8715,7.882,7.8925,7.8715,7.8574,7.8574,7.8574,7.8532,7.8399,7.8314,7.8101,7.7798,7.7928,7.7893,7.7754,7.8135,7.8539,7.9382,7.9838,8.04,8.1699,8.1874,8.2155,8.2883,8.3164,8.3173,8.2998,8.3068,8.3244,8.3208,8.3208,8.3208,8.3279,8.3349,8.356,8.3735,8.3735,8.377,8.3805,8.377,8.37,8.363,8.363,8.3674,8.3807,8.4265,8.4765,8.5052,8.5373,8.5756,8.5924,8.568,8.5823,8.6358,8.643,8.6394,8.6787,8.7108,8.7322,8.75,8.7393,8.7251,8.7322,8.7607,8.7964,8.825,8.85,8.8392,8.8107,8.8178,8.8428,8.8357,8.85,8.8892,8.9178,8.8928,8.8821,6.9115,6.9002,6.9505,7.0354,7.1412,7.2079,7.2855,7.3561,7.3909,7.401,7.401,7.401,7.4088,7.4132,7.4014,7.4014,7.4132,7.4088,7.401,7.401,7.401,7.4291,7.4817,7.5625,7.6397,7.7064,7.7767,7.8574,7.8574,7.8574,7.8574,7.8574,7.8574,7.8574,7.8574,7.8574,7.8574,7.8609,7.8574,7.8574,7.8574,7.8574,7.8574,7.8574,7.8574,7.8483,7.8272,7.8229,7.7928,7.7657,7.7754,7.7798,7.7858,7.8466,7.9562,8.0435,8.0821,8.141,8.2199,8.2094,8.2444,8.2865,8.311,8.333,8.3375,8.3454,8.3314,8.3208,8.3208,8.3208,8.3349,8.3489,8.3946,8.4332,8.4367,8.4402,8.4367,8.4367,8.4297,8.4227,8.4227,8.4262,8.4492,8.4916,8.527,8.5603,8.6076,8.6575,8.6702,8.6573,8.6751,8.7215,8.7143,8.7072,8.7536,8.7964,8.8036,8.8214,8.8357,8.8214,8.7964,8.8071,8.8571,8.8821,8.8999,8.8785,8.8571,8.8856,8.907,8.8928,8.8821,8.9114,8.9285,8.9213,8.9142,6.9118,6.8851,6.9736,7.0982,7.2395,7.1868,7.2158,7.3015,7.3491,7.3834,7.3834,7.3975,7.401,7.4049,7.401,7.401,7.4049,7.401,7.401,7.401,7.401,7.4256,7.4853,7.5836,7.6292,7.724,7.8047,7.8574,7.8574,7.8574,7.8574,7.8574,7.8574,7.8574,7.8574,7.8574,7.8574,7.8574,7.8574,7.8574,7.8574,7.8574,7.8574,7.8574,7.8574,7.849,7.8272,7.8058,7.7798,7.7701,7.7657,7.771,7.8398,7.9014,8.0427,8.1304,8.162,8.2094,8.2381,8.2346,8.2372,8.2686,8.2931,8.3311,8.348,8.3981,8.3946,8.3805,8.3876,8.37,8.3735,8.3946,8.4297,8.4683,8.4894,8.5104,8.5385,8.521,8.4929,8.4894,8.4894,8.4929,8.5044,8.5425,8.5957,8.6259,8.6797,8.737,8.7551,8.7536,8.7714,8.8107,8.8,8.8,8.8357,8.8678,8.8678,8.8856,8.8999,8.9035,8.8678,8.8892,8.9249,8.9249,8.9178,8.9249,8.9178,8.9328,8.9328,8.9249,8.9221,8.9292,8.9364,8.9407,8.9407,6.893,6.904,6.9437,7.0293,7.1178,7.096,7.135,7.2242,7.2226,7.2606,7.3132,7.3659,7.401,7.401,7.3905,7.3905,7.401,7.401,7.401,7.401,7.401,7.4185,7.4572,7.559,7.6011,7.6397,7.724,7.8504,7.8574,7.8574,7.8574,7.8574,7.8574,7.8574,7.8574,7.8574,7.8574,7.8574,7.8574,7.8574,7.8574,7.8574,7.8574,7.8574,7.8574,7.8364,7.8151,7.7971,7.7798,7.7657,7.7613,7.811,7.9024,7.9527,8.061,8.1734,8.2024,8.2346,8.2616,8.2596,8.2631,8.2791,8.3011,8.326,8.3665,8.4472,8.4788,8.4648,8.4472,8.4227,8.4156,8.4402,8.4718,8.5104,8.5491,8.5947,8.6368,8.6017,8.5666,8.5631,8.5596,8.5666,8.5771,8.6084,8.6582,8.7185,8.7824,8.8331,8.8612,8.8635,8.8714,8.8963,8.8928,8.8999,8.9213,8.9249,8.9142,8.9142,8.9249,8.932,8.932,8.9463,8.957,8.9392,8.9285,8.932,8.9364,8.9457,8.9457,8.945,8.9536,8.9621,8.9664,8.9664,8.9628,6.9043,6.9115,6.9227,7.0007,7.0963,7.0712,7.0892,7.1464,7.1945,7.2009,7.1903,7.2606,7.3343,7.3764,7.3659,7.3799,7.394,7.401,7.401,7.401,7.4045,7.4291,7.4817,7.5379,7.573,7.6081,7.717,7.8118,7.8504,7.8574,7.8574,7.8574,7.8574,7.8574,7.8574,7.8609,7.8609,7.8574,7.8644,7.8609,7.8609,7.8609,7.8574,7.8574,7.8532,7.8357,7.8109,7.7937,7.7885,7.7971,7.8145,7.8946,7.9845,8.0586,8.1418,8.2182,8.2505,8.2432,8.2701,8.275,8.2659,8.275,8.3225,8.348,8.3977,8.4688,8.4823,8.4683,8.4472,8.4227,8.4648,8.4929,8.5526,8.6017,8.6509,8.7,8.7176,8.7035,8.686,8.6825,8.6825,8.686,8.6976,8.7011,8.7442,8.7624,8.8371,8.8632,8.9014,8.9527,8.9677,8.9784,8.9677,8.9427,8.9285,8.9392,8.9463,8.9499,8.9641,8.9463,8.9499,8.9749,8.9856,8.9677,8.9499,8.932,8.9371,8.9536,8.9543,8.95,8.9706,8.9917,8.9917,8.9881,8.9881,6.9153,6.9078,6.9078,6.9963,7.1204,7.0639,7.0435,7.0795,7.1769,7.1728,7.0991,7.1412,7.2465,7.3167,7.3238,7.3553,7.3799,7.3975,7.401,7.401,7.401,7.4396,7.4747,7.5168,7.5695,7.6257,7.7064,7.7907,7.8574,7.8574,7.8574,7.8574,7.8609,7.8644,7.8715,7.8785,7.889,7.9066,7.9101,7.8855,7.875,7.8644,7.8679,7.8679,7.8602,7.8392,7.8256,7.8111,7.8102,7.8459,7.8912,7.9775,8.0544,8.1314,8.2103,8.269,8.2846,8.2736,8.2705,8.2442,8.2396,8.2535,8.3253,8.374,8.418,8.4432,8.4533,8.4613,8.4402,8.4753,8.5139,8.5596,8.6263,8.6754,8.7281,8.7784,8.7784,8.7773,8.7784,8.7784,8.7784,8.7784,8.7819,8.789,8.7983,8.8167,8.8396,8.8667,8.8997,8.9689,9.0141,9.0248,9.0248,8.9927,8.9749,8.9856,9.0141,9.0284,9.0391,8.9927,8.9749,9.0284,9.0427,9.0034,8.982,8.9713,8.9629,8.9765,8.9736,8.9742,8.9965,9.0172,9.0089,9.0089,9.0172,6.8667,6.8781,6.9005,6.9477,6.9946,6.973,6.9697,6.9843,7.0049,7.0464,7.1131,7.0955,7.1587,7.3027,7.2922,7.3238,7.3905,7.401,7.401,7.401,7.401,7.4466,7.4817,7.4923,7.5941,7.6538,7.6924,7.738,7.8363,7.8574,7.8574,7.8574,7.8574,7.889,7.9522,7.9557,7.9662,7.9803,7.9662,7.9417,7.9276,7.9171,7.9101,7.8988,7.8791,7.8839,7.8842,7.8789,7.8701,7.9033,7.974,8.0552,8.1164,8.183,8.2479,8.2776,8.2886,8.2705,8.2442,8.2303,8.2303,8.2257,8.2813,8.3204,8.3526,8.3741,8.3936,8.4287,8.4427,8.535,8.5842,8.6263,8.6825,8.7,8.7386,8.7714,8.7854,8.789,8.7854,8.7854,8.7854,8.7854,8.7854,8.7925,8.8006,8.8238,8.8386,8.8693,8.9307,8.9921,9.0525,9.0783,9.0962,9.1105,9.1176,9.0926,9.1069,9.1212,9.1283,9.1033,9.0962,9.1176,9.114,9.0712,9.047,9.0363,9.0287,9.0208,9.0162,9.0211,9.0367,9.0497,9.0448,9.0439,9.0588]}]]